[[{"header":{"parameterUnit":"m.s-1","parameterCategory":1,"la1":31.0,"la2":29.5877,"lo1":-88.7671,"lo2":-86.6584,"dy":0.0162,"dx":0.0185,"nx":115,"ny":88,"refTime":"2023-04-14T18:00:00:Z","depth":0,"parameterNumber":2,"parameterNumberName":"U-component_of_WINDS"},"data":[0.0,0.0,0.0,0.0,0.0,0.0,0.0,0.0,0.0,0.0,0.0,0.0,0.0,0.0,0.0,0.0,0.0,0.0,0.0,0.0,0.0,0.0,0.0,0.0,0.0,0.0,0.0,0.0,0.0,0.0,0.0,0.0,0.0,0.0,0.0,0.0,0.0,0.0,0.0,0.0,0.0,0.0,0.0,0.0,0.0,0.0,0.0,0.0,0.0,0.0,0.0,0.0,0.0,0.0,0.0,0.0,0.0,0.0,0.0,0.0,0.0,0.0,0.0,0.0,0.0,0.0,0.0,0.0,0.0,0.0,0.0,0.0,0.0,0.0,0.0,0.0,0.0,0.0,0.0,0.0,0.0,0.0,0.0,0.0,0.0,0.0,0.0,0.0,0.0,0.0,0.0,0.0,0.0,0.0,0.0,0.0,0.0,0.0,0.0,0.0,0.0,0.0,0.0,0.0,0.0,0.0,0.0,0.0,0.0,0.0,0.0,0.0,0.0,0.0,0.0,0.0,0.0,0.0,0.0,0.0,0.0,0.0,0.0,0.0,0.0,0.0,0.0,0.0,0.0,0.0,0.0,0.0,0.0,0.0,0.0,0.0,0.0,0.0,0.0,0.0,0.0,0.0,0.0,0.0,0.0,0.0,0.0,0.0,0.0,0.0,0.0,0.0,0.0,0.0,0.0,0.0,0.0,0.0,0.0,0.0,0.0,0.0,0.0,0.0,0.0,0.0,0.0,0.0,0.0,0.0,0.0,0.0,0.0,0.0,0.0,0.0,0.0,0.0,0.0,0.0,0.0,0.0,0.0,0.0,0.0,0.0,0.0,0.0,0.0,0.0,0.0,0.0,0.0,0.0,0.0,0.0,0.0,0.0,0.0,0.0,0.0,0.0,0.0,0.0,0.0,0.0,0.0,0.0,0.0,0.0,0.0,0.0,0.0,0.0,0.0,0.0,0.0,0.0,0.0,0.0,0.0,0.0,0.0,0.0,0.0,0.0,0.0,0.0,0.0,0.0,0.0,0.0,0.0,0.0,0.0,0.0,0.0,0.0,0.0,0.0,0.0,0.0,0.0,0.0,0.0,0.0,0.0,0.0,0.0,0.0,0.0,0.0,0.0,0.0,0.0,0.0,0.0,0.0,0.0,0.0,0.0,0.0,0.0,0.0,0.0,0.0,0.0,0.0,0.0,0.0,0.0,0.0,0.0,0.0,0.0,0.0,0.0,0.0,0.0,0.0,0.0,0.0,0.0,0.0,0.0,0.0,0.0,0.0,0.0,0.0,0.0,0.0,0.0,0.0,0.0,0.0,0.0,0.0,0.0,0.0,0.0,0.0,0.0,0.0,0.0,0.0,0.0,0.0,0.0,0.0,0.0,0.0,0.0,0.0,0.0,0.0,0.0,0.0,0.0,0.0,0.0,0.0,0.0,0.0,0.0,0.0,0.0,0.0,0.0,0.0,0.0,0.0,0.0,0.0,0.0,0.0,0.0,0.0,0.0,0.0,0.0,0.0,0.0,0.0,0.0,0.0,0.0,0.0,0.0,0.0,0.0,0.0,0.0,0.0,0.0,0.0,0.0,0.0,0.0,0.0,0.0,0.0,0.0,0.0,0.0,0.0,0.0,0.0,0.0,0.0,0.0,0.0,0.0,0.0,0.0,0.0,0.0,0.0,0.0,0.0,0.0,0.0,0.0,0.0,0.0,0.0,0.0,0.0,0.0,0.0,0.0,0.0,0.0,0.0,0.0,0.0,0.0,0.0,0.0,0.0,0.0,0.0,0.0,0.0,0.0,0.0,0.0,0.0,0.0,0.0,0.0,0.0,0.0,0.0,0.0,0.0,0.0,0.0,0.0,0.0,0.0,0.0,0.0,0.0,0.0,0.0,0.0,0.0,0.0,0.0,0.0,0.0,0.0,0.0,0.0,0.0,0.0,0.0,0.0,0.0,0.0,0.0,0.0,0.0,0.0,0.0,0.0,0.0,0.0,0.0,0.0,0.0,0.0,0.0,0.0,0.0,0.0,0.0,0.0,0.0,0.0,0.0,0.0,0.0,0.0,0.0,0.0,0.0,0.0,0.0,0.0,0.0,0.0,0.0,0.0,0.0,0.0,0.0,0.0,0.0,0.0,0.0,0.0,0.0,0.0,0.0,0.0,0.0,0.0,0.0,0.0,0.0,0.0,0.0,0.0,0.0,0.0,0.0,0.0,0.0,0.0,0.0,0.0,0.0,0.0,0.0,0.0,0.0,0.0,0.0,0.0,0.0,0.0,0.0,0.0,0.0,0.0,0.0,0.0,0.0,0.0,0.0,0.0,0.0,0.0,0.0,0.0,0.0,0.0,0.0,0.0,0.0,0.0,0.0,0.0,0.0,0.0,0.0,0.0,0.0,0.0,0.0,0.0,0.0,0.0,0.0,0.0,0.0,0.0,0.0,0.0,0.0,0.0,0.0,0.0,0.0,0.0,0.0,0.0,0.0,0.0,0.0,0.0,0.0,0.0,0.0,0.0,0.0,0.0,0.0,0.0,0.0,0.0,0.0,0.0,0.0,0.0,0.0,0.0,0.0,0.0,0.0,0.0,0.0,0.0,0.0,0.0,0.0,0.0,0.0,0.0,0.0,0.0,0.0,0.0,0.0,0.0,0.0,0.0,0.0,0.0,0.0,0.0,0.0,0.0,0.0,0.0,0.0,0.0,0.0,0.0,0.0,0.0,0.0,0.0,0.0,0.0,0.0,0.0,0.0,0.0,0.0,0.0,0.0,0.0,0.0,0.0,0.0,0.0,0.0,0.0,0.0,0.0,0.0,0.0,0.0,0.0,0.0,0.0,0.0,0.0,0.0,0.0,0.0,0.0,0.0,0.0,0.0,0.0,0.0,0.0,0.0,0.0,0.0,0.0,0.0,0.0,0.0,0.0,0.0,0.0,0.0,0.0,0.0,0.0,0.0,0.0,0.0,0.0,0.0,0.0,0.0,0.0,0.0,0.0,0.0,0.0,0.0,0.0,0.0,0.0,0.0,0.0,0.0,0.0,0.0,0.0,0.0,0.0,0.0,0.0,0.0,0.0,0.0,0.0,0.0,0.0,0.0,0.0,0.0,0.0,0.0,0.0,0.0,0.0,0.0,0.0,0.0,0.0,0.0,0.0,0.0,0.0,0.0,0.0,0.0,0.0,0.0,0.0,0.0,0.0,0.0,0.0,0.0,0.0,0.0,0.0,0.0,0.0,0.0,0.0,0.0,0.0,0.0,0.0,0.0,0.0,0.0,0.0,0.0,0.0,0.0,0.0,0.0,0.0,0.0,0.0,0.0,0.0,0.0,0.0,0.0,0.0,0.0,0.0,0.0,0.0,0.0,0.0,0.0,0.0,0.0,0.0,0.0,0.0,0.0,0.0,0.0,0.0,0.0,0.0,0.0,0.0,0.0,0.0,0.0,0.0,0.0,0.0,0.0,0.0,0.0,0.0,0.0,0.0,0.0,0.0,0.0,0.0,0.0,0.0,0.0,0.0,0.0,0.0,0.0,0.0,0.0,0.0,0.0,0.0,0.0,0.0,0.0,0.0,0.0,0.0,0.0,0.0,0.0,0.0,0.0,0.0,0.0,0.0,0.0,0.0,0.0,0.0,0.0,0.0,0.0,0.0,0.0,0.0,0.0,0.0,0.0,0.0,0.0,0.0,0.0,0.0,0.0,0.0,0.0,0.0,0.0,0.0,0.0,0.0,0.0,0.0,0.0,0.0,0.0,0.0,0.0,0.0,0.0,0.0,0.0,0.0,0.0,0.0,0.0,0.0,0.0,0.0,0.0,0.0,0.0,0.0,0.0,0.0,0.0,0.0,0.0,0.0,0.0,0.0,0.0,0.0,0.0,0.0,0.0,0.0,0.0,0.0,0.0,0.0,0.0,0.0,0.0,0.0,0.0,0.0,0.0,0.0,0.0,0.0,0.0,0.0,0.0,0.0,0.0,0.0,0.0,0.0,0.0,0.0,0.0,0.0,0.0,0.0,0.0,0.0,0.0,0.0,0.0,0.0,0.0,0.0,0.0,0.0,0.0,0.0,0.0,0.0,0.0,0.0,0.0,0.0,0.0,0.0,0.0,0.0,0.0,0.0,0.0,0.0,0.0,0.0,0.0,0.0,0.0,0.0,0.0,0.0,0.0,0.0,0.0,0.0,0.0,0.0,0.0,0.0,0.0,0.0,0.0,0.0,0.0,0.0,0.0,0.0,0.0,0.0,0.0,0.0,0.0,0.0,0.0,0.0,0.0,0.0,0.0,2.3603,0.0,0.0,0.0,0.0,0.0,0.0,0.0,0.0,0.0,0.0,0.0,0.0,0.0,0.0,0.0,0.0,0.0,0.0,0.0,0.0,0.0,0.0,0.0,0.0,0.0,0.0,0.0,0.0,0.0,0.0,0.0,0.0,0.0,0.0,0.0,0.0,0.0,0.0,0.0,0.0,0.0,0.0,0.0,0.0,0.0,0.0,0.0,0.0,0.0,0.0,0.0,0.0,0.0,0.0,0.0,0.0,0.0,0.0,0.0,0.0,0.0,0.0,0.0,0.0,0.0,0.0,0.0,0.0,0.0,0.0,0.0,0.0,0.0,0.0,0.0,0.0,0.0,0.0,0.0,0.0,0.0,0.0,0.0,0.0,0.0,0.0,0.0,0.0,0.0,0.0,0.0,0.0,0.0,0.0,0.0,0.0,0.0,0.0,0.0,0.0,0.0,0.0,0.0,0.0,0.0,0.0,0.0,0.0,0.0,0.0,2.4962,2.4905,2.5018,2.4966,2.4694,0.0,0.0,0.0,0.0,0.0,0.0,0.0,0.0,0.0,0.0,0.0,0.0,0.0,0.0,0.0,0.0,0.0,0.0,0.0,0.0,0.0,0.0,0.0,0.0,0.0,0.0,0.0,0.0,0.0,0.0,0.0,0.0,0.0,0.0,0.0,0.0,0.0,0.0,0.0,0.0,0.0,0.0,0.0,0.0,0.0,0.0,0.0,0.0,0.0,0.0,0.0,0.0,0.0,0.0,0.0,0.0,0.0,0.0,0.0,0.0,0.0,0.0,0.0,0.0,0.0,0.0,0.0,0.0,0.0,0.0,0.0,0.0,0.0,0.0,0.0,0.0,0.0,0.0,0.0,0.0,0.0,0.0,0.0,0.0,0.0,0.0,0.0,0.0,0.0,0.0,0.0,0.0,0.0,0.0,0.0,0.0,0.0,0.0,0.0,0.0,0.0,0.0,0.0,0.0,0.0,0.0,0.0,0.0,0.0,0.0,0.0,0.0,2.5605,2.5744,2.555,0.0,0.0,0.0,0.0,0.0,0.0,0.0,0.0,0.0,0.0,0.0,0.0,0.0,0.0,0.0,0.0,0.0,0.0,0.0,0.0,0.0,0.0,0.0,0.0,0.0,0.0,0.0,0.0,0.0,0.0,0.0,0.0,0.0,0.0,0.0,0.0,0.0,0.0,0.0,0.0,0.0,0.0,0.0,0.0,0.0,0.0,0.0,0.0,0.0,0.0,0.0,0.0,0.0,0.0,0.0,0.0,0.0,0.0,0.0,0.0,0.0,0.0,0.0,0.0,0.0,0.0,0.0,0.0,0.0,0.0,0.0,0.0,0.0,0.0,0.0,0.0,0.0,0.0,0.0,0.0,0.0,0.0,0.0,0.0,0.0,0.0,0.0,0.0,0.0,0.0,0.0,0.0,0.0,0.0,0.0,0.0,0.0,0.0,0.0,0.0,0.0,0.0,0.0,0.0,0.0,0.0,0.0,0.0,0.0,0.0,2.6245,2.5716,2.633,0.0,2.5716,0.0,0.0,0.0,0.0,0.0,0.0,0.0,0.0,0.0,0.0,0.0,0.0,0.0,0.0,0.0,0.0,0.0,0.0,0.0,0.0,0.0,0.0,0.0,0.0,0.0,0.0,0.0,0.0,0.0,0.0,0.0,0.0,0.0,0.0,0.0,0.0,0.0,0.0,0.0,0.0,0.0,0.0,0.0,0.0,0.0,0.0,0.0,0.0,0.0,0.0,0.0,0.0,0.0,0.0,0.0,0.0,0.0,0.0,0.0,0.0,0.0,0.0,0.0,0.0,0.0,0.0,0.0,0.0,0.0,0.0,0.0,0.0,0.0,0.0,0.0,0.0,0.0,0.0,0.0,0.0,0.0,0.0,0.0,0.0,0.0,0.0,0.0,0.0,0.0,0.0,0.0,0.0,0.0,0.0,0.0,0.0,0.0,0.0,0.0,0.0,0.0,0.0,0.0,0.0,0.0,0.0,0.0,0.0,0.0,0.0,2.6242,2.6042,2.6515,2.6569,0.0,0.0,0.0,0.0,0.0,0.0,0.0,0.0,0.0,0.0,0.0,0.0,0.0,0.0,0.0,0.0,0.0,0.0,0.0,0.0,0.0,0.0,0.0,0.0,0.0,0.0,0.0,0.0,0.0,0.0,0.0,0.0,0.0,0.0,0.0,0.0,0.0,0.0,0.0,0.0,0.0,0.0,0.0,0.0,0.0,0.0,0.0,0.0,0.0,0.0,0.0,0.0,0.0,0.0,0.0,0.0,0.0,0.0,0.0,0.0,0.0,0.0,0.0,0.0,0.0,0.0,0.0,0.0,0.0,0.0,0.0,0.0,0.0,0.0,0.0,0.0,0.0,0.0,0.0,0.0,0.0,0.0,0.0,0.0,0.0,0.0,0.0,0.0,0.0,0.0,0.0,0.0,0.0,0.0,0.0,0.0,0.0,0.0,0.0,0.0,0.0,0.0,0.0,0.0,0.0,0.0,0.0,0.0,0.0,0.0,2.6375,2.6676,2.6808,2.6823,2.6788,2.663,0.0,0.0,0.0,0.0,0.0,0.0,0.0,0.0,0.0,0.0,0.0,0.0,0.0,0.0,0.0,0.0,0.0,0.0,0.0,0.0,0.0,0.0,0.0,0.0,0.0,0.0,0.0,0.0,0.0,0.0,0.0,0.0,0.0,0.0,0.0,0.0,0.0,0.0,0.0,0.0,0.0,0.0,0.0,0.0,0.0,0.0,0.0,0.0,0.0,0.0,0.0,0.0,0.0,0.0,0.0,0.0,0.0,0.0,0.0,0.0,0.0,0.0,0.0,0.0,0.0,0.0,0.0,0.0,0.0,0.0,0.0,0.0,0.0,0.0,0.0,0.0,0.0,0.0,0.0,0.0,0.0,0.0,0.0,0.0,0.0,0.0,0.0,0.0,0.0,0.0,0.0,0.0,0.0,0.0,0.0,0.0,0.0,0.0,0.0,0.0,0.0,0.0,0.0,0.0,0.0,0.0,0.0,0.0,2.6472,2.7316,2.7852,2.7983,2.7506,2.713,0.0,0.0,0.0,0.0,0.0,0.0,0.0,0.0,0.0,0.0,0.0,0.0,0.0,0.0,0.0,0.0,0.0,0.0,0.0,0.0,0.0,0.0,0.0,0.0,0.0,0.0,0.0,0.0,0.0,0.0,0.0,0.0,0.0,0.0,0.0,0.0,0.0,0.0,0.0,0.0,0.0,0.0,0.0,0.0,0.0,0.0,0.0,0.0,0.0,0.0,0.0,0.0,0.0,0.0,0.0,0.0,0.0,0.0,0.0,0.0,0.0,0.0,0.0,0.0,0.0,0.0,0.0,0.0,0.0,0.0,0.0,0.0,0.0,0.0,0.0,0.0,0.0,0.0,0.0,0.0,0.0,0.0,0.0,0.0,0.0,0.0,0.0,0.0,0.0,0.0,0.0,0.0,0.0,0.0,0.0,0.0,0.0,0.0,0.0,0.0,0.0,0.0,0.0,0.0,0.0,0.0,0.0,0.0,0.0,2.6846,2.7313,2.7639,2.7765,2.7658,2.7539,0.0,0.0,0.0,0.0,0.0,0.0,0.0,0.0,0.0,0.0,0.0,0.0,0.0,0.0,0.0,0.0,0.0,0.0,0.0,0.0,0.0,0.0,0.0,0.0,0.0,0.0,0.0,0.0,0.0,0.0,0.0,0.0,0.0,0.0,0.0,0.0,0.0,0.0,0.0,0.0,0.0,0.0,0.0,0.0,0.0,0.0,0.0,0.0,0.0,0.0,0.0,0.0,0.0,0.0,0.0,0.0,0.0,0.0,0.0,0.0,0.0,0.0,0.0,0.0,0.0,0.0,0.0,0.0,0.0,0.0,0.0,0.0,0.0,0.0,0.0,0.0,0.0,0.0,0.0,0.0,0.0,0.0,0.0,0.0,0.0,0.0,0.0,0.0,0.0,0.0,0.0,0.0,0.0,0.0,0.0,0.0,0.0,0.0,0.0,0.0,0.0,0.0,0.0,0.0,0.0,0.0,0.0,0.0,0.0,2.7314,0.0,2.764,2.774,2.784,2.784,0.0,0.0,0.0,0.0,0.0,0.0,0.0,0.0,0.0,0.0,0.0,0.0,0.0,0.0,0.0,0.0,0.0,0.0,0.0,0.0,0.0,0.0,0.0,0.0,0.0,0.0,0.0,0.0,0.0,0.0,0.0,0.0,0.0,0.0,0.0,0.0,0.0,0.0,0.0,0.0,0.0,0.0,0.0,0.0,0.0,0.0,0.0,0.0,0.0,0.0,0.0,0.0,0.0,0.0,0.0,0.0,0.0,0.0,0.0,0.0,0.0,0.0,0.0,0.0,0.0,0.0,0.0,0.0,0.0,0.0,0.0,0.0,0.0,0.0,0.0,0.0,0.0,0.0,0.0,0.0,0.0,0.0,0.0,0.0,0.0,0.0,0.0,0.0,0.0,0.0,0.0,0.0,0.0,0.0,0.0,0.0,0.0,0.0,0.0,0.0,0.0,0.0,0.0,0.0,0.0,0.0,0.0,0.0,2.774,2.797,2.797,2.797,2.802,2.802,2.802,0.0,0.0,0.0,0.0,0.0,0.0,0.0,0.0,0.0,0.0,0.0,0.0,0.0,0.0,0.0,0.0,0.0,0.0,0.0,0.0,0.0,0.0,0.0,0.0,0.0,0.0,0.0,0.0,0.0,0.0,0.0,0.0,0.0,0.0,0.0,0.0,0.0,0.0,0.0,0.0,0.0,0.0,0.0,0.0,0.0,0.0,0.0,0.0,0.0,0.0,0.0,0.0,0.0,0.0,0.0,0.0,0.0,0.0,0.0,0.0,0.0,0.0,0.0,0.0,0.0,0.0,0.0,0.0,0.0,0.0,0.0,0.0,0.0,0.0,0.0,0.0,0.0,0.0,0.0,0.0,0.0,0.0,0.0,0.0,0.0,0.0,0.0,0.0,0.0,0.0,0.0,0.0,0.0,0.0,0.0,0.0,0.0,0.0,0.0,0.0,0.0,0.0,0.0,0.0,0.0,0.0,0.0,0.0,0.0,2.802,2.802,2.8069,2.8137,2.8137,2.8217,0.0,0.0,0.0,0.0,0.0,0.0,0.0,0.0,0.0,0.0,0.0,0.0,0.0,0.0,0.0,0.0,0.0,0.0,0.0,0.0,0.0,0.0,0.0,0.0,0.0,0.0,0.0,0.0,0.0,0.0,0.0,0.0,0.0,0.0,0.0,0.0,0.0,0.0,0.0,0.0,0.0,0.0,0.0,0.0,0.0,0.0,0.0,0.0,0.0,0.0,0.0,0.0,0.0,0.0,0.0,0.0,0.0,0.0,0.0,0.0,0.0,0.0,0.0,0.0,0.0,0.0,0.0,0.0,0.0,0.0,0.0,0.0,0.0,0.0,0.0,0.0,0.0,0.0,0.0,0.0,0.0,0.0,0.0,0.0,0.0,0.0,0.0,0.0,0.0,0.0,0.0,0.0,0.0,0.0,0.0,0.0,0.0,0.0,0.0,0.0,0.0,0.0,0.0,0.0,0.0,0.0,0.0,0.0,0.0,2.8633,2.8534,2.8583,2.8652,2.8682,2.856,2.8411,0.0,0.0,0.0,0.0,0.0,0.0,0.0,0.0,0.0,0.0,0.0,0.0,0.0,0.0,0.0,0.0,0.0,0.0,0.0,0.0,0.0,0.0,0.0,0.0,0.0,0.0,0.0,0.0,0.0,0.0,0.0,0.0,0.0,0.0,0.0,0.0,0.0,0.0,0.0,0.0,0.0,0.0,0.0,0.0,0.0,0.0,0.0,0.0,0.0,0.0,0.0,0.0,0.0,0.0,0.0,0.0,0.0,0.0,0.0,0.0,0.0,0.0,0.0,0.0,0.0,0.0,0.0,0.0,0.0,0.0,0.0,0.0,0.0,0.0,0.0,0.0,0.0,0.0,0.0,0.0,0.0,0.0,0.0,0.0,0.0,0.0,0.0,0.0,0.0,0.0,0.0,0.0,0.0,0.0,0.0,0.0,0.0,0.0,0.0,0.0,0.0,0.0,0.0,0.0,0.0,0.0,0.0,0.0,2.98,2.9682,2.955,2.9458,2.9458,2.9181,0.0,0.0,0.0,0.0,0.0,0.0,0.0,0.0,0.0,0.0,0.0,0.0,0.0,0.0,0.0,0.0,0.0,0.0,0.0,0.0,0.0,0.0,0.0,0.0,0.0,0.0,0.0,0.0,0.0,0.0,0.0,0.0,0.0,0.0,0.0,0.0,0.0,0.0,0.0,0.0,0.0,0.0,0.0,0.0,0.0,0.0,0.0,0.0,0.0,0.0,0.0,0.0,0.0,0.0,0.0,0.0,0.0,0.0,0.0,0.0,0.0,0.0,0.0,0.0,0.0,0.0,0.0,0.0,0.0,0.0,0.0,0.0,0.0,0.0,0.0,0.0,0.0,0.0,0.0,0.0,0.0,0.0,0.0,0.0,0.0,0.0,0.0,0.0,0.0,0.0,0.0,0.0,0.0,0.0,0.0,0.0,0.0,0.0,0.0,0.0,0.0,0.0,0.0,0.0,0.0,0.0,0.0,0.0,0.0,3.2081,3.2144,3.1623,3.0472,3.0441,3.0348,0.0,0.0,0.0,0.0,0.0,0.0,0.0,0.0,0.0,0.0,0.0,0.0,0.0,0.0,0.0,0.0,0.0,0.0,0.0,0.0,0.0,0.0,0.0,0.0,0.0,0.0,0.0,0.0,0.0,0.0,0.0,0.0,0.0,0.0,0.0,0.0,0.0,0.0,0.0,0.0,0.0,0.0,0.0,0.0,0.0,0.0,0.0,0.0,0.0,0.0,0.0,0.0,0.0,0.0,0.0,0.0,0.0,0.0,0.0,0.0,0.0,0.0,0.0,0.0,0.0,0.0,0.0,0.0,0.0,0.0,0.0,0.0,0.0,0.0,0.0,0.0,0.0,0.0,0.0,0.0,0.0,0.0,0.0,0.0,0.0,0.0,0.0,0.0,0.0,0.0,0.0,0.0,0.0,0.0,0.0,0.0,0.0,0.0,0.0,0.0,0.0,0.0,0.0,0.0,0.0,0.0,0.0,0.0,3.1789,3.314,3.3953,3.3911,3.3065,3.2258,3.1538,0.0,0.0,0.0,0.0,0.0,0.0,0.0,0.0,0.0,0.0,0.0,0.0,0.0,0.0,0.0,0.0,0.0,0.0,0.0,0.0,0.0,0.0,0.0,0.0,0.0,0.0,0.0,0.0,0.0,0.0,0.0,0.0,0.0,0.0,0.0,0.0,0.0,0.0,0.0,0.0,0.0,0.0,0.0,0.0,0.0,0.0,0.0,0.0,0.0,0.0,0.0,0.0,0.0,0.0,0.0,0.0,0.0,0.0,0.0,0.0,0.0,0.0,0.0,0.0,0.0,0.0,0.0,0.0,0.0,0.0,0.0,0.0,0.0,0.0,0.0,0.0,0.0,0.0,0.0,0.0,0.0,0.0,0.0,0.0,0.0,0.0,0.0,0.0,0.0,0.0,0.0,0.0,0.0,0.0,0.0,0.0,0.0,0.0,0.0,0.0,0.0,0.0,0.0,0.0,0.0,0.0,0.0,0.0,3.3393,3.3604,3.5337,3.626,3.6228,3.4473,3.2823,0.0,0.0,0.0,0.0,0.0,0.0,0.0,0.0,0.0,0.0,0.0,0.0,0.0,0.0,0.0,0.0,0.0,0.0,0.0,0.0,0.0,0.0,0.0,0.0,0.0,0.0,0.0,0.0,0.0,0.0,0.0,0.0,0.0,0.0,0.0,0.0,0.0,0.0,0.0,0.0,0.0,0.0,0.0,0.0,0.0,0.0,0.0,0.0,0.0,0.0,0.0,0.0,0.0,0.0,0.0,0.0,0.0,0.0,0.0,0.0,0.0,0.0,0.0,0.0,0.0,0.0,0.0,0.0,0.0,0.0,0.0,0.0,0.0,0.0,0.0,0.0,0.0,0.0,0.0,0.0,0.0,0.0,0.0,0.0,0.0,0.0,0.0,0.0,0.0,0.0,0.0,0.0,0.0,0.0,0.0,0.0,0.0,0.0,0.0,0.0,0.0,0.0,0.0,0.0,0.0,0.0,0.0,0.0,3.3996,3.5466,3.6518,3.7189,3.7437,3.5614,3.4503,0.0,0.0,0.0,0.0,0.0,0.0,0.0,0.0,0.0,0.0,0.0,0.0,0.0,0.0,0.0,0.0,0.0,0.0,0.0,0.0,0.0,0.0,0.0,0.0,0.0,0.0,0.0,0.0,0.0,0.0,0.0,0.0,0.0,0.0,0.0,0.0,0.0,0.0,0.0,0.0,0.0,0.0,0.0,0.0,0.0,0.0,0.0,0.0,2.887,0.0,0.0,0.0,0.0,0.0,0.0,0.0,0.0,0.0,0.0,0.0,0.0,0.0,0.0,0.0,0.0,0.0,0.0,0.0,0.0,0.0,0.0,0.0,0.0,0.0,0.0,0.0,0.0,0.0,0.0,0.0,0.0,0.0,0.0,0.0,0.0,0.0,0.0,0.0,0.0,0.0,0.0,0.0,0.0,0.0,0.0,0.0,0.0,0.0,0.0,0.0,0.0,0.0,0.0,0.0,0.0,0.0,0.0,0.0,3.5123,3.6185,3.7492,3.8177,3.8339,3.7077,3.6039,0.0,0.0,0.0,0.0,0.0,0.0,0.0,0.0,0.0,0.0,0.0,0.0,0.0,0.0,0.0,0.0,0.0,0.0,0.0,0.0,0.0,0.0,0.0,0.0,0.0,0.0,0.0,0.0,0.0,0.0,0.0,0.0,0.0,0.0,0.0,0.0,0.0,0.0,0.0,0.0,0.0,0.0,0.0,0.0,0.0,0.0,0.0,0.0,0.0,0.0,0.0,0.0,0.0,0.0,0.0,0.0,0.0,0.0,0.0,0.0,0.0,0.0,0.0,0.0,0.0,0.0,0.0,0.0,0.0,0.0,0.0,0.0,0.0,0.0,0.0,0.0,0.0,0.0,0.0,0.0,0.0,0.0,0.0,0.0,0.0,0.0,0.0,0.0,0.0,0.0,0.0,0.0,0.0,0.0,0.0,0.0,0.0,0.0,0.0,0.0,0.0,0.0,0.0,0.0,0.0,0.0,0.0,3.4814,3.6196,3.6518,3.8133,3.9007,3.904,3.8533,3.7472,3.5869,0.0,0.0,0.0,0.0,0.0,0.0,0.0,0.0,0.0,0.0,0.0,0.0,0.0,0.0,0.0,0.0,0.0,0.0,0.0,0.0,0.0,0.0,0.0,0.0,0.0,0.0,0.0,0.0,0.0,0.0,0.0,0.0,0.0,0.0,0.0,0.0,0.0,0.0,2.8339,2.91,0.0,0.0,0.0,0.0,0.0,0.0,0.0,0.0,3.1173,0.0,0.0,0.0,0.0,0.0,0.0,0.0,0.0,0.0,0.0,0.0,0.0,0.0,0.0,0.0,0.0,0.0,0.0,0.0,0.0,0.0,0.0,0.0,0.0,0.0,0.0,0.0,0.0,0.0,0.0,0.0,0.0,0.0,0.0,0.0,0.0,0.0,0.0,0.0,0.0,0.0,0.0,0.0,0.0,0.0,0.0,0.0,0.0,0.0,0.0,0.0,0.0,0.0,0.0,0.0,0.0,3.3087,3.5091,3.6508,3.7362,3.845,3.9094,3.9255,3.9156,3.8639,3.7727,0.0,0.0,0.0,0.0,0.0,0.0,0.0,0.0,0.0,0.0,0.0,0.0,0.0,0.0,0.0,0.0,0.0,0.0,0.0,0.0,0.0,0.0,0.0,0.0,0.0,0.0,0.0,0.0,0.0,0.0,0.0,0.0,0.0,0.0,0.0,0.0,0.0,0.0,0.0,2.9776,3.0505,0.0,0.0,0.0,0.0,0.0,0.0,0.0,0.0,3.2338,0.0,0.0,0.0,0.0,0.0,0.0,0.0,0.0,0.0,0.0,0.0,0.0,0.0,0.0,0.0,0.0,0.0,0.0,0.0,0.0,0.0,0.0,0.0,0.0,0.0,0.0,0.0,0.0,0.0,0.0,0.0,0.0,0.0,0.0,0.0,0.0,0.0,0.0,0.0,0.0,0.0,0.0,0.0,0.0,0.0,0.0,0.0,0.0,0.0,0.0,0.0,0.0,0.0,0.0,0.0,3.4048,3.5561,3.6755,3.7826,3.8677,3.9202,3.9288,3.9288,3.8957,0.0,0.0,0.0,0.0,0.0,0.0,0.0,0.0,0.0,0.0,0.0,0.0,0.0,0.0,0.0,0.0,0.0,0.0,0.0,0.0,0.0,0.0,0.0,0.0,0.0,0.0,0.0,0.0,0.0,0.0,0.0,0.0,0.0,0.0,0.0,0.0,0.0,0.0,0.0,0.0,3.0772,3.1288,3.1936,0.0,0.0,0.0,0.0,0.0,0.0,3.3693,3.4093,0.0,0.0,0.0,0.0,0.0,0.0,0.0,0.0,0.0,0.0,0.0,0.0,0.0,0.0,0.0,0.0,0.0,0.0,0.0,0.0,0.0,0.0,0.0,0.0,0.0,0.0,0.0,0.0,0.0,0.0,0.0,0.0,0.0,0.0,0.0,0.0,0.0,0.0,0.0,0.0,0.0,0.0,0.0,0.0,0.0,0.0,0.0,0.0,0.0,0.0,0.0,0.0,0.0,0.0,0.0,3.5016,3.6052,3.7085,3.8183,3.8937,3.9288,3.9288,3.9288,3.9076,0.0,0.0,0.0,0.0,0.0,0.0,0.0,0.0,0.0,0.0,0.0,0.0,0.0,0.0,0.0,0.0,0.0,0.0,0.0,0.0,0.0,0.0,0.0,0.0,0.0,0.0,0.0,0.0,0.0,0.0,0.0,0.0,0.0,0.0,0.0,0.0,0.0,0.0,0.0,0.0,0.0,3.2075,3.2757,3.3139,0.0,0.0,0.0,0.0,3.4455,3.5039,0.0,0.0,0.0,0.0,0.0,0.0,0.0,0.0,0.0,0.0,0.0,0.0,0.0,0.0,0.0,0.0,0.0,0.0,0.0,0.0,0.0,0.0,0.0,0.0,0.0,0.0,0.0,0.0,0.0,0.0,0.0,0.0,0.0,0.0,0.0,0.0,0.0,0.0,0.0,0.0,0.0,0.0,0.0,0.0,0.0,0.0,0.0,0.0,0.0,0.0,0.0,0.0,0.0,0.0,0.0,0.0,3.6044,3.6502,3.74,3.8842,3.9169,3.9288,3.9288,3.9288,3.9309,0.0,0.0,0.0,0.0,0.0,0.0,0.0,0.0,0.0,0.0,0.0,0.0,0.0,0.0,0.0,0.0,0.0,0.0,0.0,0.0,0.0,0.0,0.0,0.0,0.0,0.0,0.0,0.0,0.0,0.0,0.0,0.0,0.0,0.0,0.0,0.0,0.0,0.0,0.0,0.0,0.0,3.2811,3.3606,3.4453,3.4942,0.0,0.0,3.5482,3.5591,3.5655,0.0,0.0,0.0,0.0,0.0,0.0,0.0,0.0,0.0,0.0,0.0,0.0,0.0,0.0,0.0,0.0,0.0,0.0,0.0,0.0,0.0,0.0,0.0,0.0,0.0,0.0,0.0,0.0,0.0,0.0,0.0,0.0,0.0,0.0,0.0,0.0,0.0,0.0,0.0,0.0,0.0,0.0,0.0,0.0,0.0,0.0,0.0,0.0,0.0,0.0,0.0,0.0,0.0,0.0,0.0,3.4522,3.647,3.717,3.8018,3.9082,3.9255,3.9288,3.9288,3.9395,3.9448,0.0,0.0,0.0,0.0,0.0,0.0,0.0,0.0,0.0,0.0,0.0,0.0,0.0,0.0,0.0,0.0,0.0,0.0,0.0,0.0,0.0,0.0,0.0,0.0,0.0,0.0,0.0,0.0,0.0,0.0,0.0,0.0,0.0,0.0,0.0,0.0,0.0,0.0,0.0,0.0,0.0,0.0,3.4659,3.5197,0.0,0.0,0.0,3.6493,3.6658,0.0,0.0,0.0,0.0,0.0,0.0,0.0,0.0,0.0,0.0,0.0,0.0,0.0,0.0,0.0,0.0,0.0,0.0,0.0,0.0,0.0,0.0,0.0,0.0,0.0,0.0,0.0,0.0,0.0,0.0,0.0,0.0,0.0,0.0,0.0,0.0,0.0,0.0,0.0,0.0,0.0,0.0,0.0,0.0,0.0,0.0,0.0,0.0,0.0,0.0,0.0,0.0,0.0,0.0,0.0,0.0,0.0,3.6763,3.7892,3.8825,3.9628,3.9661,3.9661,3.9661,3.9601,0.0,0.0,0.0,0.0,0.0,0.0,0.0,0.0,0.0,0.0,0.0,0.0,0.0,0.0,0.0,0.0,0.0,0.0,0.0,0.0,0.0,0.0,0.0,0.0,0.0,0.0,0.0,2.9169,0.0,0.0,0.0,0.0,0.0,0.0,0.0,0.0,0.0,0.0,0.0,0.0,0.0,0.0,3.5158,3.5752,3.6166,3.6483,0.0,0.0,3.7792,3.7676,3.8404,3.8884,0.0,0.0,0.0,0.0,0.0,0.0,0.0,0.0,0.0,0.0,0.0,0.0,0.0,0.0,0.0,0.0,0.0,0.0,0.0,0.0,0.0,0.0,0.0,0.0,0.0,0.0,0.0,0.0,0.0,0.0,0.0,0.0,0.0,0.0,0.0,0.0,0.0,0.0,0.0,0.0,0.0,0.0,0.0,0.0,0.0,0.0,0.0,0.0,0.0,0.0,0.0,0.0,0.0,0.0,0.0,3.7069,3.872,3.9893,4.0682,4.0715,4.0715,4.0715,4.0046,3.9763,0.0,0.0,0.0,0.0,0.0,0.0,0.0,0.0,0.0,0.0,0.0,0.0,0.0,0.0,0.0,0.0,0.0,0.0,0.0,0.0,0.0,0.0,0.0,0.0,0.0,0.0,0.0,0.0,0.0,0.0,0.0,0.0,0.0,0.0,0.0,0.0,0.0,0.0,0.0,0.0,0.0,3.6653,3.691,3.7713,3.8302,0.0,0.0,3.9453,3.8766,3.9345,3.9607,3.8919,0.0,0.0,0.0,0.0,0.0,0.0,0.0,0.0,0.0,0.0,0.0,0.0,0.0,0.0,0.0,0.0,0.0,0.0,0.0,0.0,0.0,0.0,0.0,0.0,0.0,0.0,0.0,0.0,0.0,0.0,0.0,0.0,0.0,0.0,0.0,0.0,0.0,0.0,0.0,0.0,0.0,0.0,0.0,0.0,0.0,0.0,0.0,0.0,0.0,0.0,0.0,0.0,0.0,3.7203,3.802,3.9558,4.0514,4.0782,4.1218,4.1251,4.0816,4.062,4.0303,0.0,0.0,0.0,0.0,0.0,0.0,0.0,0.0,0.0,0.0,0.0,0.0,0.0,0.0,0.0,0.0,0.0,0.0,0.0,0.0,0.0,0.0,0.0,0.0,0.0,0.0,0.0,0.0,3.1496,3.1821,3.274,0.0,0.0,0.0,0.0,0.0,0.0,0.0,0.0,0.0,0.0,3.7413,3.7945,3.8349,0.0,0.0,3.8995,3.9171,3.8964,3.9161,3.9281,3.9127,3.9094,0.0,0.0,0.0,0.0,0.0,0.0,0.0,0.0,0.0,0.0,0.0,0.0,0.0,0.0,0.0,0.0,0.0,0.0,0.0,0.0,0.0,0.0,0.0,0.0,0.0,0.0,0.0,0.0,0.0,0.0,0.0,0.0,0.0,0.0,0.0,0.0,0.0,0.0,0.0,0.0,0.0,0.0,0.0,0.0,0.0,0.0,0.0,0.0,0.0,0.0,0.0,0.0,3.8171,3.8992,4.0486,4.1379,4.156,4.2085,4.2118,4.1648,4.1485,4.1013,0.0,0.0,0.0,0.0,0.0,0.0,0.0,0.0,0.0,0.0,0.0,0.0,0.0,0.0,0.0,0.0,0.0,0.0,0.0,0.0,0.0,0.0,0.0,0.0,0.0,0.0,0.0,0.0,3.2686,3.3047,3.3762,0.0,0.0,0.0,0.0,0.0,0.0,0.0,0.0,0.0,0.0,3.8155,3.8613,3.8821,3.8876,3.8931,3.9292,3.9545,3.9457,3.9589,3.9776,3.9918,0.0,0.0,0.0,0.0,0.0,0.0,0.0,0.0,0.0,0.0,0.0,0.0,0.0,0.0,0.0,0.0,0.0,0.0,0.0,0.0,0.0,0.0,0.0,0.0,0.0,0.0,0.0,0.0,0.0,0.0,3.3128,0.0,0.0,0.0,0.0,0.0,0.0,0.0,0.0,0.0,0.0,0.0,0.0,0.0,0.0,0.0,0.0,0.0,0.0,0.0,0.0,0.0,0.0,3.911,3.9884,4.1456,4.2625,4.3247,4.3403,4.3314,4.3247,4.2658,4.1948,4.1204,0.0,0.0,0.0,0.0,0.0,0.0,0.0,0.0,0.0,0.0,0.0,0.0,0.0,0.0,0.0,0.0,0.0,0.0,0.0,0.0,0.0,0.0,0.0,0.0,0.0,0.0,3.369,3.4182,3.4726,0.0,0.0,0.0,0.0,0.0,0.0,0.0,0.0,0.0,0.0,3.8678,3.8843,3.8985,3.904,3.916,3.9322,4.0448,4.111,4.0448,4.0912,4.1375,0.0,0.0,0.0,0.0,0.0,0.0,0.0,0.0,0.0,0.0,0.0,0.0,0.0,0.0,0.0,0.0,0.0,0.0,0.0,0.0,0.0,0.0,0.0,0.0,0.0,0.0,0.0,3.3761,3.3673,0.0,0.0,0.0,0.0,0.0,0.0,0.0,0.0,0.0,0.0,0.0,3.7469,3.7691,0.0,0.0,0.0,0.0,0.0,0.0,0.0,0.0,0.0,0.0,0.0,0.0,3.9564,4.0746,4.1813,4.2658,4.3403,4.391,4.3944,4.3436,4.3166,4.2746,4.2106,0.0,0.0,0.0,0.0,0.0,0.0,0.0,0.0,0.0,0.0,0.0,0.0,0.0,0.0,0.0,0.0,0.0,0.0,0.0,0.0,0.0,0.0,0.0,0.0,0.0,3.4564,0.0,0.0,0.0,0.0,0.0,0.0,0.0,0.0,0.0,0.0,0.0,3.8581,3.881,3.9468,3.9875,3.9929,4.0271,4.0624,0.0,0.0,0.0,0.0,0.0,0.0,0.0,0.0,0.0,0.0,0.0,0.0,0.0,0.0,4.113,4.0611,4.0512,4.0512,4.0512,0.0,0.0,0.0,0.0,0.0,0.0,0.0,0.0,0.0,0.0,0.0,0.0,0.0,0.0,0.0,0.0,3.4747,0.0,0.0,0.0,0.0,0.0,0.0,0.0,0.0,3.741,3.7976,3.8438,3.8676,3.8812,0.0,3.854,3.8444,0.0,0.0,0.0,0.0,0.0,0.0,0.0,0.0,4.0358,4.1542,4.2373,4.3172,4.3864,4.4483,4.4483,4.3973,4.379,4.3435,4.3064,4.2466,4.1953,0.0,0.0,0.0,0.0,0.0,0.0,0.0,0.0,0.0,0.0,0.0,0.0,0.0,0.0,0.0,0.0,0.0,0.0,0.0,0.0,0.0,0.0,0.0,3.6108,0.0,0.0,0.0,0.0,0.0,0.0,0.0,0.0,0.0,3.904,3.904,3.9193,3.9457,3.9996,4.0481,4.0713,0.0,0.0,0.0,0.0,0.0,0.0,0.0,4.2336,4.2833,4.2734,4.2634,4.2899,4.2932,4.3098,4.3562,0.0,0.0,4.2369,4.2204,4.217,4.217,4.217,4.2204,4.217,4.217,4.227,0.0,0.0,0.0,0.0,0.0,0.0,0.0,0.0,3.7805,3.7339,0.0,3.6554,0.0,0.0,0.0,0.0,0.0,0.0,0.0,0.0,3.9097,3.9474,3.9542,4.026,4.0603,4.0534,3.9884,3.987,4.0451,3.888,0.0,0.0,0.0,0.0,0.0,0.0,4.1576,4.2373,4.3226,4.4028,4.4797,4.494,4.4961,4.4981,4.4437,4.4165,4.413,4.3545,4.2837,4.1931,4.1862,0.0,0.0,0.0,0.0,0.0,0.0,0.0,0.0,0.0,0.0,0.0,0.0,0.0,0.0,0.0,0.0,0.0,0.0,0.0,0.0,3.7793,0.0,0.0,0.0,0.0,0.0,0.0,0.0,0.0,0.0,0.0,3.9441,3.9355,3.9587,4.0315,0.0,0.0,0.0,0.0,4.1541,4.1574,4.2137,4.2866,4.3595,4.3694,4.4158,4.5516,0.0,0.0,4.5649,4.5748,4.5715,4.5814,4.5748,4.5384,4.4059,4.3761,4.3694,4.3694,4.3694,4.3694,4.3694,4.3694,4.3893,4.1766,0.0,0.0,0.0,0.0,3.9417,3.9271,3.9012,3.8894,3.8671,3.8335,3.8285,0.0,0.0,0.0,0.0,0.0,0.0,3.8905,3.933,4.0181,4.0836,4.1257,4.2049,4.2343,4.2243,4.2037,4.2021,4.2091,4.1665,4.0966,4.008,0.0,0.0,0.0,0.0,4.2125,4.3352,4.3712,4.419,4.4906,4.4995,4.5049,4.5123,4.5182,4.5234,4.5303,4.4659,4.4138,4.3846,4.3276,0.0,0.0,0.0,0.0,0.0,0.0,0.0,0.0,0.0,0.0,0.0,0.0,0.0,0.0,0.0,0.0,0.0,0.0,0.0,3.7889,3.7841,3.7874,0.0,0.0,0.0,0.0,0.0,0.0,0.0,0.0,0.0,4.113,4.0546,4.0315,0.0,0.0,4.1972,4.217,4.3098,4.3761,4.3761,0.0,0.0,0.0,4.5185,4.5317,4.5715,4.5616,4.5549,4.5748,4.5781,4.5947,4.6477,4.6576,4.6609,4.6709,4.5881,4.5251,4.5152,4.5185,4.5152,4.5185,4.5185,4.5251,4.3954,4.1747,4.1624,4.154,4.154,4.1463,4.1279,4.0877,4.0553,4.0151,3.9708,3.9301,3.9033,3.8903,3.9172,0.0,0.0,0.0,4.0631,4.1325,4.1858,4.2358,4.2762,4.3249,4.3444,4.3262,4.3296,4.3247,4.3097,4.3131,4.2649,4.1753,0.0,0.0,4.2057,4.233,4.2945,4.3868,4.4502,4.5069,4.5623,4.5818,4.589,4.5996,4.5942,4.5955,4.602,4.5649,4.5264,4.4935,4.4432,4.3659,0.0,0.0,0.0,0.0,0.0,0.0,0.0,0.0,0.0,0.0,0.0,3.6738,0.0,0.0,0.0,0.0,3.8599,3.8768,3.8768,3.8768,0.0,0.0,0.0,0.0,0.0,0.0,0.0,4.1471,4.1452,4.1701,4.2299,4.181,4.1544,4.1976,4.2409,4.2907,4.3473,0.0,4.497,4.5208,4.5701,4.6101,4.6337,4.6433,4.6599,4.7198,4.7298,4.7398,4.7728,4.7761,4.7928,4.8294,4.8362,4.8495,4.8961,4.8296,4.7498,4.6872,4.6908,4.7106,4.7106,4.7338,4.7537,4.6152,4.5378,4.5078,4.4769,4.4511,4.4423,4.3917,4.3208,4.2534,4.174,4.0948,4.0116,3.9638,3.9511,4.0114,0.0,4.1533,4.223,4.2952,4.371,4.3828,4.391,4.4003,4.419,4.4132,4.399,4.406,4.4082,4.4056,4.4021,4.4021,4.3972,4.3476,4.3151,4.2963,4.3647,4.4057,4.4126,4.5657,4.6542,4.6738,4.7108,4.7315,4.7315,4.6864,4.6623,4.6623,4.6754,4.6413,4.5576,4.5494,4.5012,4.3898,0.0,0.0,0.0,0.0,0.0,0.0,0.0,0.0,0.0,0.0,0.0,0.0,0.0,0.0,0.0,3.9901,0.0,4.0307,4.0307,0.0,0.0,0.0,4.1542,4.2219,4.2286,4.232,4.2354,0.0,0.0,4.3317,0.0,4.325,4.3317,4.325,4.3662,4.5068,4.5336,4.5544,4.6124,4.6413,4.6681,4.7224,4.7454,4.8018,4.932,4.9689,4.9823,5.0358,5.0492,5.0593,5.0526,5.0626,5.0626,5.066,5.0492,5.0192,4.8497,4.8729,4.9227,4.9161,4.9592,4.999,4.9068,4.888,4.8712,4.7212,4.4892,4.4814,4.4664,4.4364,4.4178,4.3871,4.3571,4.3262,4.3023,4.2934,4.2973,4.3103,4.3313,4.3581,4.3839,4.4061,4.4752,4.5117,4.5152,4.6283,4.68,4.6737,4.7301,4.7568,4.7417,4.7417,4.7417,4.7417,4.716,4.6083,4.4215,4.4716,4.5405,4.6116,4.7015,4.7661,4.7963,4.8172,4.8326,4.8428,4.8466,4.8542,4.8529,4.8577,4.8187,4.7394,4.7227,4.6495,4.4976,4.4683,0.0,0.0,0.0,0.0,0.0,0.0,0.0,0.0,0.0,3.841,3.899,0.0,4.0231,0.0,4.1733,4.2091,4.1954,4.1902,0.0,0.0,4.2016,4.2083,4.2252,4.2286,4.2523,4.3098,4.3111,4.3618,4.4936,4.5048,4.525,4.579,4.5177,4.5001,4.5872,4.6508,4.691,4.7082,4.7579,4.8015,4.8249,4.8718,4.9387,5.0258,5.0425,5.0492,5.0626,5.066,5.066,5.066,5.066,5.066,5.076,5.066,5.0593,5.0159,5.0259,5.0293,5.0293,5.046,5.056,5.0416,5.009,5.0009,4.8908,4.724,4.6751,4.6306,4.5904,4.5538,4.5308,4.5229,4.4698,4.4378,4.4163,4.4117,4.4294,4.4693,4.5138,4.5584,4.6067,4.686,4.7298,4.738,4.8235,4.858,4.8435,4.8897,4.9061,4.8962,4.8912,4.8862,4.8862,4.8659,4.7838,4.6495,4.6534,4.6898,4.7509,4.8293,4.8923,4.9433,4.9327,4.9305,4.9457,4.9386,4.9317,4.9353,4.9317,4.9139,4.871,4.8532,4.7997,4.705,4.6342,4.5635,0.0,0.0,0.0,0.0,0.0,0.0,0.0,0.0,0.0,0.0,0.0,4.1847,0.0,4.2654,0.0,4.274,4.2688,4.2773,4.2974,4.3042,4.3144,4.345,4.379,4.4164,4.4572,4.4912,4.5456,4.6306,4.6408,4.668,4.7427,4.698,4.6727,4.6952,4.7362,4.7698,4.7972,4.8707,4.9342,4.9645,5.0048,5.0522,5.126,5.1428,5.1529,5.19,5.1967,5.1967,5.1967,5.1967,5.1967,5.1967,5.1967,5.1967,5.1967,5.1967,5.1766,5.1296,5.143,5.1664,5.1285,5.056,5.056,5.0416,5.0198,4.9253,4.8407,4.7615,4.6967,4.6636,4.66,4.5745,4.5205,4.5026,4.4991,4.5427,4.6193,4.6835,4.7686,4.8621,4.9231,4.96,4.9693,4.9801,4.9826,4.9697,4.9805,4.9829,4.977,4.9638,4.9541,4.9541,4.9295,4.923,4.918,4.8855,4.8732,4.8767,4.9504,5.0224,5.0857,5.0487,5.0373,5.0453,5.0056,4.984,4.984,4.984,4.9805,4.9697,4.9555,4.9424,4.9256,4.7891,4.7051,0.0,4.5435,0.0,0.0,0.0,0.0,0.0,0.0,0.0,0.0,4.3492,4.3765,4.3834,4.3717,4.3666,4.3615,4.3511,4.3681,4.4297,4.4365,4.4585,4.52,4.5849,4.6225,4.6225,4.6896,4.7307,4.7444,4.7444,4.7752,4.8377,4.8514,4.8362,4.8158,4.8132,4.8342,4.8928,4.9763,5.0536,5.118,5.1383,5.1688,5.2332,5.2501,5.2772,5.3382,5.3483,5.3517,5.3517,5.3449,5.3483,5.3551,5.3517,5.3517,5.3449,5.3415,5.3179,5.2337,5.2504,5.2939,5.3748,5.3023,5.3023,5.2263,5.1067,5.0841,5.0254,4.9406,4.9261,4.9136,4.9046,4.8856,4.8703,4.8657,4.8657,4.8729,4.8954,4.9098,4.9241,4.9431,4.9575,4.9647,4.9729,5.0376,5.0664,5.0652,5.1263,5.1587,5.1622,5.1538,5.1538,5.1574,5.1428,5.1294,5.1329,0.0,0.0,0.0,5.0858,5.1121,5.135,5.126,5.1343,5.1558,5.161,0.0,5.1587,5.1682,5.1394,5.07,5.0617,0.0,0.0,0.0,0.0,0.0,0.0,0.0,0.0,0.0,0.0,0.0,4.7527,4.6906,4.464,4.5544,4.6552,4.7143,4.7125,4.7106,4.6965,4.6892,4.6797,4.6824,4.6713,4.6725,4.6862,4.6999,4.7102,4.7102,4.7238,4.7581,4.8128,4.8172,4.8504,4.9154,4.9266,4.9266,4.9206,4.9206,4.9419,5.0168,5.0952,5.1731,5.2482,5.252,5.2793,5.3471,5.371,5.3679,5.3815,5.3849,5.3915,5.3849,5.3949,5.3915,5.3883,5.3949,5.3849,5.3915,5.3915,5.3749,5.3315,5.3247,5.3348,5.4689,0.0,5.4327,5.382,0.0,5.3096,5.2795,5.2242,5.0652,4.992,4.9784,4.9784,4.9739,4.9693,4.9693,4.9739,4.982,5.0181,5.0659,5.1102,5.1499,5.1896,5.2257,5.269,5.287,5.2906,5.3303,5.3484,5.3484,5.3435,5.3351,5.3351,5.3239,5.3189,5.3189,5.3534,5.3242,5.2431,5.259,5.2643,5.2643,5.2643,5.2747,5.3089,0.0,0.0,0.0,0.0,0.0,0.0,0.0,0.0,0.0,0.0,0.0,5.0044,4.9269,4.871,4.8615,4.8555,4.8458,4.8409,4.9068,4.8756,4.6956,4.7588,4.8135,4.8382,4.8365,4.826,4.81,4.7993,4.7885,4.7775,4.772,4.7665,4.77,4.801,4.8252,4.8321,4.8596,4.8976,4.9321,4.939,4.9528,4.9873,4.9942,5.0114,5.0459,5.0232,5.0393,5.152,5.1999,5.258,5.3263,5.3434,5.3502,5.3912,5.398,5.398,5.398,5.398,5.398,5.398,5.398,5.398,5.398,5.398,5.398,5.398,5.398,5.398,5.3751,5.3751,5.3751,5.5233,5.5088,5.5088,5.5015,5.4907,5.4907,5.4907,5.4725,0.0,0.0,0.0,5.0353,5.0308,5.0253,5.0315,5.0479,5.0606,5.1401,5.217,5.2951,5.3603,5.4255,5.4907,5.4907,5.4907,5.4907,5.4907,5.4907,5.4907,5.4809,5.4724,5.4724,5.4661,5.4647,5.4756,5.4792,5.4625,5.4384,5.4187,5.408,5.3922,5.3922,5.408,5.4358,5.4439,5.4215,5.3785,5.3749,5.3424,5.2762,5.2678,5.2546,5.2594,5.1934,5.1574,5.1538,5.0785,5.0378,5.0378,5.0174,4.9991,4.9848,5.0175,5.0075,4.9422,4.9387,4.9336,4.9286,4.9132,4.9029,4.8802,4.8644,4.8625,4.8572,4.8537,4.8518,4.8553,4.904,4.9493,4.9562,4.998,5.0397,5.0307,5.0307,5.0467,5.0606,5.0619,5.0989,5.1697,5.1528,5.1638,5.2666,5.3078,5.3425,5.3939,5.4076,5.411,5.4175,5.4175,5.411,5.4175,5.4175,5.4175,5.4239,5.4175,5.4175,5.4175,5.4239,5.4175,5.4175,5.4175,5.411,5.411,5.411,5.4045,5.6464,5.5848,5.5812,5.5486,5.4907,5.4907,5.4907,5.4834,5.3675,5.2806,5.2154,5.2154,5.2108,5.2144,5.2832,5.3157,5.3193,5.399,5.4472,0.0,5.4689,5.4798,5.4907,5.4907,5.4907,5.4907,5.4907,5.4907,5.4907,5.4858,5.4858,5.4858,5.4858,5.5184,5.5726,5.5799,5.6024,5.6521,5.5158,5.4424,5.4424,5.4424,5.4475,5.4625,5.4675,5.4688,5.4677,5.4677,5.4641,5.4532,5.4496,5.4496,5.4496,5.4254,5.417,5.417,5.3914,5.3828,5.3792,5.3677,5.3238,5.2422,5.18,5.1307,5.1031,5.098,5.098,5.0944,5.0857,5.0928,5.084,5.0559,5.0328,5.0309,5.0215,5.0084,5.007,5.0119,5.0244,5.0244,5.0328,5.0432,5.0523,5.0523,5.0837,5.1268,5.1568,5.1929,5.3043,5.335,5.3298,5.3514,5.3942,5.4293,5.4431,5.4431,5.4529,5.4655,5.4655,5.462,5.4745,5.4807,5.4807,5.4869,5.4807,5.4807,5.4807,5.4869,5.4807,5.4807,5.4683,5.4655,5.4655,5.4529,5.4367,5.8528,5.8128,5.7728,5.7315,5.6988,5.6515,5.6079,5.568,5.5268,5.4556,5.3856,5.382,5.3784,5.3856,5.4182,5.4363,5.4363,5.4725,5.5124,5.5486,5.5522,5.574,5.6138,5.6138,5.6138,5.6138,5.6174,5.6138,5.6174,5.6138,5.6138,5.6138,5.6138,5.6319,5.6645,5.708,5.7427,5.7702,5.6515,5.5836,5.5734,5.5734,5.5785,5.5938,5.5938,5.5772,5.5522,5.5486,5.5305,5.4907,5.4907,5.4907,5.4907,5.4822,5.4809,5.4809,5.4675,5.4625,5.4625,5.4475,5.423,5.3821,5.3361,5.3044,5.2941,5.2019,5.1505,5.1402,5.1402,5.1402,5.1298,5.1158,5.1052,5.1052,5.0946,5.0892,5.0892,5.0927,5.0892,5.0962,5.1279,5.1525,5.1525,5.1876,5.2227,5.2684,5.298,5.3497,5.4104,5.4311,5.4435,5.4444,5.4564,5.4772,5.4745,5.4745,5.4807,5.4904,5.4904,5.493,5.4992,5.4992,5.4992,5.4992,5.4992,5.4992,5.4992,5.4992,5.4992,5.4992,5.493,5.4904,5.4904,5.4842,5.4683,5.999,5.9917,5.9333,5.9078,5.9042,5.8422,5.7765,5.7218,5.7122,5.6661,5.6019,5.5281,5.4907,5.4943,5.5051,5.516,5.516,5.5341,5.574,5.621,5.6283,5.6681,5.7406,5.7478,5.755,5.7732,5.7732,5.7732,5.7732,5.7732,5.7732,5.7732,5.7732,5.7732,5.7768,5.8347,5.8673,5.8637,5.7955,5.7454,5.7169,5.7169,5.7149,5.7072,5.7036,5.6798,5.6319,5.6247,5.5993,5.5486,5.5414,5.5414,5.5414,5.5414,5.5414,5.5414,5.5315,5.5266,5.518,5.4936,5.4813,5.4727,5.4481,5.4358,5.4251,5.311,5.2258,5.209,5.2125,5.2074,5.2005,5.1917,5.1847,5.1882,5.1829,5.19,5.1829,5.1794,5.1794,5.1865,5.236,5.2714,5.2821,5.3245,5.3599,5.3828,5.4444,5.479,5.4745,5.5086,5.5284,5.5199,5.5113,5.4992,5.4992,5.4992,5.4992,5.5053,5.5018,5.5053,5.5113,5.5113,5.5113,5.5113,5.5113,5.5113,5.5113,5.5113,5.5113,5.5113,5.5113,5.5053,5.4992,5.5201,5.5104,6.0026,5.999,5.9917,5.988,5.9844,5.9734,5.9625,5.9589,5.9625,5.9625,5.9101,5.6273,5.5015,5.5015,5.5667,5.5993,5.6029,5.6681,5.7043,5.7116,5.708,5.7514,5.8239,5.8275,5.8673,5.9253,5.9289,5.9253,5.9253,5.9289,5.9361,5.9398,5.9398,5.9325,5.9361,5.9434,5.947,5.9506,5.9434,5.8983,5.8296,5.8223,5.7898,5.7224,5.7224,5.7152,5.708,5.708,5.7043,5.7007,5.6935,5.6971,5.6971,5.6971,5.6971,5.6971,5.6935,5.6921,5.6732,5.6154,5.5707,5.5446,5.4907,5.4583,5.4583,5.4367,5.4072,5.3866,5.3761,5.3618,5.3761,5.3584,5.3425,5.3389,5.3318,5.3387,5.3281,5.3387,5.3387,5.3387,5.3441,5.3493,5.3583,5.3725,5.4044,5.4682,5.5228,5.5631,5.5574,5.568,5.5786,5.5671,5.5378,5.5053,5.5053,5.4992,5.5113,5.5199,5.5199,5.5294,5.5413,5.5448,5.5448,5.5413,5.5448,5.5448,5.5448,5.5448,5.5448,5.5448,5.5389,5.5209,5.5122,5.5645,5.5854,6.1665,6.1629,6.1153,6.0677,6.0274,6.0237,6.0237,6.0237,6.0139,6.009,5.998,5.8555,5.791,5.7946,5.8237,5.8383,5.8383,5.871,5.8856,5.8856,5.8856,5.8987,5.9227,5.9263,5.9393,5.9579,5.9615,5.9615,5.9615,5.9615,5.9615,5.9615,5.9615,5.9615,5.9651,6.0086,6.0303,6.0339,6.081,6.0629,5.9868,5.9361,5.8963,5.8673,5.8637,5.8383,5.7949,5.7913,5.7695,5.7261,5.7188,5.7188,5.7188,5.7188,5.7188,5.7188,5.7188,5.7188,5.7123,5.6848,5.6617,5.653,5.6176,5.5995,5.5944,5.5893,5.579,5.5578,5.4756,5.4168,5.4063,5.3975,5.3922,5.3886,5.3869,5.3905,5.3816,5.3816,5.3869,5.3851,5.4296,5.4581,5.4652,5.4972,5.5308,5.5608,5.5907,5.6049,5.5936,5.5901,5.5901,5.5844,5.5671,5.5555,5.5496,5.5531,5.5555,5.5613,5.5613,5.5671,5.5742,5.5764,5.5706,5.5742,5.5812,5.5812,5.5764,5.5764,5.5706,5.5812,5.6235,5.6423,5.6856,5.7208,5.7208,6.3356,6.3062,6.2254,6.1594,6.108,6.108,6.108,6.108,6.0946,6.0896,6.0896,6.0797,6.0747,6.0674,6.0259,5.999,5.999,5.999,5.999,5.999,5.999,6.0049,6.0129,6.0165,6.0259,6.0336,6.0409,6.0372,6.0372,6.0372,6.0372,6.0372,6.0372,6.0336,6.0392,6.0936,6.119,6.1172,6.1752,6.1752,6.1136,6.0557,6.005,5.9651,5.9615,5.9325,5.8746,5.8709,5.8456,5.7913,5.784,5.784,5.784,5.7659,5.7442,5.7224,5.7188,5.7188,5.7188,5.7188,5.7188,5.7188,5.7087,5.7036,5.7036,5.6933,5.6917,5.6721,5.5718,5.5004,5.4828,5.4776,5.4776,5.4776,5.4776,5.4776,5.4759,5.4723,5.4706,5.4741,5.5187,5.5526,5.5598,5.599,5.6257,5.6182,5.6217,5.6253,5.6106,5.6049,5.6049,5.6049,5.6191,5.6205,5.5971,5.5844,5.5901,5.5901,5.5844,5.595,5.6148,5.6219,5.6467,5.6799,5.6609,5.6609,5.6799,5.6657,5.6573,5.668,5.7034,5.7565,5.7895,5.8343,5.8556,6.4751,6.3943,6.3135,6.2768,6.2732,6.2695,6.2695,6.2732,6.2682,6.2645,6.2645,6.2682,6.2645,6.2572,6.109,6.0063,6.0063,6.0149,6.0186,6.0186,6.0149,6.0427,6.112,6.1157,6.1558,6.2126,6.2126,6.2198,6.2271,6.2271,6.2271,6.2271,6.2271,6.2219,6.2112,6.2185,6.2078,6.2132,6.215,6.2041,6.2005,6.1933,6.1208,5.9977,5.9651,5.9687,5.9542,5.9542,5.9506,5.947,5.9398,5.9434,5.9398,5.8746,5.8021,5.7406,5.7261,5.7261,5.7297,5.7297,5.7261,5.7224,5.7224,5.7188,5.7188,5.7138,5.7087,5.6984,5.684,5.6629,5.6525,5.6328,5.6436,5.6472,5.6544,5.6455,5.6385,5.6241,5.6403,5.6223,5.6223,5.6259,5.6276,5.6347,5.6437,5.6383,5.6383,5.6454,5.647,5.6399,5.6435,5.6649,5.697,5.7163,5.6205,5.6347,5.6241,5.6312,5.6617,5.629,5.6715,5.7104,5.7552,5.7836,5.78,5.7907,5.8119,5.8155,5.8048,5.8048,5.8142,5.8497,5.8982,5.9111,5.9324,6.5154,6.4861,6.453,6.442,6.442,6.442,6.4383,6.4383,6.442,6.442,6.442,6.4383,6.4383,6.4383,6.3694,6.2801,6.1849,6.1775,6.1775,6.1775,6.1775,6.1871,6.2077,6.2113,6.25,6.3089,6.3162,6.3418,6.3892,6.3928,6.3928,6.3928,6.3928,6.3928,6.3875,6.3875,6.3821,6.3821,6.3766,6.3766,6.373,6.3766,6.3221,6.2202,6.1497,6.0883,6.0412,6.0375,6.0158,5.9651,5.9615,5.9615,5.9579,5.9325,5.9072,5.8782,5.8746,5.8746,5.8673,5.8239,5.7985,5.7913,5.7478,5.7261,5.7188,5.7188,5.7188,5.7174,5.7174,5.7087,5.7036,5.6917,5.6812,5.6776,5.6812,5.6776,5.6724,5.676,5.6707,5.6653,5.6653,5.6653,5.6689,5.6653,5.6653,5.6653,5.66,5.6832,5.7135,5.7243,5.733,5.7774,5.8096,5.8146,5.7875,5.7712,5.7712,5.7712,5.7783,5.7818,5.8067,5.8081,5.8388,5.8543,5.8721,5.8756,5.8792,5.8792,5.8863,5.9218,5.9313,5.9432,5.9989,6.0072,6.0249,6.586,6.5735,6.5566,6.5455,6.5404,6.5455,6.5404,6.5353,6.5353,6.5353,6.5301,6.5338,6.5338,6.5338,6.5338,6.4751,6.3686,6.3613,6.3613,6.3613,6.3613,6.3562,6.3511,6.346,6.3664,6.4087,6.4161,6.4453,6.4892,6.4965,6.4965,6.4965,6.4965,6.4911,6.4911,6.4911,6.4821,6.4821,6.4767,6.4767,6.4767,6.4767,6.4548,6.4001,6.3293,6.2422,6.1352,6.1316,6.1062,6.0537,6.0429,6.0284,6.005,5.9977,5.9868,5.9651,5.9579,5.9615,5.9542,5.9108,5.8782,5.8782,5.8311,5.7985,5.7985,5.7985,5.7985,5.7985,5.7985,5.7985,5.7934,5.7831,5.751,5.7113,5.6969,5.6881,5.6829,5.6829,5.6865,5.6812,5.6812,5.6884,5.7136,5.7172,5.7352,5.7495,5.746,5.7747,5.8087,5.8176,5.8264,5.8744,5.9087,5.923,5.9302,5.9373,5.8774,5.8702,5.8574,5.8809,5.9095,5.9095,5.9202,5.938,5.9452,5.9487,5.9487,5.9452,5.9737,6.0165,6.0249,6.0356,6.0677,6.095,6.095,6.6888,6.6814,6.6038,6.5854,6.5878,6.5878,6.568,6.569,6.5653,6.5713,6.5683,6.5448,6.5647,6.5448,6.5647,6.5375,6.539,6.5353,6.5191,6.5081,6.5118,6.5118,6.5029,6.4992,6.5066,6.5249,6.5338,6.5322,6.5469,6.5506,6.5469,6.5359,6.5469,6.549,6.5201,6.5311,6.5148,6.5131,6.5113,6.5004,6.4858,6.504,6.5004,6.4858,6.4785,6.4001,6.2579,6.2453,6.2364,6.2149,6.2149,6.1768,6.0972,6.081,6.0484,5.9941,5.9724,5.9687,5.9724,5.9687,5.9615,5.9579,5.9542,5.9361,5.9289,5.9361,5.9361,5.9325,5.9361,5.947,5.9398,5.9345,5.8802,5.7587,5.7463,5.7412,5.7253,5.7093,5.7005,5.7045,5.7117,5.7208,5.7747,5.8052,5.8268,5.8772,5.8952,5.897,5.9149,5.913,5.9221,5.9473,5.9885,6.026,6.0603,6.0875,6.0039,5.9459,5.9259,5.9331,5.9888,6.0067,6.021,6.0389,6.0518,6.0496,6.0518,6.0554,6.0603,6.0961,6.101,6.0974,6.114,6.1211,6.1211,6.77,6.77,6.7442,6.7331,6.7331,6.7331,6.7331,6.728,6.728,6.728,6.7266,6.7229,6.7229,6.7229,6.7229,6.7229,6.7229,6.7192,6.6574,6.5485,6.5338,6.5375,6.5375,6.5338,6.5595,6.6145,6.6696,6.6916,6.6916,6.6916,6.6953,6.6953,6.6916,6.6953,6.6826,6.69,6.6863,6.6809,6.6809,6.6809,6.6809,6.6773,6.6553,6.604,6.5966,6.549,6.4448,6.4181,6.3782,6.3219,6.3182,6.2765,6.2057,6.1822,6.166,6.1442,6.1299,6.1281,6.1172,6.0738,6.0448,6.0339,5.9941,5.9651,5.9615,5.9651,5.9687,5.9651,5.9615,5.9615,5.9615,5.9615,5.9398,5.8927,5.8854,5.8782,5.8658,5.873,5.875,5.875,5.8697,5.8842,5.8986,5.9095,5.9203,5.9492,5.9511,5.9565,6.0034,6.0123,6.03,6.0768,6.1091,6.1148,6.1256,6.1384,6.0947,6.0475,6.0311,6.011,6.0576,6.0827,6.1099,6.1243,6.135,6.1386,6.1386,6.1422,6.1422,6.1386,6.135,6.1408,6.1444,6.1386,6.1328,6.8259,6.8259,6.8259,6.8222,6.8222,6.8259,6.8171,6.8171,6.8208,6.8158,6.807,6.807,6.807,6.807,6.807,6.807,6.807,6.807,6.7451,6.6449,6.6338,6.6338,6.6234,6.6182,6.6402,6.6916,6.743,6.7687,6.7687,6.7687,6.7687,6.765,6.7687,6.765,6.7687,6.7687,6.7687,6.7687,6.765,6.7687,6.7687,6.7687,6.743,6.7026,6.6916,6.6659,6.6219,6.5986,6.533,6.44,6.4091,6.3636,6.2944,6.2728,6.2619,6.2311,6.2222,6.2132,6.2095,6.1606,6.1299,6.1226,6.0774,6.052,6.052,6.0484,6.052,6.0484,6.0557,6.0484,6.052,6.052,6.0484,6.0484,5.9868,5.9651,5.9615,5.9615,5.9579,5.9506,5.9542,5.9724,5.9977,6.005,6.0194,6.0375,6.0377,6.0431,6.0973,6.1063,6.1368,6.1584,6.1676,6.1676,6.1692,6.1728,6.1728,6.1564,6.14,6.1235,6.1286,6.1322,6.143,6.143,6.1501,6.1501,6.1501,6.1501,6.1501,6.1559,6.1615,6.1559,6.1537,6.1501,6.1501,6.8506,6.8506,6.8506,6.8506,6.8506,6.8506,6.8457,6.8358,6.8358,6.8309,6.8171,6.837,6.8319,6.8282,6.8555,6.8578,6.8306,6.8453,6.849,6.8306,6.8269,6.8129,6.7878,6.7736,6.7831,6.7961,6.8035,6.7998,6.8198,6.8162,6.7851,6.8071,6.8108,6.7924,6.8108,6.7871,6.8017,6.8054,6.7981,6.7981,6.7981,6.7944,6.7907,6.7871,6.7797,6.7724,6.765,6.7467,6.679,6.5437,6.4911,6.4473,6.3872,6.3673,6.3345,6.2834,6.2615,6.2563,6.2526,6.2384,6.2185,6.2076,6.1896,6.2005,6.1806,6.1734,6.1734,6.177,6.1788,6.186,6.1824,6.1824,6.1824,6.1788,6.0774,6.005,5.9796,5.9868,6.005,5.9941,5.9832,6.0013,6.081,6.0883,6.1172,6.1571,6.1752,6.1697,6.1733,6.177,6.1914,6.1987,6.1932,6.1932,6.184,6.184,6.184,6.184,6.182,6.1764,6.1708,6.1672,6.1672,6.1672,6.1615,6.1615,6.1615,6.1672,6.1672,6.1672,6.1708,6.1651,6.1651,6.1708,6.1888,6.8828,6.8828,6.8828,6.8828,6.8828,6.8828,6.8782,6.8782,6.8819,6.8809,6.8799,6.9331,6.9506,6.9629,7.0053,7.0301,7.0177,7.0127,7.0189,7.0189,7.0189,6.9628,6.9067,6.8941,6.9184,6.959,6.959,6.9737,6.9737,6.9626,6.9663,6.9737,6.952,6.9539,6.9613,6.9431,6.9449,6.9449,6.9449,6.9412,6.9412,6.9376,6.9449,6.9412,6.8898,6.8605,6.8531,6.7981,6.7283,6.6203,6.5453,6.5124,6.4851,6.4762,6.4563,6.4307,6.4128,6.3855,6.3418,6.3219,6.2964,6.2417,6.2474,6.2328,6.2328,6.2328,6.2275,6.2168,6.2168,6.215,6.2041,6.2078,6.2078,6.1969,6.1643,6.1317,6.1281,6.139,6.139,6.139,6.1317,6.1426,6.1534,6.1643,6.1716,6.1933,6.2078,6.2114,6.2186,6.2295,6.2404,6.215,6.2023,6.2041,6.2041,6.2041,6.195,6.195,6.1987,6.2004,6.1968,6.1895,6.1932,6.1932,6.184,6.1784,6.184,6.1895,6.1895,6.1876,6.1876,6.1876,6.1876,6.1968,6.2402,6.9207,6.9507,6.9507,6.9731,7.0031,6.9985,6.9985,6.9985,6.9892,6.993,7.0004,7.0378,7.0602,7.0677,7.0955,7.1179,7.1168,7.1119,7.1032,7.1032,7.0995,7.0586,6.9999,6.9858,7.0027,7.0397,7.056,7.0434,7.0434,7.0471,7.0471,7.0434,7.0454,7.0401,7.0327,7.0347,7.0293,7.0256,7.0293,7.0293,7.0293,7.0293,7.0256,7.0219,6.976,6.9593,6.9483,6.882,6.7957,6.7153,6.6549,6.6182,6.5852,6.5763,6.5563,6.527,6.5055,6.4799,6.4417,6.4307,6.4035,6.3617,6.3471,6.3418,6.3454,6.3418,6.3364,6.3347,6.3311,6.3257,6.3203,6.3148,6.3148,6.3166,6.3094,6.2785,6.215,6.1969,6.2005,6.2041,6.2041,6.2041,6.2041,6.2041,6.2041,6.2114,6.2404,6.2476,6.2585,6.273,6.2911,6.2802,6.2838,6.2983,6.3056,6.3056,6.2983,6.2875,6.2766,6.2693,6.2367,6.2259,6.2114,6.2059,6.2078,6.2041,6.2041,6.2041,6.1987,6.195,6.2041,6.2223,6.2367,6.2512,6.2911,6.9923,7.0599,7.0599,7.1012,7.1613,7.1599,7.1404,7.147,7.135,7.1303,7.1341,7.1444,7.1565,7.1518,7.1865,7.1696,7.1696,7.1835,7.1723,7.1712,7.1712,7.1529,7.1278,7.0953,7.0976,7.1161,7.0872,7.1035,7.1183,7.1072,7.0909,7.1094,7.1004,7.0893,7.1078,7.0914,7.0766,7.0951,7.0971,7.1008,7.1008,7.1008,7.1008,7.0971,7.0713,7.0454,7.0286,6.9769,6.8999,6.8035,6.7851,6.7316,6.6749,6.6675,6.6329,6.5852,6.5778,6.5653,6.5396,6.5254,6.5144,6.4908,6.4819,6.4858,6.4729,6.4656,6.4619,6.4566,6.4821,6.4585,6.4548,6.4658,6.453,6.4348,6.4494,6.3766,6.2749,6.2259,6.2259,6.2259,6.2295,6.2295,6.2259,6.2259,6.2331,6.2911,6.3092,6.3237,6.3382,6.3563,6.378,6.3925,6.4033,6.4215,6.4215,6.4215,6.4106,6.3997,6.3889,6.3671,6.2983,6.273,6.244,6.2331,6.2476,6.2331,6.2041,6.2041,6.2186,6.2404,6.2657,6.2911,6.3128,6.3273,6.3563,7.1567,7.1718,7.1718,7.1831,7.1982,7.1982,7.202,7.2014,7.1977,7.2046,7.2084,7.2536,7.2799,7.2874,7.3274,7.3596,7.3391,7.3297,7.3351,7.3254,7.3254,7.3205,7.292,7.2472,7.251,7.2795,7.3019,7.2968,7.288,7.2718,7.2815,7.2689,7.2473,7.259,7.2516,7.2314,7.2428,7.2428,7.2445,7.2371,7.2334,7.2334,7.2334,7.2297,7.178,7.1152,7.0581,7.0323,7.0138,6.9679,6.8794,6.8092,6.7819,6.7642,6.7405,6.7221,6.7079,6.6843,6.6402,6.6219,6.5909,6.5469,6.5469,6.5197,6.5197,6.527,6.5181,6.5091,6.5001,6.5148,6.504,6.4894,6.4949,6.4986,6.4949,6.4713,6.4257,6.3984,6.3764,6.378,6.378,6.3852,6.3816,6.3708,6.3744,6.3852,6.3961,6.4106,6.4251,6.4432,6.4685,6.4939,6.4903,6.4975,6.4975,6.5011,6.5011,6.5011,6.4939,6.483,6.4178,6.3744,6.3635,6.3309,6.2983,6.2766,6.2585,6.2693,6.2983,6.3164,6.3345,6.3671,6.3961,6.407,6.4359,7.2583,7.2962,7.2962,7.3189,7.349,7.3446,7.3405,7.3363,7.3279,7.3237,7.3312,7.3727,7.384,7.3878,7.4206,7.435,7.4342,7.4252,7.4206,7.4122,7.4122,7.4076,7.4076,7.3775,7.3644,7.3826,7.3777,7.3765,7.3715,7.3715,7.3553,7.3578,7.3513,7.3401,7.3461,7.341,7.3335,7.3335,7.341,7.341,7.341,7.341,7.341,7.3372,7.2927,7.2444,7.2146,7.1663,7.1552,7.118,7.0289,6.9248,6.8749,6.8572,6.8373,6.8041,6.7915,6.7752,6.7347,6.7237,6.7037,6.6544,6.6507,6.6455,6.6439,6.6439,6.6439,6.6333,6.6333,6.6279,6.6152,6.6189,6.6152,6.6044,6.6044,6.6044,6.5825,6.5168,6.4584,6.4584,6.4475,6.4456,6.4528,6.469,6.4525,6.4307,6.4794,6.4975,6.5156,6.5337,6.5663,6.5808,6.57,6.5663,6.57,6.5736,6.5808,6.5881,6.5917,6.5881,6.5627,6.5337,6.512,6.4468,6.3744,6.3671,6.3563,6.3708,6.3744,6.3852,6.407,6.4504,6.4794,6.4903,6.5337,7.3458,7.4105,7.4105,7.4524,7.5095,7.4977,7.4821,7.4819,7.4691,7.4464,7.4568,7.4606,7.454,7.4611,7.453,7.4568,7.4519,7.4476,7.4432,7.4432,7.4432,7.4432,7.4394,7.4312,7.4184,7.3961,7.3961,7.3923,7.3875,7.3864,7.3864,7.3815,7.3815,7.3765,7.3765,7.3815,7.3715,7.3715,7.3715,7.3715,7.3715,7.3765,7.3715,7.3678,7.3641,7.3566,7.3342,7.3007,7.272,7.2731,7.2059,7.107,7.0189,6.954,6.9267,6.8564,6.8476,6.8277,6.8203,6.8107,6.7945,6.7952,6.7878,6.7826,6.7684,6.7573,6.7537,6.761,6.752,6.752,6.7704,6.7467,6.745,6.7415,6.7488,6.747,6.7103,6.5989,6.5515,6.5314,6.5514,6.5532,6.5367,6.544,6.5073,6.4908,6.5431,6.583,6.6011,6.6156,6.6374,6.6482,6.6301,6.6207,6.6207,6.617,6.6315,6.641,6.6533,6.6591,6.6627,6.6337,6.583,6.5084,6.4541,6.4468,6.4396,6.4432,6.4468,6.4541,6.4903,6.541,6.5663,6.5772,6.6134,7.4866,7.4981,7.4981,7.5095,7.5209,7.5171,7.5133,7.5133,7.5056,7.5056,7.5094,7.5094,7.5017,7.5017,7.4977,7.4819,7.4691,7.4649,7.4563,7.4563,7.4563,7.4563,7.4606,7.4606,7.4476,7.4432,7.4387,7.4342,7.4206,7.416,7.4104,7.3923,7.3875,7.3864,7.3864,7.3815,7.3864,7.3912,7.3912,7.3864,7.3864,7.3864,7.3864,7.3864,7.3912,7.3864,7.3864,7.3703,7.359,7.359,7.3441,7.2869,7.2025,7.1206,7.061,7.005,6.9517,6.917,6.9133,6.8564,6.8181,6.807,6.8181,6.8144,6.8092,6.8018,6.7967,6.7967,6.7952,6.7863,6.7847,6.7794,6.7741,6.7687,6.7687,6.7687,6.756,6.7212,6.6829,6.6555,6.6646,6.659,6.6408,6.6243,6.6151,6.6022,6.6313,6.6567,6.6676,6.6728,6.678,6.6794,6.6772,6.6736,6.6714,6.6641,6.67,6.6664,6.6794,6.6852,6.6889,6.6889,6.6489,6.5778,6.5416,6.5214,6.5214,6.525,6.5322,6.5488,6.5902,6.6351,6.6374,6.6359,6.6446,7.5358,7.5358,7.5358,7.5358,7.5358,7.5283,7.5246,7.5284,7.5209,7.5209,7.5209,7.5209,7.5209,7.5171,7.5171,7.5017,7.4937,7.4897,7.4857,7.4857,7.4857,7.4857,7.4932,7.4895,7.4857,7.4857,7.4857,7.4729,7.4432,7.4387,7.4297,7.4252,7.4206,7.416,7.416,7.4206,7.4197,7.4197,7.4197,7.4197,7.4197,7.4197,7.416,7.416,7.416,7.416,7.416,7.416,7.416,7.4122,7.416,7.3888,7.3429,7.2923,7.2134,7.1268,7.0599,7.0326,7.0289,6.988,6.9806,6.9545,6.9161,6.8888,6.8638,6.8402,6.8232,6.8107,6.8107,6.7967,6.7967,6.7989,6.7952,6.7863,6.7936,6.7973,6.7884,6.7831,6.776,6.7634,6.7451,6.7323,6.7176,6.7176,6.723,6.7266,6.721,6.721,6.7266,6.7154,6.7097,6.704,6.6983,6.7019,6.6961,6.6961,6.6961,6.6961,6.6961,6.6983,6.704,6.7097,6.7024,6.6604,6.6292,6.6038,6.6219,6.6349,6.6365,6.6365,6.6619,6.6801,6.691,6.6983,6.7019,7.5501,7.5501,7.5501,7.5501,7.5501,7.5392,7.5356,7.532,7.5321,7.5284,7.5284,7.5284,7.5284,7.5247,7.5247,7.5209,7.5209,7.5285,7.5475,7.5551,7.5742,7.5742,7.5742,7.5704,7.5818,7.5931,7.5855,7.5281,7.4691,7.4606,7.4563,7.4519,7.4519,7.4633,7.474,7.4809,7.4784,7.4972,7.501,7.4972,7.4821,7.4784,7.4633,7.4519,7.4519,7.4476,7.4432,7.4432,7.4432,7.4476,7.4476,7.4394,7.435,7.435,7.3575,7.2248,7.178,7.1621,7.1499,7.1189,7.0869,7.0685,7.0313,6.9942,6.9743,6.9359,6.8901,6.8703,6.8726,6.8837,6.8911,6.8675,6.8661,6.8698,6.8698,6.8624,6.8668,6.8689,6.871,6.8546,6.8235,6.7981,6.7799,6.7524,6.747,6.747,6.7433,6.7433,6.7433,6.7322,6.7266,6.721,6.7154,6.7154,6.7154,6.7097,6.7097,6.7097,6.7097,6.7154,6.721,6.7266,6.723,6.723,6.7176,6.6994,6.7193,6.721,6.6972,6.6842,6.7137,6.721,6.7154,6.7097,6.7097,7.5501,7.5501,7.5501,7.5501,7.5501,7.5501,7.5501,7.5501,7.5465,7.5465,7.5465,7.5465,7.5465,7.5506,7.5396,7.5284,7.5513,7.6008,7.6313,7.6389,7.6884,7.7151,7.7341,7.7379,7.7151,7.7075,7.7227,7.6387,7.5506,7.5122,7.4926,7.488,7.4989,7.4897,7.5701,7.5745,7.6029,7.6519,7.6677,7.6337,7.5809,7.5695,7.5318,7.4903,7.4638,7.4676,7.4719,7.4681,7.4563,7.4563,7.4519,7.4519,7.4476,7.4476,7.4438,7.3853,7.3221,7.2538,7.2416,7.2042,7.1658,7.1611,7.1227,7.1115,7.0795,7.0709,7.0523,7.0918,7.0611,7.0363,7.0239,7.0221,7.0191,7.0132,6.9999,7.0021,6.999,6.9599,6.9584,6.959,6.9389,6.8693,6.8255,6.7907,6.7687,6.7633,6.7633,6.7743,6.7835,6.7964,6.789,6.7999,6.798,6.798,6.8016,6.7907,6.7834,6.7631,6.7688,6.7688,6.789,6.8055,6.7817,6.7872,6.7835,6.7872,6.7964,6.7816,6.7412,6.7266,6.7322,6.7266,6.721,6.721,6.7412,7.5633,7.5633,7.5633,7.5599,7.557,7.5532,7.5497,7.5501,7.5501,7.5501,7.5501,7.5501,7.5692,7.6074,7.6115,7.6384,7.6768,7.7112,7.7302,7.7303,7.7722,7.7913,7.7836,7.7874,7.7874,7.7951,7.7798,7.7531,7.6694,7.6501,7.6422,7.6344,7.6303,7.6531,7.679,7.6869,7.7059,7.7328,7.7324,7.7173,7.6945,7.6831,7.668,7.6262,7.5807,7.5618,7.5504,7.5049,7.4895,7.4816,7.4778,7.4774,7.4733,7.4729,7.4691,7.4568,7.4136,7.3815,7.365,7.3267,7.2996,7.2754,7.2482,7.194,7.1509,7.1349,7.1349,7.1274,7.1179,7.1205,7.1242,7.1032,7.0983,7.0971,7.1143,7.0968,7.0916,7.0731,7.0531,7.0539,7.056,7.0027,6.9605,6.9479,6.9278,6.8934,6.9007,6.9026,6.9119,6.9247,6.9191,6.9062,6.9062,6.9062,6.9191,6.9191,6.9155,6.9082,6.9082,6.9082,6.9082,6.9064,6.8825,6.8953,6.9265,6.9173,6.8898,6.8367,6.7909,6.7634,6.7488,6.7671,6.7891,6.8147,6.8458,7.5794,7.5794,7.5724,7.566,7.5633,7.5633,7.5599,7.557,7.5834,7.5876,7.5952,7.6144,7.6568,7.6912,7.7067,7.7335,7.7908,7.8213,7.829,7.8366,7.8519,7.871,7.8788,7.8748,7.8748,7.8596,7.8826,7.8636,7.8561,7.8332,7.8141,7.7721,7.7377,7.7682,7.7949,7.7986,7.81,7.8481,7.8481,7.8252,7.7986,7.7948,7.7835,7.7531,7.7112,7.6731,7.6579,7.597,7.5475,7.5398,7.5093,7.4977,7.4975,7.4975,7.4935,7.4857,7.4702,7.4619,7.4493,7.4293,7.4438,7.4161,7.3808,7.3041,7.2454,7.2099,7.2099,7.2332,7.2276,7.2154,7.2042,7.2069,7.2085,7.2074,7.2085,7.1839,7.1665,7.1777,7.1876,7.2011,7.2035,7.1747,7.1435,7.1346,7.102,7.0438,7.0347,7.0367,7.0312,7.0331,7.0147,6.9963,6.9926,6.989,6.9963,7.0073,7.0184,7.0331,7.0331,7.022,7.0037,7.0018,6.9888,7.0109,7.0494,7.0163,6.9667,6.8987,6.8382,6.8676,6.8823,6.864,6.875,6.9044,6.9485,7.5947,7.5985,7.5794,7.5769,7.5769,7.5731,7.5731,7.5967,7.658,7.6848,7.6963,7.7509,7.7781,7.7976,7.7979,7.8058,7.8137,7.8863,7.9167,7.9473,7.9895,8.0009,8.0009,7.9971,8.0124,8.0124,7.9971,8.0009,8.02,7.9819,7.9057,7.7989,7.8218,7.8369,7.8636,7.8903,7.9169,7.955,7.9664,7.9397,7.9017,7.8788,7.856,7.7989,7.776,7.7569,7.7569,7.6846,7.6351,7.6275,7.5704,7.5323,7.5323,7.5171,7.5132,7.5094,7.5094,7.5017,7.4937,7.4733,7.4563,7.4482,7.4325,7.4092,7.374,7.4055,7.4168,7.3898,7.353,7.3672,7.3691,7.3784,7.3362,7.325,7.3147,7.3089,7.3041,7.3142,7.328,7.3504,7.3342,7.2907,7.2782,7.2583,7.2081,7.15,7.1192,7.1175,7.1045,7.0991,7.086,7.0676,7.0639,7.0602,7.0565,7.075,7.1065,7.1121,7.1084,7.0917,7.0713,7.0713,7.0954,7.0988,7.1172,7.0803,7.0671,7.0539,7.0428,7.0323,7.0212,6.9774,6.9811,7.0126,7.0696,7.7515,7.7553,7.7455,7.7085,7.6523,7.6523,7.6869,7.7303,7.7648,7.7763,7.784,7.8113,7.8535,7.8846,7.8999,7.9233,7.9692,7.9999,8.0116,8.0157,8.0425,8.0542,8.0543,8.0506,8.0468,8.0506,8.0506,8.0506,8.043,8.0506,8.0239,7.9591,7.9248,7.9553,7.982,7.9782,8.0049,8.0201,8.0392,8.0125,8.0049,7.9858,7.9744,7.9477,7.879,7.8713,7.8561,7.7836,7.7455,7.7074,7.6465,7.616,7.5894,7.5552,7.5361,7.5285,7.5285,7.5247,7.5095,7.4937,7.4774,7.4649,7.4606,7.4606,7.4563,7.4519,7.4519,7.4438,7.4432,7.4425,7.4305,7.426,7.4139,7.4214,7.4206,7.4151,7.4104,7.4056,7.3971,7.3848,7.3789,7.3579,7.3579,7.3604,7.3117,7.2526,7.2257,7.2002,7.1907,7.1833,7.1775,7.1738,7.1701,7.1812,7.1812,7.1907,7.2002,7.1965,7.1891,7.1833,7.1738,7.2022,7.2243,7.2129,7.2087,7.2155,7.2206,7.2458,7.2146,7.1398,7.0946,7.0618,7.084,7.1263,7.1759,7.8477,7.8477,7.8477,7.8139,7.7539,7.7501,7.7815,7.8359,7.8628,7.8903,7.9095,7.9133,7.933,7.9791,7.991,8.0102,8.0562,8.0716,8.072,8.0685,8.0611,8.0652,8.0616,8.0616,8.0616,8.058,8.0505,8.0505,8.058,8.0543,8.0391,8.0391,8.0506,8.043,8.043,8.0506,8.0506,8.0506,8.0506,8.0506,8.0468,8.0468,8.0468,8.0353,7.9856,7.9665,7.9436,7.8826,7.8406,7.8026,7.7531,7.7036,7.6693,7.6351,7.5932,7.5741,7.5627,7.5551,7.5323,7.5133,7.5017,7.4897,7.4857,7.4774,7.4691,7.4649,7.4691,7.4649,7.4606,7.4563,7.4525,7.4476,7.4432,7.4387,7.4387,7.4342,7.4297,7.4252,7.416,7.4113,7.4066,7.4066,7.4019,7.4019,7.3665,7.3242,7.3066,7.2927,7.2927,7.2927,7.2949,7.2949,7.2986,7.3045,7.3178,7.2971,7.2852,7.2889,7.2889,7.2986,7.306,7.3199,7.3252,7.3038,7.3141,7.349,7.3466,7.3218,7.262,7.1947,7.1784,7.1821,7.2132,7.2555,7.2704,7.8554,7.8477,7.8554,7.8554,7.8554,7.8477,7.8554,7.8831,7.9446,8.0138,8.0677,8.069,8.0657,8.074,8.063,8.0711,8.075,8.0826,8.0792,8.0792,8.0792,8.0792,8.0758,8.0758,8.0723,8.0758,8.0803,8.0844,8.0767,8.0962,8.0849,8.0849,8.1002,8.0735,8.0544,8.0506,8.0506,8.0506,8.0506,8.0506,8.0506,8.0506,8.0506,8.0468,8.0353,8.0238,8.0047,7.9627,7.9283,7.9055,7.8406,7.7986,7.7871,7.7719,7.726,7.6726,7.6649,7.627,7.551,7.5323,7.5323,7.5171,7.5056,7.5017,7.5017,7.4977,7.4937,7.4895,7.4774,7.4733,7.4649,7.4606,7.4606,7.4563,7.4563,7.4563,7.4519,7.4476,7.4387,7.4297,7.4387,7.4476,7.4387,7.4297,7.4104,7.3838,7.3777,7.3765,7.3715,7.3665,7.3564,7.3564,7.3564,7.3564,7.3564,7.3665,7.3641,7.3765,7.3715,7.3615,7.3578,7.3564,7.3615,7.3765,7.3765,7.3765,7.3765,7.3777,7.323,7.2932,7.3181,7.3293,7.3566,7.3604,7.3516,8.0246,8.0208,8.0208,8.0208,8.0131,7.9592,7.9669,8.0208,8.0554,8.0823,8.1054,8.1023,8.1023,8.0991,8.0991,8.0997,8.0997,8.0997,8.0997,8.0893,8.0932,8.0826,8.0865,8.098,8.0907,8.0984,8.1179,8.1601,8.1639,8.1875,8.2258,8.2335,8.1955,8.1574,8.0849,8.0506,8.0506,8.0506,8.0506,8.0506,8.0506,8.0544,8.0544,8.0544,8.0506,8.0506,8.0506,8.0086,8.0009,7.9895,7.9207,7.8863,7.8748,7.8557,7.7946,7.7602,7.7564,7.7487,7.7146,7.6996,7.6388,7.5817,7.5285,7.5285,7.5133,7.5133,7.5133,7.5094,7.5017,7.4937,7.4897,7.4897,7.4857,7.4812,7.4771,7.4729,7.4686,7.4649,7.4563,7.4476,7.4519,7.4519,7.4476,7.4476,7.4297,7.416,7.4066,7.3912,7.3864,7.3815,7.3715,7.3715,7.3715,7.3765,7.3815,7.3875,7.3923,7.3875,7.3864,7.3765,7.3765,7.3912,7.3864,7.3912,7.3912,7.3961,7.4009,7.4056,7.4056,7.4019,7.4009,7.3875,7.3826,7.374,7.3728,8.1093,8.1093,8.1093,8.1093,8.1016,8.0477,8.0631,8.1054,8.1093,8.1093,8.1093,8.1093,8.1093,8.1093,8.1093,8.1093,8.1093,8.1093,8.1093,8.0997,8.1305,8.142,8.1464,8.1584,8.2002,8.193,8.2203,8.2587,8.2587,8.3051,8.317,8.3096,8.3288,8.2564,8.1802,8.1574,8.1499,8.1538,8.1576,8.1347,8.1156,8.0964,8.0812,8.0621,8.0506,8.0506,8.0506,8.0506,8.0506,8.0315,8.0047,7.9665,7.9474,7.9245,7.871,7.8557,7.8137,7.8061,7.7908,7.787,7.7186,7.654,7.5969,7.5551,7.5323,7.5209,7.5209,7.5209,7.5285,7.5209,7.5171,7.5094,7.5132,7.5051,7.4975,7.4935,7.4857,7.4816,7.4774,7.4691,7.4649,7.4649,7.4606,7.4606,7.4519,7.4387,7.4297,7.416,7.4056,7.4009,7.4009,7.3971,7.4019,7.4066,7.4113,7.4113,7.4113,7.4066,7.4019,7.3971,7.4066,7.416,7.4066,7.4056,7.4113,7.4206,7.4206,7.4206,7.4252,7.4252,7.4206,7.4066,7.3961,7.3961,7.3923,8.1093,8.1093,8.1093,8.1093,8.1093,8.1016,8.1054,8.1093,8.1093,8.1093,8.1093,8.1093,8.1093,8.1093,8.1093,8.117,8.1246,8.1246,8.14,8.1554,8.2061,8.2215,8.2522,8.2945,8.2984,8.333,8.3528,8.3538,8.3538,8.3888,8.3815,8.3627,8.3857,8.3592,8.3367,8.3217,8.2989,8.2721,8.253,8.2301,8.1957,8.1843,8.1575,8.1194,8.0888,8.0773,8.0697,8.0582,8.0544,8.0468,8.043,8.043,8.043,8.0468,7.9971,7.936,7.8596,7.8443,7.8404,7.8481,7.8213,7.7757,7.726,7.6422,7.5928,7.5853,7.5931,7.5856,7.5894,7.5589,7.5361,7.5361,7.5361,7.5247,7.5171,7.5133,7.5017,7.4977,7.4937,7.4897,7.4895,7.4895,7.4895,7.4854,7.4884,7.4691,7.4563,7.4519,7.4387,7.4342,7.4342,7.4342,7.4387,7.4432,7.4432,7.438,7.4342,7.4252,7.4342,7.4342,7.4394,7.4432,7.4342,7.4297,7.4432,7.4476,7.4387,7.4387,7.4432,7.4432,7.438,7.4297,7.416,7.416,7.416,8.1093,8.1093,8.1093,8.1093,8.1093,8.1093,8.1093,8.1093,8.1093,8.1093,8.1093,8.1093,8.1093,8.1093,8.1093,8.1477,8.1747,8.2054,8.2439,8.2747,8.3016,8.317,8.3362,8.3555,8.3632,8.3862,8.4138,8.4522,8.4637,8.4873,8.5147,8.5335,8.4998,8.504,8.5043,8.5049,8.4284,8.3673,8.3445,8.314,8.2912,8.2797,8.2454,8.2149,8.1613,8.1499,8.1347,8.0812,8.0659,8.0544,8.0506,8.0506,8.0506,8.0506,8.0277,8.02,7.9895,7.9818,7.978,7.9742,7.9474,7.9016,7.8634,7.8137,7.7528,7.7109,7.7071,7.6844,7.6731,7.6578,7.6312,7.6198,7.6008,7.5817,7.5704,7.5666,7.5589,7.5589,7.5551,7.555,7.551,7.551,7.5472,7.5319,7.5352,7.5049,7.4932,7.4964,7.4767,7.4762,7.4563,7.4563,7.4601,7.4644,7.4638,7.4551,7.4513,7.4476,7.4752,7.4903,7.4821,7.4821,7.4595,7.467,7.5016,7.4865,7.4476,7.4633,7.5135,7.4633,7.4551,7.4469,7.4432,7.4463,7.438,8.1093,8.1093,8.1093,8.1093,8.1093,8.1093,8.1093,8.1093,8.1093,8.1093,8.1093,8.1093,8.1093,8.117,8.1477,8.1862,8.2247,8.267,8.3054,8.3362,8.3978,8.4093,8.4132,8.4401,8.467,8.4824,8.5016,8.5363,8.5478,8.5709,8.6055,8.5945,8.6026,8.6026,8.5915,8.5727,8.5347,8.4775,8.4356,8.4054,8.3865,8.3711,8.356,8.3179,8.2568,8.2453,8.2263,8.1498,8.1116,8.0888,8.0812,8.0506,8.0506,8.0506,8.0506,8.043,8.0391,8.0353,8.0315,8.0391,8.0162,7.9933,7.9742,7.9474,7.8863,7.8292,7.7986,7.7719,7.7795,7.7757,7.7415,7.7111,7.6769,7.6426,7.6388,7.635,7.6313,7.6313,7.6275,7.6275,7.6313,7.6351,7.6236,7.6045,7.6121,7.6272,7.6348,7.6346,7.5807,7.5232,7.4922,7.4729,7.4767,7.4804,7.4875,7.5135,7.5367,7.5594,7.5977,7.6015,7.5631,7.5669,7.5863,7.5863,7.5863,7.5669,7.5556,7.5707,7.5939,7.5556,7.5399,7.5707,7.5475,7.4859,7.4784,8.1093,8.1093,8.1093,8.1093,8.1093,8.1093,8.1093,8.1093,8.1093,8.1093,8.1093,8.1093,8.117,8.1439,8.1862,8.2401,8.2939,8.3478,8.3862,8.3824,8.467,8.4978,8.5209,8.5632,8.5555,8.5901,8.6017,8.5863,8.6017,8.6094,8.6094,8.6094,8.6094,8.606,8.606,8.606,8.5834,8.5681,8.5458,8.5238,8.4854,8.4624,8.4356,8.3745,8.3441,8.3364,8.31,8.2604,8.1955,8.1651,8.1346,8.0964,8.0735,8.0506,8.0506,8.0506,8.0506,8.0506,8.0506,8.0506,8.0506,8.043,8.0468,8.0277,7.9704,7.9245,7.8901,7.8787,7.8863,7.8596,7.8253,7.8062,7.7797,7.7453,7.7262,7.7187,7.7187,7.715,7.715,7.7113,7.7151,7.7151,7.7151,7.6999,7.6884,7.734,7.7417,7.7339,7.7034,7.6154,7.5848,7.5425,7.5577,7.5763,7.5952,7.6255,7.652,7.6823,7.7089,7.7013,7.6592,7.6861,7.732,7.6975,7.6592,7.6937,7.6975,7.6899,7.6743,7.6781,7.6781,7.7126,7.6705,7.582,7.5594,8.1093,8.1093,8.1093,8.1093,8.1093,8.1093,8.1093,8.1093,8.1093,8.1093,8.1093,8.117,8.1439,8.1939,8.2324,8.2978,8.4093,8.4362,8.4939,8.517,8.567,8.5632,8.5747,8.594,8.6094,8.6094,8.6094,8.6094,8.6094,8.6094,8.6094,8.6094,8.6094,8.6094,8.6094,8.6094,8.6094,8.6094,8.5988,8.5881,8.5616,8.5616,8.5462,8.5008,8.4742,8.432,8.3977,8.3479,8.3096,8.283,8.2719,8.2224,8.1576,8.0888,8.0544,8.0506,8.0582,8.0582,8.0506,8.0506,8.0506,8.0506,8.0506,8.0506,8.0315,8.0047,7.9856,7.9818,7.9704,7.936,7.913,7.8978,7.8825,7.8443,7.8137,7.8101,7.8101,7.8101,7.8026,7.8026,7.8026,7.8027,7.8065,7.7988,7.7837,7.7722,7.7684,7.7645,7.7797,7.7377,7.7415,7.7148,7.6916,7.7027,7.7141,7.7214,7.748,7.7552,7.7703,7.7628,7.751,7.7779,7.8049,7.759,7.732,7.7741,7.7855,7.7434,7.7396,7.7741,7.7817,7.8007,7.7855,7.7084,7.6895,8.1124,8.1093,8.1093,8.1093,8.1093,8.1093,8.1093,8.1093,8.1093,8.1285,8.1593,8.167,8.19,8.2593,8.3054,8.3747,8.4939,8.5286,8.5555,8.594,8.6094,8.6055,8.6094,8.6094,8.6094,8.6094,8.6094,8.6094,8.6094,8.6094,8.6094,8.6094,8.6094,8.6094,8.6094,8.6094,8.6094,8.6094,8.6094,8.606,8.6065,8.6031,8.5992,8.5727,8.5539,8.5232,8.4928,8.4429,8.4049,8.3703,8.3441,8.3024,8.2453,8.2071,8.1537,8.1232,8.1079,8.0888,8.0697,8.0621,8.0621,8.0659,8.0544,8.0544,8.0506,8.0238,8.0238,8.02,8.02,7.9933,7.9895,7.978,7.9742,7.9513,7.9436,7.9398,7.9398,7.9361,7.9361,7.9361,7.9361,7.9361,7.9399,7.9399,7.9247,7.9247,7.8981,7.8866,7.879,7.8599,7.8675,7.8637,7.8254,7.8098,7.8098,7.821,7.84,7.8397,7.8394,7.8701,7.8853,7.8777,7.8701,7.8508,7.847,7.8777,7.8739,7.8394,7.8546,7.9046,7.8929,7.8732,7.8504,7.8348,7.831,8.1184,8.1124,8.1124,8.1124,8.1093,8.1124,8.1093,8.1131,8.1246,8.1631,8.2285,8.2554,8.2593,8.3208,8.4055,8.467,8.5209,8.567,8.6017,8.6094,8.6094,8.6094,8.6094,8.6094,8.6094,8.6094,8.6094,8.6094,8.6094,8.6094,8.6094,8.6094,8.6094,8.6094,8.6094,8.6094,8.6094,8.6094,8.6094,8.6094,8.6094,8.6094,8.606,8.6094,8.6094,8.606,8.5723,8.5382,8.4886,8.4506,8.4087,8.3671,8.3328,8.3024,8.2604,8.2223,8.1995,8.1689,8.1308,8.1193,8.1116,8.0926,8.0735,8.0659,8.0697,8.0621,8.0621,8.0582,8.0582,8.0506,8.0468,8.043,8.0391,8.0391,8.0353,8.0353,8.0353,8.0353,8.0353,8.0391,8.0353,8.0353,8.0391,8.043,8.0468,8.0506,8.0506,8.0506,8.0353,7.9858,7.9667,7.9477,7.9209,7.9094,7.9093,7.9091,7.9165,7.9356,7.9429,7.9888,8.0119,7.9698,7.9543,7.9812,7.9888,7.9698,7.9774,7.9581,7.9888,7.9967,7.9733,7.9426,7.9461,7.9385,7.9604,8.1263,8.1234,8.1234,8.1244,8.1184,8.1184,8.1154,8.1208,8.1785,8.217,8.2631,8.3824,8.4401,8.4401,8.4632,8.5132,8.5709,8.6055,8.6055,8.6094,8.6094,8.6094,8.6094,8.6094,8.6094,8.6094,8.6094,8.6094,8.6094,8.6094,8.6094,8.6094,8.6094,8.6094,8.6094,8.6094,8.6094,8.6094,8.6094,8.6094,8.6094,8.6094,8.6094,8.6094,8.6094,8.6094,8.5983,8.5906,8.5829,8.5527,8.4959,8.4544,8.4205,8.3862,8.3441,8.3175,8.2947,8.2756,8.2413,8.2298,8.2185,8.2149,8.1957,8.1575,8.1422,8.104,8.1002,8.0887,8.0773,8.0659,8.0582,8.0506,8.0468,8.0468,8.0468,8.0468,8.0468,8.0468,8.0468,8.0468,8.0468,8.043,8.0468,8.0468,8.0468,8.0506,8.0506,8.0506,8.0506,8.0506,8.0506,8.0239,7.9934,8.0087,8.0125,7.9856,7.9893,8.0121,8.0235,8.0275,8.0275,8.0195,8.0195,8.0275,8.0235,8.0043,8.0235,8.0275,8.0197,8.0159,8.0157,8.004,8.0154,8.0113,8.0072]},{"header":{"parameterUnit":"m.s-1","parameterCategory":1,"la1":31.0,"la2":29.5877,"lo1":-88.7671,"lo2":-86.6584,"dy":0.0162,"dx":0.0185,"nx":115,"ny":88,"refTime":"2023-04-14T18:00:00:Z","depth":0,"parameterNumber":3,"parameterNumberName":"V-component_of_WINDS"},"data":[0.0,0.0,0.0,0.0,0.0,0.0,0.0,0.0,0.0,0.0,0.0,0.0,0.0,0.0,0.0,0.0,0.0,0.0,0.0,0.0,0.0,0.0,0.0,0.0,0.0,0.0,0.0,0.0,0.0,0.0,0.0,0.0,0.0,0.0,0.0,0.0,0.0,0.0,0.0,0.0,0.0,0.0,0.0,0.0,0.0,0.0,0.0,0.0,0.0,0.0,0.0,0.0,0.0,0.0,0.0,0.0,0.0,0.0,0.0,0.0,0.0,0.0,0.0,0.0,0.0,0.0,0.0,0.0,0.0,0.0,0.0,0.0,0.0,0.0,0.0,0.0,0.0,0.0,0.0,0.0,0.0,0.0,0.0,0.0,0.0,0.0,0.0,0.0,0.0,0.0,0.0,0.0,0.0,0.0,0.0,0.0,0.0,0.0,0.0,0.0,0.0,0.0,0.0,0.0,0.0,0.0,0.0,0.0,0.0,0.0,0.0,0.0,0.0,0.0,0.0,0.0,0.0,0.0,0.0,0.0,0.0,0.0,0.0,0.0,0.0,0.0,0.0,0.0,0.0,0.0,0.0,0.0,0.0,0.0,0.0,0.0,0.0,0.0,0.0,0.0,0.0,0.0,0.0,0.0,0.0,0.0,0.0,0.0,0.0,0.0,0.0,0.0,0.0,0.0,0.0,0.0,0.0,0.0,0.0,0.0,0.0,0.0,0.0,0.0,0.0,0.0,0.0,0.0,0.0,0.0,0.0,0.0,0.0,0.0,0.0,0.0,0.0,0.0,0.0,0.0,0.0,0.0,0.0,0.0,0.0,0.0,0.0,0.0,0.0,0.0,0.0,0.0,0.0,0.0,0.0,0.0,0.0,0.0,0.0,0.0,0.0,0.0,0.0,0.0,0.0,0.0,0.0,0.0,0.0,0.0,0.0,0.0,0.0,0.0,0.0,0.0,0.0,0.0,0.0,0.0,0.0,0.0,0.0,0.0,0.0,0.0,0.0,0.0,0.0,0.0,0.0,0.0,0.0,0.0,0.0,0.0,0.0,0.0,0.0,0.0,0.0,0.0,0.0,0.0,0.0,0.0,0.0,0.0,0.0,0.0,0.0,0.0,0.0,0.0,0.0,0.0,0.0,0.0,0.0,0.0,0.0,0.0,0.0,0.0,0.0,0.0,0.0,0.0,0.0,0.0,0.0,0.0,0.0,0.0,0.0,0.0,0.0,0.0,0.0,0.0,0.0,0.0,0.0,0.0,0.0,0.0,0.0,0.0,0.0,0.0,0.0,0.0,0.0,0.0,0.0,0.0,0.0,0.0,0.0,0.0,0.0,0.0,0.0,0.0,0.0,0.0,0.0,0.0,0.0,0.0,0.0,0.0,0.0,0.0,0.0,0.0,0.0,0.0,0.0,0.0,0.0,0.0,0.0,0.0,0.0,0.0,0.0,0.0,0.0,0.0,0.0,0.0,0.0,0.0,0.0,0.0,0.0,0.0,0.0,0.0,0.0,0.0,0.0,0.0,0.0,0.0,0.0,0.0,0.0,0.0,0.0,0.0,0.0,0.0,0.0,0.0,0.0,0.0,0.0,0.0,0.0,0.0,0.0,0.0,0.0,0.0,0.0,0.0,0.0,0.0,0.0,0.0,0.0,0.0,0.0,0.0,0.0,0.0,0.0,0.0,0.0,0.0,0.0,0.0,0.0,0.0,0.0,0.0,0.0,0.0,0.0,0.0,0.0,0.0,0.0,0.0,0.0,0.0,0.0,0.0,0.0,0.0,0.0,0.0,0.0,0.0,0.0,0.0,0.0,0.0,0.0,0.0,0.0,0.0,0.0,0.0,0.0,0.0,0.0,0.0,0.0,0.0,0.0,0.0,0.0,0.0,0.0,0.0,0.0,0.0,0.0,0.0,0.0,0.0,0.0,0.0,0.0,0.0,0.0,0.0,0.0,0.0,0.0,0.0,0.0,0.0,0.0,0.0,0.0,0.0,0.0,0.0,0.0,0.0,0.0,0.0,0.0,0.0,0.0,0.0,0.0,0.0,0.0,0.0,0.0,0.0,0.0,0.0,0.0,0.0,0.0,0.0,0.0,0.0,0.0,0.0,0.0,0.0,0.0,0.0,0.0,0.0,0.0,0.0,0.0,0.0,0.0,0.0,0.0,0.0,0.0,0.0,0.0,0.0,0.0,0.0,0.0,0.0,0.0,0.0,0.0,0.0,0.0,0.0,0.0,0.0,0.0,0.0,0.0,0.0,0.0,0.0,0.0,0.0,0.0,0.0,0.0,0.0,0.0,0.0,0.0,0.0,0.0,0.0,0.0,0.0,0.0,0.0,0.0,0.0,0.0,0.0,0.0,0.0,0.0,0.0,0.0,0.0,0.0,0.0,0.0,0.0,0.0,0.0,0.0,0.0,0.0,0.0,0.0,0.0,0.0,0.0,0.0,0.0,0.0,0.0,0.0,0.0,0.0,0.0,0.0,0.0,0.0,0.0,0.0,0.0,0.0,0.0,0.0,0.0,0.0,0.0,0.0,0.0,0.0,0.0,0.0,0.0,0.0,0.0,0.0,0.0,0.0,0.0,0.0,0.0,0.0,0.0,0.0,0.0,0.0,0.0,0.0,0.0,0.0,0.0,0.0,0.0,0.0,0.0,0.0,0.0,0.0,0.0,0.0,0.0,0.0,0.0,0.0,0.0,0.0,0.0,0.0,0.0,0.0,0.0,0.0,0.0,0.0,0.0,0.0,0.0,0.0,0.0,0.0,0.0,0.0,0.0,0.0,0.0,0.0,0.0,0.0,0.0,0.0,0.0,0.0,0.0,0.0,0.0,0.0,0.0,0.0,0.0,0.0,0.0,0.0,0.0,0.0,0.0,0.0,0.0,0.0,0.0,0.0,0.0,0.0,0.0,0.0,0.0,0.0,0.0,0.0,0.0,0.0,0.0,0.0,0.0,0.0,0.0,0.0,0.0,0.0,0.0,0.0,0.0,0.0,0.0,0.0,0.0,0.0,0.0,0.0,0.0,0.0,0.0,0.0,0.0,0.0,0.0,0.0,0.0,0.0,0.0,0.0,0.0,0.0,0.0,0.0,0.0,0.0,0.0,0.0,0.0,0.0,0.0,0.0,0.0,0.0,0.0,0.0,0.0,0.0,0.0,0.0,0.0,0.0,0.0,0.0,0.0,0.0,0.0,0.0,0.0,0.0,0.0,0.0,0.0,0.0,0.0,0.0,0.0,0.0,0.0,0.0,0.0,0.0,0.0,0.0,0.0,0.0,0.0,0.0,0.0,0.0,0.0,0.0,0.0,0.0,0.0,0.0,0.0,0.0,0.0,0.0,0.0,0.0,0.0,0.0,0.0,0.0,0.0,0.0,0.0,0.0,0.0,0.0,0.0,0.0,0.0,0.0,0.0,0.0,0.0,0.0,0.0,0.0,0.0,0.0,0.0,0.0,0.0,0.0,0.0,0.0,0.0,0.0,0.0,0.0,0.0,0.0,0.0,0.0,0.0,0.0,0.0,0.0,0.0,0.0,0.0,0.0,0.0,0.0,0.0,0.0,0.0,0.0,0.0,0.0,0.0,0.0,0.0,0.0,0.0,0.0,0.0,0.0,0.0,0.0,0.0,0.0,0.0,0.0,0.0,0.0,0.0,0.0,0.0,0.0,0.0,0.0,0.0,0.0,0.0,0.0,0.0,0.0,0.0,0.0,0.0,0.0,0.0,0.0,0.0,0.0,0.0,0.0,0.0,0.0,0.0,0.0,0.0,0.0,0.0,0.0,0.0,0.0,0.0,0.0,0.0,0.0,0.0,0.0,0.0,0.0,0.0,0.0,0.0,0.0,0.0,0.0,0.0,0.0,0.0,0.0,0.0,0.0,0.0,0.0,0.0,0.0,0.0,0.0,0.0,0.0,0.0,0.0,0.0,0.0,0.0,0.0,0.0,0.0,0.0,0.0,0.0,0.0,0.0,0.0,0.0,0.0,0.0,0.0,0.0,0.0,0.0,0.0,0.0,0.0,0.0,0.0,0.0,0.0,0.0,0.0,0.0,0.0,0.0,0.0,0.0,0.0,0.0,0.0,0.0,0.0,0.0,0.0,0.0,0.0,0.0,0.0,0.0,0.0,0.0,0.0,0.0,0.0,0.0,0.0,0.0,0.0,0.0,0.0,0.0,0.0,0.0,0.0,0.0,0.0,0.0,0.0,0.0,0.0,0.0,0.0,0.0,0.0,0.0,0.0,0.0,0.0,0.0,0.0,0.0,0.0,0.0,-2.5312,0.0,0.0,0.0,0.0,0.0,0.0,0.0,0.0,0.0,0.0,0.0,0.0,0.0,0.0,0.0,0.0,0.0,0.0,0.0,0.0,0.0,0.0,0.0,0.0,0.0,0.0,0.0,0.0,0.0,0.0,0.0,0.0,0.0,0.0,0.0,0.0,0.0,0.0,0.0,0.0,0.0,0.0,0.0,0.0,0.0,0.0,0.0,0.0,0.0,0.0,0.0,0.0,0.0,0.0,0.0,0.0,0.0,0.0,0.0,0.0,0.0,0.0,0.0,0.0,0.0,0.0,0.0,0.0,0.0,0.0,0.0,0.0,0.0,0.0,0.0,0.0,0.0,0.0,0.0,0.0,0.0,0.0,0.0,0.0,0.0,0.0,0.0,0.0,0.0,0.0,0.0,0.0,0.0,0.0,0.0,0.0,0.0,0.0,0.0,0.0,0.0,0.0,0.0,0.0,0.0,0.0,0.0,0.0,0.0,0.0,-2.5962,-2.6016,-2.5907,-2.5741,-2.546,0.0,0.0,0.0,0.0,0.0,0.0,0.0,0.0,0.0,0.0,0.0,0.0,0.0,0.0,0.0,0.0,0.0,0.0,0.0,0.0,0.0,0.0,0.0,0.0,0.0,0.0,0.0,0.0,0.0,0.0,0.0,0.0,0.0,0.0,0.0,0.0,0.0,0.0,0.0,0.0,0.0,0.0,0.0,0.0,0.0,0.0,0.0,0.0,0.0,0.0,0.0,0.0,0.0,0.0,0.0,0.0,0.0,0.0,0.0,0.0,0.0,0.0,0.0,0.0,0.0,0.0,0.0,0.0,0.0,0.0,0.0,0.0,0.0,0.0,0.0,0.0,0.0,0.0,0.0,0.0,0.0,0.0,0.0,0.0,0.0,0.0,0.0,0.0,0.0,0.0,0.0,0.0,0.0,0.0,0.0,0.0,0.0,0.0,0.0,0.0,0.0,0.0,0.0,0.0,0.0,0.0,0.0,0.0,0.0,0.0,0.0,0.0,-2.5605,-2.552,-2.5439,0.0,0.0,0.0,0.0,0.0,0.0,0.0,0.0,0.0,0.0,0.0,0.0,0.0,0.0,0.0,0.0,0.0,0.0,0.0,0.0,0.0,0.0,0.0,0.0,0.0,0.0,0.0,0.0,0.0,0.0,0.0,0.0,0.0,0.0,0.0,0.0,0.0,0.0,0.0,0.0,0.0,0.0,0.0,0.0,0.0,0.0,0.0,0.0,0.0,0.0,0.0,0.0,0.0,0.0,0.0,0.0,0.0,0.0,0.0,0.0,0.0,0.0,0.0,0.0,0.0,0.0,0.0,0.0,0.0,0.0,0.0,0.0,0.0,0.0,0.0,0.0,0.0,0.0,0.0,0.0,0.0,0.0,0.0,0.0,0.0,0.0,0.0,0.0,0.0,0.0,0.0,0.0,0.0,0.0,0.0,0.0,0.0,0.0,0.0,0.0,0.0,0.0,0.0,0.0,0.0,0.0,0.0,0.0,0.0,0.0,-2.5791,-2.5271,-2.5649,0.0,-2.5271,0.0,0.0,0.0,0.0,0.0,0.0,0.0,0.0,0.0,0.0,0.0,0.0,0.0,0.0,0.0,0.0,0.0,0.0,0.0,0.0,0.0,0.0,0.0,0.0,0.0,0.0,0.0,0.0,0.0,0.0,0.0,0.0,0.0,0.0,0.0,0.0,0.0,0.0,0.0,0.0,0.0,0.0,0.0,0.0,0.0,0.0,0.0,0.0,0.0,0.0,0.0,0.0,0.0,0.0,0.0,0.0,0.0,0.0,0.0,0.0,0.0,0.0,0.0,0.0,0.0,0.0,0.0,0.0,0.0,0.0,0.0,0.0,0.0,0.0,0.0,0.0,0.0,0.0,0.0,0.0,0.0,0.0,0.0,0.0,0.0,0.0,0.0,0.0,0.0,0.0,0.0,0.0,0.0,0.0,0.0,0.0,0.0,0.0,0.0,0.0,0.0,0.0,0.0,0.0,0.0,0.0,0.0,0.0,0.0,0.0,-2.5121,-2.4821,-2.4834,-2.4776,0.0,0.0,0.0,0.0,0.0,0.0,0.0,0.0,0.0,0.0,0.0,0.0,0.0,0.0,0.0,0.0,0.0,0.0,0.0,0.0,0.0,0.0,0.0,0.0,0.0,0.0,0.0,0.0,0.0,0.0,0.0,0.0,0.0,0.0,0.0,0.0,0.0,0.0,0.0,0.0,0.0,0.0,0.0,0.0,0.0,0.0,0.0,0.0,0.0,0.0,0.0,0.0,0.0,0.0,0.0,0.0,0.0,0.0,0.0,0.0,0.0,0.0,0.0,0.0,0.0,0.0,0.0,0.0,0.0,0.0,0.0,0.0,0.0,0.0,0.0,0.0,0.0,0.0,0.0,0.0,0.0,0.0,0.0,0.0,0.0,0.0,0.0,0.0,0.0,0.0,0.0,0.0,0.0,0.0,0.0,0.0,0.0,0.0,0.0,0.0,0.0,0.0,0.0,0.0,0.0,0.0,0.0,0.0,0.0,0.0,-2.4811,-2.466,-2.4458,-2.4151,-2.4015,-2.4189,0.0,0.0,0.0,0.0,0.0,0.0,0.0,0.0,0.0,0.0,0.0,0.0,0.0,0.0,0.0,0.0,0.0,0.0,0.0,0.0,0.0,0.0,0.0,0.0,0.0,0.0,0.0,0.0,0.0,0.0,0.0,0.0,0.0,0.0,0.0,0.0,0.0,0.0,0.0,0.0,0.0,0.0,0.0,0.0,0.0,0.0,0.0,0.0,0.0,0.0,0.0,0.0,0.0,0.0,0.0,0.0,0.0,0.0,0.0,0.0,0.0,0.0,0.0,0.0,0.0,0.0,0.0,0.0,0.0,0.0,0.0,0.0,0.0,0.0,0.0,0.0,0.0,0.0,0.0,0.0,0.0,0.0,0.0,0.0,0.0,0.0,0.0,0.0,0.0,0.0,0.0,0.0,0.0,0.0,0.0,0.0,0.0,0.0,0.0,0.0,0.0,0.0,0.0,0.0,0.0,0.0,0.0,0.0,-2.4363,-2.4596,-2.4641,-2.4433,-2.391,-2.3688,0.0,0.0,0.0,0.0,0.0,0.0,0.0,0.0,0.0,0.0,0.0,0.0,0.0,0.0,0.0,0.0,0.0,0.0,0.0,0.0,0.0,0.0,0.0,0.0,0.0,0.0,0.0,0.0,0.0,0.0,0.0,0.0,0.0,0.0,0.0,0.0,0.0,0.0,0.0,0.0,0.0,0.0,0.0,0.0,0.0,0.0,0.0,0.0,0.0,0.0,0.0,0.0,0.0,0.0,0.0,0.0,0.0,0.0,0.0,0.0,0.0,0.0,0.0,0.0,0.0,0.0,0.0,0.0,0.0,0.0,0.0,0.0,0.0,0.0,0.0,0.0,0.0,0.0,0.0,0.0,0.0,0.0,0.0,0.0,0.0,0.0,0.0,0.0,0.0,0.0,0.0,0.0,0.0,0.0,0.0,0.0,0.0,0.0,0.0,0.0,0.0,0.0,0.0,0.0,0.0,0.0,0.0,0.0,0.0,-2.4067,-2.3953,-2.3815,-2.3609,-2.3311,-2.321,0.0,0.0,0.0,0.0,0.0,0.0,0.0,0.0,0.0,0.0,0.0,0.0,0.0,0.0,0.0,0.0,0.0,0.0,0.0,0.0,0.0,0.0,0.0,0.0,0.0,0.0,0.0,0.0,0.0,0.0,0.0,0.0,0.0,0.0,0.0,0.0,0.0,0.0,0.0,0.0,0.0,0.0,0.0,0.0,0.0,0.0,0.0,0.0,0.0,0.0,0.0,0.0,0.0,0.0,0.0,0.0,0.0,0.0,0.0,0.0,0.0,0.0,0.0,0.0,0.0,0.0,0.0,0.0,0.0,0.0,0.0,0.0,0.0,0.0,0.0,0.0,0.0,0.0,0.0,0.0,0.0,0.0,0.0,0.0,0.0,0.0,0.0,0.0,0.0,0.0,0.0,0.0,0.0,0.0,0.0,0.0,0.0,0.0,0.0,0.0,0.0,0.0,0.0,0.0,0.0,0.0,0.0,0.0,0.0,-2.3535,0.0,-2.309,-2.2969,-2.2848,-2.2848,0.0,0.0,0.0,0.0,0.0,0.0,0.0,0.0,0.0,0.0,0.0,0.0,0.0,0.0,0.0,0.0,0.0,0.0,0.0,0.0,0.0,0.0,0.0,0.0,0.0,0.0,0.0,0.0,0.0,0.0,0.0,0.0,0.0,0.0,0.0,0.0,0.0,0.0,0.0,0.0,0.0,0.0,0.0,0.0,0.0,0.0,0.0,0.0,0.0,0.0,0.0,0.0,0.0,0.0,0.0,0.0,0.0,0.0,0.0,0.0,0.0,0.0,0.0,0.0,0.0,0.0,0.0,0.0,0.0,0.0,0.0,0.0,0.0,0.0,0.0,0.0,0.0,0.0,0.0,0.0,0.0,0.0,0.0,0.0,0.0,0.0,0.0,0.0,0.0,0.0,0.0,0.0,0.0,0.0,0.0,0.0,0.0,0.0,0.0,0.0,0.0,0.0,0.0,0.0,0.0,0.0,0.0,0.0,-2.2969,-2.2751,-2.2751,-2.2751,-2.269,-2.269,-2.269,0.0,0.0,0.0,0.0,0.0,0.0,0.0,0.0,0.0,0.0,0.0,0.0,0.0,0.0,0.0,0.0,0.0,0.0,0.0,0.0,0.0,0.0,0.0,0.0,0.0,0.0,0.0,0.0,0.0,0.0,0.0,0.0,0.0,0.0,0.0,0.0,0.0,0.0,0.0,0.0,0.0,0.0,0.0,0.0,0.0,0.0,0.0,0.0,0.0,0.0,0.0,0.0,0.0,0.0,0.0,0.0,0.0,0.0,0.0,0.0,0.0,0.0,0.0,0.0,0.0,0.0,0.0,0.0,0.0,0.0,0.0,0.0,0.0,0.0,0.0,0.0,0.0,0.0,0.0,0.0,0.0,0.0,0.0,0.0,0.0,0.0,0.0,0.0,0.0,0.0,0.0,0.0,0.0,0.0,0.0,0.0,0.0,0.0,0.0,0.0,0.0,0.0,0.0,0.0,0.0,0.0,0.0,0.0,0.0,-2.269,-2.269,-2.2629,-2.2482,-2.2482,-2.2445,0.0,0.0,0.0,0.0,0.0,0.0,0.0,0.0,0.0,0.0,0.0,0.0,0.0,0.0,0.0,0.0,0.0,0.0,0.0,0.0,0.0,0.0,0.0,0.0,0.0,0.0,0.0,0.0,0.0,0.0,0.0,0.0,0.0,0.0,0.0,0.0,0.0,0.0,0.0,0.0,0.0,0.0,0.0,0.0,0.0,0.0,0.0,0.0,0.0,0.0,0.0,0.0,0.0,0.0,0.0,0.0,0.0,0.0,0.0,0.0,0.0,0.0,0.0,0.0,0.0,0.0,0.0,0.0,0.0,0.0,0.0,0.0,0.0,0.0,0.0,0.0,0.0,0.0,0.0,0.0,0.0,0.0,0.0,0.0,0.0,0.0,0.0,0.0,0.0,0.0,0.0,0.0,0.0,0.0,0.0,0.0,0.0,0.0,0.0,0.0,0.0,0.0,0.0,0.0,0.0,0.0,0.0,0.0,0.0,-2.2674,-2.2799,-2.2736,-2.2587,-2.2611,-2.2515,-2.2197,0.0,0.0,0.0,0.0,0.0,0.0,0.0,0.0,0.0,0.0,0.0,0.0,0.0,0.0,0.0,0.0,0.0,0.0,0.0,0.0,0.0,0.0,0.0,0.0,0.0,0.0,0.0,0.0,0.0,0.0,0.0,0.0,0.0,0.0,0.0,0.0,0.0,0.0,0.0,0.0,0.0,0.0,0.0,0.0,0.0,0.0,0.0,0.0,0.0,0.0,0.0,0.0,0.0,0.0,0.0,0.0,0.0,0.0,0.0,0.0,0.0,0.0,0.0,0.0,0.0,0.0,0.0,0.0,0.0,0.0,0.0,0.0,0.0,0.0,0.0,0.0,0.0,0.0,0.0,0.0,0.0,0.0,0.0,0.0,0.0,0.0,0.0,0.0,0.0,0.0,0.0,0.0,0.0,0.0,0.0,0.0,0.0,0.0,0.0,0.0,0.0,0.0,0.0,0.0,0.0,0.0,0.0,0.0,-2.2764,-2.2982,-2.3087,-2.3015,-2.3015,-2.2799,0.0,0.0,0.0,0.0,0.0,0.0,0.0,0.0,0.0,0.0,0.0,0.0,0.0,0.0,0.0,0.0,0.0,0.0,0.0,0.0,0.0,0.0,0.0,0.0,0.0,0.0,0.0,0.0,0.0,0.0,0.0,0.0,0.0,0.0,0.0,0.0,0.0,0.0,0.0,0.0,0.0,0.0,0.0,0.0,0.0,0.0,0.0,0.0,0.0,0.0,0.0,0.0,0.0,0.0,0.0,0.0,0.0,0.0,0.0,0.0,0.0,0.0,0.0,0.0,0.0,0.0,0.0,0.0,0.0,0.0,0.0,0.0,0.0,0.0,0.0,0.0,0.0,0.0,0.0,0.0,0.0,0.0,0.0,0.0,0.0,0.0,0.0,0.0,0.0,0.0,0.0,0.0,0.0,0.0,0.0,0.0,0.0,0.0,0.0,0.0,0.0,0.0,0.0,0.0,0.0,0.0,0.0,0.0,0.0,-2.3956,-2.4003,-2.3722,-2.3171,-2.3148,-2.3077,0.0,0.0,0.0,0.0,0.0,0.0,0.0,0.0,0.0,0.0,0.0,0.0,0.0,0.0,0.0,0.0,0.0,0.0,0.0,0.0,0.0,0.0,0.0,0.0,0.0,0.0,0.0,0.0,0.0,0.0,0.0,0.0,0.0,0.0,0.0,0.0,0.0,0.0,0.0,0.0,0.0,0.0,0.0,0.0,0.0,0.0,0.0,0.0,0.0,0.0,0.0,0.0,0.0,0.0,0.0,0.0,0.0,0.0,0.0,0.0,0.0,0.0,0.0,0.0,0.0,0.0,0.0,0.0,0.0,0.0,0.0,0.0,0.0,0.0,0.0,0.0,0.0,0.0,0.0,0.0,0.0,0.0,0.0,0.0,0.0,0.0,0.0,0.0,0.0,0.0,0.0,0.0,0.0,0.0,0.0,0.0,0.0,0.0,0.0,0.0,0.0,0.0,0.0,0.0,0.0,0.0,0.0,0.0,-2.363,-2.4299,-2.4443,-2.43,-2.3804,-2.3652,-2.3443,0.0,0.0,0.0,0.0,0.0,0.0,0.0,0.0,0.0,0.0,0.0,0.0,0.0,0.0,0.0,0.0,0.0,0.0,0.0,0.0,0.0,0.0,0.0,0.0,0.0,0.0,0.0,0.0,0.0,0.0,0.0,0.0,0.0,0.0,0.0,0.0,0.0,0.0,0.0,0.0,0.0,0.0,0.0,0.0,0.0,0.0,0.0,0.0,0.0,0.0,0.0,0.0,0.0,0.0,0.0,0.0,0.0,0.0,0.0,0.0,0.0,0.0,0.0,0.0,0.0,0.0,0.0,0.0,0.0,0.0,0.0,0.0,0.0,0.0,0.0,0.0,0.0,0.0,0.0,0.0,0.0,0.0,0.0,0.0,0.0,0.0,0.0,0.0,0.0,0.0,0.0,0.0,0.0,0.0,0.0,0.0,0.0,0.0,0.0,0.0,0.0,0.0,0.0,0.0,0.0,0.0,0.0,0.0,-2.415,-2.4192,-2.4514,-2.4689,-2.4667,-2.4251,-2.3738,0.0,0.0,0.0,0.0,0.0,0.0,0.0,0.0,0.0,0.0,0.0,0.0,0.0,0.0,0.0,0.0,0.0,0.0,0.0,0.0,0.0,0.0,0.0,0.0,0.0,0.0,0.0,0.0,0.0,0.0,0.0,0.0,0.0,0.0,0.0,0.0,0.0,0.0,0.0,0.0,0.0,0.0,0.0,0.0,0.0,0.0,0.0,0.0,0.0,0.0,0.0,0.0,0.0,0.0,0.0,0.0,0.0,0.0,0.0,0.0,0.0,0.0,0.0,0.0,0.0,0.0,0.0,0.0,0.0,0.0,0.0,0.0,0.0,0.0,0.0,0.0,0.0,0.0,0.0,0.0,0.0,0.0,0.0,0.0,0.0,0.0,0.0,0.0,0.0,0.0,0.0,0.0,0.0,0.0,0.0,0.0,0.0,0.0,0.0,0.0,0.0,0.0,0.0,0.0,0.0,0.0,0.0,0.0,-2.4249,-2.4603,-2.4864,-2.4849,-2.4545,-2.4249,-2.3935,0.0,0.0,0.0,0.0,0.0,0.0,0.0,0.0,0.0,0.0,0.0,0.0,0.0,0.0,0.0,0.0,0.0,0.0,0.0,0.0,0.0,0.0,0.0,0.0,0.0,0.0,0.0,0.0,0.0,0.0,0.0,0.0,0.0,0.0,0.0,0.0,0.0,0.0,0.0,0.0,0.0,0.0,0.0,0.0,0.0,0.0,0.0,0.0,-2.3378,0.0,0.0,0.0,0.0,0.0,0.0,0.0,0.0,0.0,0.0,0.0,0.0,0.0,0.0,0.0,0.0,0.0,0.0,0.0,0.0,0.0,0.0,0.0,0.0,0.0,0.0,0.0,0.0,0.0,0.0,0.0,0.0,0.0,0.0,0.0,0.0,0.0,0.0,0.0,0.0,0.0,0.0,0.0,0.0,0.0,0.0,0.0,0.0,0.0,0.0,0.0,0.0,0.0,0.0,0.0,0.0,0.0,0.0,0.0,-2.448,-2.4522,-2.4816,-2.4911,-2.4661,-2.4309,-2.3967,0.0,0.0,0.0,0.0,0.0,0.0,0.0,0.0,0.0,0.0,0.0,0.0,0.0,0.0,0.0,0.0,0.0,0.0,0.0,0.0,0.0,0.0,0.0,0.0,0.0,0.0,0.0,0.0,0.0,0.0,0.0,0.0,0.0,0.0,0.0,0.0,0.0,0.0,0.0,0.0,0.0,0.0,0.0,0.0,0.0,0.0,0.0,0.0,0.0,0.0,0.0,0.0,0.0,0.0,0.0,0.0,0.0,0.0,0.0,0.0,0.0,0.0,0.0,0.0,0.0,0.0,0.0,0.0,0.0,0.0,0.0,0.0,0.0,0.0,0.0,0.0,0.0,0.0,0.0,0.0,0.0,0.0,0.0,0.0,0.0,0.0,0.0,0.0,0.0,0.0,0.0,0.0,0.0,0.0,0.0,0.0,0.0,0.0,0.0,0.0,0.0,0.0,0.0,0.0,0.0,0.0,0.0,-2.4377,-2.4645,-2.4516,-2.4764,-2.485,-2.4871,-2.443,-2.3987,-2.3517,0.0,0.0,0.0,0.0,0.0,0.0,0.0,0.0,0.0,0.0,0.0,0.0,0.0,0.0,0.0,0.0,0.0,0.0,0.0,0.0,0.0,0.0,0.0,0.0,0.0,0.0,0.0,0.0,0.0,0.0,0.0,0.0,0.0,0.0,0.0,0.0,0.0,0.0,-2.2542,-2.2838,0.0,0.0,0.0,0.0,0.0,0.0,0.0,0.0,-2.4246,0.0,0.0,0.0,0.0,0.0,0.0,0.0,0.0,0.0,0.0,0.0,0.0,0.0,0.0,0.0,0.0,0.0,0.0,0.0,0.0,0.0,0.0,0.0,0.0,0.0,0.0,0.0,0.0,0.0,0.0,0.0,0.0,0.0,0.0,0.0,0.0,0.0,0.0,0.0,0.0,0.0,0.0,0.0,0.0,0.0,0.0,0.0,0.0,0.0,0.0,0.0,0.0,0.0,0.0,0.0,0.0,-2.4039,-2.4457,-2.4741,-2.4729,-2.485,-2.4786,-2.4529,-2.4467,-2.4262,-2.3804,0.0,0.0,0.0,0.0,0.0,0.0,0.0,0.0,0.0,0.0,0.0,0.0,0.0,0.0,0.0,0.0,0.0,0.0,0.0,0.0,0.0,0.0,0.0,0.0,0.0,0.0,0.0,0.0,0.0,0.0,0.0,0.0,0.0,0.0,0.0,0.0,0.0,0.0,0.0,-2.3369,-2.3833,0.0,0.0,0.0,0.0,0.0,0.0,0.0,0.0,-2.459,0.0,0.0,0.0,0.0,0.0,0.0,0.0,0.0,0.0,0.0,0.0,0.0,0.0,0.0,0.0,0.0,0.0,0.0,0.0,0.0,0.0,0.0,0.0,0.0,0.0,0.0,0.0,0.0,0.0,0.0,0.0,0.0,0.0,0.0,0.0,0.0,0.0,0.0,0.0,0.0,0.0,0.0,0.0,0.0,0.0,0.0,0.0,0.0,0.0,0.0,0.0,0.0,0.0,0.0,0.0,-2.4175,-2.4327,-2.4443,-2.4448,-2.464,-2.4615,-2.455,-2.455,-2.4343,0.0,0.0,0.0,0.0,0.0,0.0,0.0,0.0,0.0,0.0,0.0,0.0,0.0,0.0,0.0,0.0,0.0,0.0,0.0,0.0,0.0,0.0,0.0,0.0,0.0,0.0,0.0,0.0,0.0,0.0,0.0,0.0,0.0,0.0,0.0,0.0,0.0,0.0,0.0,0.0,-2.3934,-2.4226,-2.4728,0.0,0.0,0.0,0.0,0.0,0.0,-2.4931,-2.5113,0.0,0.0,0.0,0.0,0.0,0.0,0.0,0.0,0.0,0.0,0.0,0.0,0.0,0.0,0.0,0.0,0.0,0.0,0.0,0.0,0.0,0.0,0.0,0.0,0.0,0.0,0.0,0.0,0.0,0.0,0.0,0.0,0.0,0.0,0.0,0.0,0.0,0.0,0.0,0.0,0.0,0.0,0.0,0.0,0.0,0.0,0.0,0.0,0.0,0.0,0.0,0.0,0.0,0.0,0.0,-2.4292,-2.4089,-2.4083,-2.4325,-2.4449,-2.455,-2.455,-2.455,-2.4299,0.0,0.0,0.0,0.0,0.0,0.0,0.0,0.0,0.0,0.0,0.0,0.0,0.0,0.0,0.0,0.0,0.0,0.0,0.0,0.0,0.0,0.0,0.0,0.0,0.0,0.0,0.0,0.0,0.0,0.0,0.0,0.0,0.0,0.0,0.0,0.0,0.0,0.0,0.0,0.0,0.0,-2.4612,-2.5135,-2.5085,0.0,0.0,0.0,0.0,-2.5148,-2.5341,0.0,0.0,0.0,0.0,0.0,0.0,0.0,0.0,0.0,0.0,0.0,0.0,0.0,0.0,0.0,0.0,0.0,0.0,0.0,0.0,0.0,0.0,0.0,0.0,0.0,0.0,0.0,0.0,0.0,0.0,0.0,0.0,0.0,0.0,0.0,0.0,0.0,0.0,0.0,0.0,0.0,0.0,0.0,0.0,0.0,0.0,0.0,0.0,0.0,0.0,0.0,0.0,0.0,0.0,0.0,0.0,-2.4312,-2.4046,-2.4172,-2.4745,-2.4594,-2.455,-2.455,-2.455,-2.4444,0.0,0.0,0.0,0.0,0.0,0.0,0.0,0.0,0.0,0.0,0.0,0.0,0.0,0.0,0.0,0.0,0.0,0.0,0.0,0.0,0.0,0.0,0.0,0.0,0.0,0.0,0.0,0.0,0.0,0.0,0.0,0.0,0.0,0.0,0.0,0.0,0.0,0.0,0.0,0.0,0.0,-2.5064,-2.5439,-2.5611,-2.5738,0.0,0.0,-2.5192,-2.5037,-2.5082,0.0,0.0,0.0,0.0,0.0,0.0,0.0,0.0,0.0,0.0,0.0,0.0,0.0,0.0,0.0,0.0,0.0,0.0,0.0,0.0,0.0,0.0,0.0,0.0,0.0,0.0,0.0,0.0,0.0,0.0,0.0,0.0,0.0,0.0,0.0,0.0,0.0,0.0,0.0,0.0,0.0,0.0,0.0,0.0,0.0,0.0,0.0,0.0,0.0,0.0,0.0,0.0,0.0,0.0,0.0,-2.3285,-2.4025,-2.4023,-2.422,-2.4659,-2.4529,-2.455,-2.455,-2.4378,-2.4292,0.0,0.0,0.0,0.0,0.0,0.0,0.0,0.0,0.0,0.0,0.0,0.0,0.0,0.0,0.0,0.0,0.0,0.0,0.0,0.0,0.0,0.0,0.0,0.0,0.0,0.0,0.0,0.0,0.0,0.0,0.0,0.0,0.0,0.0,0.0,0.0,0.0,0.0,0.0,0.0,0.0,0.0,-2.553,-2.5455,0.0,0.0,0.0,-2.5316,-2.5076,0.0,0.0,0.0,0.0,0.0,0.0,0.0,0.0,0.0,0.0,0.0,0.0,0.0,0.0,0.0,0.0,0.0,0.0,0.0,0.0,0.0,0.0,0.0,0.0,0.0,0.0,0.0,0.0,0.0,0.0,0.0,0.0,0.0,0.0,0.0,0.0,0.0,0.0,0.0,0.0,0.0,0.0,0.0,0.0,0.0,0.0,0.0,0.0,0.0,0.0,0.0,0.0,0.0,0.0,0.0,0.0,0.0,-2.3646,-2.3908,-2.426,-2.4522,-2.4543,-2.4543,-2.4543,-2.4268,0.0,0.0,0.0,0.0,0.0,0.0,0.0,0.0,0.0,0.0,0.0,0.0,0.0,0.0,0.0,0.0,0.0,0.0,0.0,0.0,0.0,0.0,0.0,0.0,0.0,0.0,0.0,-2.1192,0.0,0.0,0.0,0.0,0.0,0.0,0.0,0.0,0.0,0.0,0.0,0.0,0.0,0.0,-2.531,-2.562,-2.5442,-2.5192,0.0,0.0,-2.5491,-2.5174,-2.5419,-2.5615,0.0,0.0,0.0,0.0,0.0,0.0,0.0,0.0,0.0,0.0,0.0,0.0,0.0,0.0,0.0,0.0,0.0,0.0,0.0,0.0,0.0,0.0,0.0,0.0,0.0,0.0,0.0,0.0,0.0,0.0,0.0,0.0,0.0,0.0,0.0,0.0,0.0,0.0,0.0,0.0,0.0,0.0,0.0,0.0,0.0,0.0,0.0,0.0,0.0,0.0,0.0,0.0,0.0,0.0,0.0,-2.3163,-2.3612,-2.4089,-2.4444,-2.4464,-2.4464,-2.4464,-2.4062,-2.3774,0.0,0.0,0.0,0.0,0.0,0.0,0.0,0.0,0.0,0.0,0.0,0.0,0.0,0.0,0.0,0.0,0.0,0.0,0.0,0.0,0.0,0.0,0.0,0.0,0.0,0.0,0.0,0.0,0.0,0.0,0.0,0.0,0.0,0.0,0.0,0.0,0.0,0.0,0.0,0.0,0.0,-2.5904,-2.5605,-2.5678,-2.5714,0.0,0.0,-2.5744,-2.5295,-2.5551,-2.5721,-2.5275,0.0,0.0,0.0,0.0,0.0,0.0,0.0,0.0,0.0,0.0,0.0,0.0,0.0,0.0,0.0,0.0,0.0,0.0,0.0,0.0,0.0,0.0,0.0,0.0,0.0,0.0,0.0,0.0,0.0,0.0,0.0,0.0,0.0,0.0,0.0,0.0,0.0,0.0,0.0,0.0,0.0,0.0,0.0,0.0,0.0,0.0,0.0,0.0,0.0,0.0,0.0,0.0,0.0,-2.2798,-2.3185,-2.3887,-2.4344,-2.4504,-2.4766,-2.4786,-2.4525,-2.4167,-2.3859,0.0,0.0,0.0,0.0,0.0,0.0,0.0,0.0,0.0,0.0,0.0,0.0,0.0,0.0,0.0,0.0,0.0,0.0,0.0,0.0,0.0,0.0,0.0,0.0,0.0,0.0,0.0,0.0,-2.1344,-2.1768,-2.2501,0.0,0.0,0.0,0.0,0.0,0.0,0.0,0.0,0.0,0.0,-2.5355,-2.5474,-2.5503,0.0,0.0,-2.5445,-2.5317,-2.5062,-2.5189,-2.5146,-2.4807,-2.4786,0.0,0.0,0.0,0.0,0.0,0.0,0.0,0.0,0.0,0.0,0.0,0.0,0.0,0.0,0.0,0.0,0.0,0.0,0.0,0.0,0.0,0.0,0.0,0.0,0.0,0.0,0.0,0.0,0.0,0.0,0.0,0.0,0.0,0.0,0.0,0.0,0.0,0.0,0.0,0.0,0.0,0.0,0.0,0.0,0.0,0.0,0.0,0.0,0.0,0.0,0.0,0.0,-2.2935,-2.3313,-2.4087,-2.4496,-2.4726,-2.4914,-2.4934,-2.4655,-2.4315,-2.4038,0.0,0.0,0.0,0.0,0.0,0.0,0.0,0.0,0.0,0.0,0.0,0.0,0.0,0.0,0.0,0.0,0.0,0.0,0.0,0.0,0.0,0.0,0.0,0.0,0.0,0.0,0.0,0.0,-2.1532,-2.1977,-2.2453,0.0,0.0,0.0,0.0,0.0,0.0,0.0,0.0,0.0,0.0,-2.5016,-2.5316,-2.5211,-2.5126,-2.5041,-2.5274,-2.5314,-2.5016,-2.51,-2.5096,-2.4943,0.0,0.0,0.0,0.0,0.0,0.0,0.0,0.0,0.0,0.0,0.0,0.0,0.0,0.0,0.0,0.0,0.0,0.0,0.0,0.0,0.0,0.0,0.0,0.0,0.0,0.0,0.0,0.0,0.0,0.0,-1.9416,0.0,0.0,0.0,0.0,0.0,0.0,0.0,0.0,0.0,0.0,0.0,0.0,0.0,0.0,0.0,0.0,0.0,0.0,0.0,0.0,0.0,0.0,-2.3037,-2.3493,-2.4055,-2.4609,-2.5094,-2.5059,-2.5134,-2.5094,-2.4629,-2.4219,-2.3789,0.0,0.0,0.0,0.0,0.0,0.0,0.0,0.0,0.0,0.0,0.0,0.0,0.0,0.0,0.0,0.0,0.0,0.0,0.0,0.0,0.0,0.0,0.0,0.0,0.0,0.0,-2.1052,-2.1881,-2.2551,0.0,0.0,0.0,0.0,0.0,0.0,0.0,0.0,0.0,0.0,-2.5359,-2.5105,-2.4956,-2.4871,-2.4828,-2.4571,-2.5275,-2.5689,-2.5275,-2.5564,-2.5854,0.0,0.0,0.0,0.0,0.0,0.0,0.0,0.0,0.0,0.0,0.0,0.0,0.0,0.0,0.0,0.0,0.0,0.0,0.0,0.0,0.0,0.0,0.0,0.0,0.0,0.0,0.0,-1.8618,-1.8858,0.0,0.0,0.0,0.0,0.0,0.0,0.0,0.0,0.0,0.0,0.0,-2.1742,-2.1981,0.0,0.0,0.0,0.0,0.0,0.0,0.0,0.0,0.0,0.0,0.0,0.0,-2.2957,-2.3644,-2.4141,-2.4629,-2.5059,-2.5352,-2.5371,-2.5078,-2.4922,-2.4555,-2.3944,0.0,0.0,0.0,0.0,0.0,0.0,0.0,0.0,0.0,0.0,0.0,0.0,0.0,0.0,0.0,0.0,0.0,0.0,0.0,0.0,0.0,0.0,0.0,0.0,0.0,-2.0974,0.0,0.0,0.0,0.0,0.0,0.0,0.0,0.0,0.0,0.0,0.0,-2.4935,-2.5084,-2.5144,-2.5159,-2.5072,-2.5409,-2.5508,0.0,0.0,0.0,0.0,0.0,0.0,0.0,0.0,0.0,0.0,0.0,0.0,0.0,0.0,-2.5951,-2.5748,-2.5685,-2.5685,-2.5685,0.0,0.0,0.0,0.0,0.0,0.0,0.0,0.0,0.0,0.0,0.0,0.0,0.0,0.0,0.0,0.0,-1.8768,0.0,0.0,0.0,0.0,0.0,0.0,0.0,0.0,-2.1058,-2.1486,-2.1858,-2.1993,-2.2071,0.0,-2.1916,-2.2084,0.0,0.0,0.0,0.0,0.0,0.0,0.0,0.0,-2.3301,-2.3984,-2.4341,-2.4675,-2.5197,-2.5295,-2.5295,-2.5006,-2.4775,-2.4449,-2.3994,-2.3298,-2.3016,0.0,0.0,0.0,0.0,0.0,0.0,0.0,0.0,0.0,0.0,0.0,0.0,0.0,0.0,0.0,0.0,0.0,0.0,0.0,0.0,0.0,0.0,0.0,-2.1589,0.0,0.0,0.0,0.0,0.0,0.0,0.0,0.0,0.0,-2.4871,-2.4871,-2.4849,-2.5016,-2.5114,-2.5295,-2.544,0.0,0.0,0.0,0.0,0.0,0.0,0.0,-2.6455,-2.6765,-2.6703,-2.6641,-2.6806,-2.6827,-2.6931,-2.722,0.0,0.0,-2.6475,-2.6372,-2.6351,-2.6351,-2.6351,-2.6372,-2.6351,-2.6351,-2.6413,0.0,0.0,0.0,0.0,0.0,0.0,0.0,0.0,-1.9159,-1.9128,0.0,-1.9029,0.0,0.0,0.0,0.0,0.0,0.0,0.0,0.0,-2.1561,-2.1768,-2.1806,-2.2202,-2.2391,-2.2353,-2.1995,-2.21,-2.2422,-2.2109,0.0,0.0,0.0,0.0,0.0,0.0,-2.4004,-2.4341,-2.4581,-2.491,-2.5216,-2.5039,-2.4922,-2.4805,-2.4253,-2.3855,-2.3836,-2.3275,-2.2777,-2.2648,-2.2611,0.0,0.0,0.0,0.0,0.0,0.0,0.0,0.0,0.0,0.0,0.0,0.0,0.0,0.0,0.0,0.0,0.0,0.0,0.0,0.0,-2.204,0.0,0.0,0.0,0.0,0.0,0.0,0.0,0.0,0.0,0.0,-2.4526,-2.4592,-2.4736,-2.5192,0.0,0.0,0.0,0.0,-2.5958,-2.5978,-2.633,-2.6786,-2.7241,-2.7303,-2.7593,-2.8442,0.0,0.0,-2.8524,-2.8587,-2.8566,-2.8628,-2.8587,-2.8359,-2.7531,-2.7345,-2.7303,-2.7303,-2.7303,-2.7303,-2.7303,-2.7303,-2.7427,-1.9034,0.0,0.0,0.0,0.0,-1.8801,-1.8836,-1.8922,-1.9075,-1.9175,-1.9323,-1.9507,0.0,0.0,0.0,0.0,0.0,0.0,-2.0686,-2.1133,-2.1365,-2.1713,-2.2168,-2.2594,-2.2871,-2.3055,-2.2943,-2.3054,-2.3331,-2.3214,-2.2942,-2.2446,0.0,0.0,0.0,0.0,-2.3591,-2.4278,-2.4355,-2.4621,-2.502,-2.4941,-2.4843,-2.4627,-2.4024,-2.3673,-2.3458,-2.3001,-2.2733,-2.2703,-2.2528,0.0,0.0,0.0,0.0,0.0,0.0,0.0,0.0,0.0,0.0,0.0,0.0,0.0,0.0,0.0,0.0,0.0,0.0,0.0,-2.1875,-2.1958,-2.1977,0.0,0.0,0.0,0.0,0.0,0.0,0.0,0.0,0.0,-2.4836,-2.4968,-2.5192,0.0,0.0,-2.6227,-2.6351,-2.6931,-2.7345,-2.7345,0.0,0.0,0.0,-2.8235,-2.8317,-2.8566,-2.8504,-2.8462,-2.8587,-2.8607,-2.8711,-2.9042,-2.9104,-2.9125,-2.9187,-2.8669,-2.8276,-2.8214,-2.8235,-2.8214,-2.8235,-2.8235,-2.8276,-1.9112,-1.8696,-1.8969,-1.915,-1.915,-1.9225,-1.9249,-1.9279,-1.9234,-1.9259,-1.9367,-1.9488,-1.9674,-1.9929,-2.0175,0.0,0.0,0.0,-2.0926,-2.1284,-2.1443,-2.1582,-2.1906,-2.2155,-2.2375,-2.2641,-2.2659,-2.2753,-2.3036,-2.3054,-2.2796,-2.2318,0.0,0.0,-2.3312,-2.3464,-2.3805,-2.4316,-2.4541,-2.4726,-2.4771,-2.449,-2.4272,-2.4072,-2.3409,-2.3038,-2.282,-2.2512,-2.2322,-2.2282,-2.2153,-2.2125,0.0,0.0,0.0,0.0,0.0,0.0,0.0,0.0,0.0,0.0,0.0,-2.1211,0.0,0.0,0.0,0.0,-2.2285,-2.2383,-2.2383,-2.2383,0.0,0.0,0.0,0.0,0.0,0.0,0.0,-2.4185,-2.4295,-2.4564,-2.5165,-2.5371,-2.5583,-2.5849,-2.6115,-2.6423,-2.6771,0.0,-2.7693,-2.7976,-2.8143,-2.8389,-2.8674,-2.8594,-2.8696,-2.9065,-2.9126,-2.9188,-2.9248,-2.9268,-2.937,-2.9595,-2.9782,-2.9864,-3.015,-2.9741,-2.9249,-2.9147,-2.9311,-2.9435,-2.9435,-2.958,-2.9704,-1.9235,-1.9262,-1.9952,-2.0167,-2.0168,-2.0362,-2.0246,-1.9919,-1.9608,-1.9464,-1.9312,-1.9242,-1.9333,-1.9592,-2.0219,0.0,-2.1048,-2.1401,-2.1532,-2.1674,-2.1613,-2.1535,-2.1343,-2.1315,-2.1525,-2.1813,-2.1848,-2.1979,-2.2206,-2.2188,-2.2188,-2.2284,-2.3238,-2.3674,-2.3692,-2.407,-2.4296,-2.4334,-2.479,-2.4877,-2.459,-2.3874,-2.3462,-2.3462,-2.2605,-2.2113,-2.2113,-2.1926,-2.1643,-2.1495,-2.1578,-2.159,-2.1648,0.0,0.0,0.0,0.0,0.0,0.0,0.0,0.0,0.0,0.0,0.0,0.0,0.0,0.0,0.0,-2.2921,0.0,-2.3154,-2.3154,0.0,0.0,0.0,-2.3984,-2.4375,-2.4414,-2.4434,-2.4453,0.0,0.0,-2.5516,0.0,-2.5859,-2.5899,-2.5859,-2.6235,-2.708,-2.7241,-2.7501,-2.8127,-2.8026,-2.8188,-2.8798,-2.8796,-2.8995,-2.9635,-2.9856,-2.9937,-3.0258,-3.0339,-3.0399,-3.0359,-3.0419,-3.0419,-3.0439,-3.0339,-3.0308,-3.0011,-3.0302,-3.0611,-3.057,-3.0838,-3.1086,-1.9949,-1.9997,-2.0302,-2.004,-1.9403,-1.9486,-1.9536,-1.9636,-1.9669,-1.9878,-1.9971,-2.0173,-2.0406,-2.0593,-2.096,-2.1139,-2.1242,-2.1139,-2.1145,-2.1134,-2.1226,-2.1278,-2.1295,-2.1828,-2.2197,-2.2418,-2.2688,-2.2944,-2.3255,-2.3255,-2.3255,-2.3255,-2.3771,-2.3734,-2.3262,-2.3901,-2.427,-2.4263,-2.4736,-2.4679,-2.4175,-2.3756,-2.344,-2.3229,-2.26,-2.225,-2.2372,-2.2266,-2.2087,-2.1849,-2.2022,-2.1928,-2.1573,-2.1553,0.0,0.0,0.0,0.0,0.0,0.0,0.0,0.0,0.0,-2.1511,-2.1835,0.0,-2.2416,0.0,-2.3252,-2.3572,-2.3736,-2.3828,0.0,0.0,-2.4258,-2.4297,-2.4394,-2.4414,-2.4551,-2.4883,-2.5016,-2.531,-2.6075,-2.6271,-2.6389,-2.6704,-2.6744,-2.7039,-2.7563,-2.7945,-2.8186,-2.843,-2.8589,-2.885,-2.8991,-2.9273,-2.9675,-3.0198,-3.0299,-3.0339,-3.0419,-3.0439,-3.0439,-3.0439,-3.0439,-3.0439,-3.0349,-3.0439,-3.0399,-3.0287,-3.0348,-3.0518,-3.0518,-3.062,-3.0681,-2.0369,-2.0237,-2.0332,-2.0134,-1.9568,-1.9725,-1.9775,-1.9722,-1.9682,-1.9818,-1.9901,-2.0135,-2.0459,-2.0829,-2.0925,-2.1009,-2.1078,-2.1048,-2.1015,-2.0994,-2.1232,-2.1306,-2.1219,-2.1602,-2.1884,-2.2201,-2.2413,-2.2617,-2.2831,-2.2938,-2.3045,-2.3045,-2.347,-2.3461,-2.3181,-2.3967,-2.4284,-2.4207,-2.4474,-2.4526,-2.4378,-2.3793,-2.3386,-2.3062,-2.2376,-2.1957,-2.1973,-2.1957,-2.1878,-2.1687,-2.1989,-2.2127,-2.194,-2.161,-2.1645,0.0,0.0,0.0,0.0,0.0,0.0,0.0,0.0,0.0,0.0,0.0,-2.2721,0.0,-2.328,0.0,-2.3691,-2.3784,-2.3954,-2.4313,-2.4352,-2.441,-2.4583,-2.4775,-2.4987,-2.5217,-2.541,-2.5718,-2.6198,-2.6256,-2.641,-2.6833,-2.6987,-2.7114,-2.7657,-2.8038,-2.8237,-2.854,-2.8834,-2.9064,-2.9243,-2.9481,-2.9908,-3.0194,-3.0294,-3.0353,-3.0571,-3.0611,-3.0611,-3.0611,-3.0611,-3.0611,-3.0611,-3.0611,-3.0611,-3.0611,-3.0611,-3.0645,-3.067,-3.0902,-3.1043,-2.072,-2.0428,-2.0428,-2.0369,-2.0281,-2.0527,-2.0423,-2.0089,-1.9816,-1.9796,-1.9781,-1.9891,-2.0245,-2.0639,-2.0622,-2.0702,-2.0809,-2.1097,-2.1107,-2.1015,-2.1279,-2.131,-2.1093,-2.1139,-2.1278,-2.148,-2.1527,-2.1666,-2.1899,-2.21,-2.2317,-2.2317,-2.2856,-2.3087,-2.3195,-2.396,-2.4297,-2.4049,-2.4145,-2.436,-2.4667,-2.3811,-2.3222,-2.286,-2.2025,-2.1542,-2.1542,-2.1542,-2.1527,-2.148,-2.1805,-2.2005,-2.2188,-2.1699,-2.1566,0.0,-2.1428,0.0,0.0,0.0,0.0,0.0,0.0,0.0,0.0,-2.3125,-2.3026,-2.3062,-2.3367,-2.3463,-2.3558,-2.3748,-2.4088,-2.4428,-2.4466,-2.4714,-2.5055,-2.5415,-2.5623,-2.5623,-2.5862,-2.6088,-2.6163,-2.6163,-2.6333,-2.6816,-2.6892,-2.7084,-2.7524,-2.7649,-2.791,-2.8534,-2.873,-2.903,-2.94,-2.9517,-2.9692,-3.0062,-3.0159,-3.0315,-3.0665,-3.0723,-3.0743,-3.0743,-3.0704,-3.0723,-3.0762,-3.0743,-3.0743,-3.0704,-3.0684,-3.0703,-3.0983,-3.1237,-3.1652,-2.1715,-2.1423,-2.1423,-2.1115,-2.0633,-2.067,-2.0559,-2.0465,-2.0405,-2.0604,-2.0819,-2.0864,-2.0924,-2.1031,-2.1031,-2.1062,-2.1032,-2.1094,-2.1156,-2.111,-2.1171,-2.1202,-2.1109,-2.1383,-2.1505,-2.1631,-2.1892,-2.203,-2.2045,-2.2143,-2.2143,-2.2158,-2.2495,-2.2703,-2.2719,0.0,0.0,0.0,-2.4122,-2.3838,-2.3809,-2.3631,-2.3263,-2.2686,-2.2173,0.0,-2.203,-2.1805,-2.1683,-2.1521,-2.1616,0.0,0.0,0.0,0.0,0.0,0.0,0.0,0.0,0.0,0.0,0.0,-2.2669,-2.2877,-2.2868,-2.3331,-2.3847,-2.415,-2.4271,-2.4392,-2.4579,-2.4802,-2.5145,-2.5424,-2.5628,-2.5767,-2.5843,-2.5918,-2.5975,-2.5975,-2.605,-2.6239,-2.6541,-2.6702,-2.6748,-2.7106,-2.7308,-2.7308,-2.7416,-2.7416,-2.7676,-2.8096,-2.8535,-2.8823,-2.9241,-2.9413,-2.9565,-2.9792,-2.9925,-3.0062,-3.0138,-3.0157,-3.0039,-3.0157,-3.0058,-3.0039,-3.0176,-3.0058,-3.0157,-3.0039,-3.0039,-3.0255,-3.0781,-3.1053,-3.1112,-2.2096,0.0,-2.195,-2.1745,0.0,-2.1452,-2.1465,-2.1373,-2.0722,-2.055,-2.0876,-2.0876,-2.0985,-2.1093,-2.1093,-2.0985,-2.0891,-2.1042,-2.1113,-2.1167,-2.1332,-2.1496,-2.1645,-2.1825,-2.19,-2.1915,-2.2079,-2.2154,-2.2154,-2.227,-2.2372,-2.2372,-2.2736,-2.2852,-2.2852,-2.3138,-2.3705,-2.4449,-2.4105,-2.3991,-2.3991,-2.3991,-2.3761,-2.3084,0.0,0.0,0.0,0.0,0.0,0.0,0.0,0.0,0.0,0.0,0.0,-2.176,-2.1679,-2.1687,-2.19,-2.2128,-2.2339,-2.2445,-2.2881,-2.2995,-2.2775,-2.3082,-2.3477,-2.3859,-2.3982,-2.4193,-2.4508,-2.4718,-2.4927,-2.5136,-2.524,-2.5344,-2.5362,-2.5527,-2.5656,-2.5693,-2.5839,-2.6041,-2.6224,-2.6261,-2.6334,-2.6518,-2.6554,-2.6646,-2.683,-2.7416,-2.7933,-2.8558,-2.8823,-2.9145,-2.9524,-2.9619,-2.9657,-2.9884,-2.9922,-2.9922,-2.9922,-2.9922,-2.9922,-2.9922,-2.9922,-2.9922,-2.9922,-2.9922,-2.9922,-2.9922,-2.9922,-2.9922,-3.0411,-3.0411,-3.0411,-2.2315,-2.2257,-2.2257,-2.2228,-2.2184,-2.2184,-2.2184,-2.2111,0.0,0.0,0.0,-2.0728,-2.0838,-2.1073,-2.1228,-2.1038,-2.0833,-2.116,-2.1343,-2.1393,-2.1657,-2.192,-2.2184,-2.2184,-2.2184,-2.2184,-2.2184,-2.2184,-2.2184,-2.2423,-2.2528,-2.2528,-2.2781,-2.2916,-2.2961,-2.2976,-2.3469,-2.4213,-2.3984,-2.3937,-2.429,-2.429,-2.3937,-2.3495,-2.3108,-2.2734,-2.2141,-2.2126,-2.1992,-2.1855,-2.1955,-2.2169,-2.2055,-2.1911,-2.1759,-2.1744,-2.1819,-2.1775,-2.1775,-2.2339,-2.265,-2.2586,-2.2999,-2.3217,-2.3046,-2.3029,-2.3137,-2.3245,-2.3567,-2.3781,-2.4067,-2.4386,-2.4509,-2.4615,-2.4598,-2.4721,-2.4739,-2.4987,-2.5218,-2.5253,-2.5466,-2.5679,-2.5771,-2.5771,-2.5714,-2.5785,-2.5931,-2.598,-2.6483,-2.7398,-2.8183,-2.8744,-2.8969,-2.931,-2.9592,-2.9667,-2.9686,-2.9568,-2.9568,-2.9686,-2.9568,-2.9568,-2.9568,-2.945,-2.9568,-2.9568,-2.9568,-2.945,-2.9568,-2.9568,-2.9568,-2.9686,-2.9686,-2.9686,-2.9804,-2.2813,-2.2564,-2.255,-2.2418,-2.2184,-2.2184,-2.2184,-2.2154,-2.1686,-2.1335,-2.1072,-2.1072,-2.1185,-2.12,-2.148,-2.1612,-2.1627,-2.195,-2.2008,0.0,-2.2096,-2.214,-2.2184,-2.2184,-2.2184,-2.2184,-2.2184,-2.2184,-2.2184,-2.2303,-2.2303,-2.2303,-2.2303,-2.2436,-2.2657,-2.2686,-2.3063,-2.3701,-2.3413,-2.3242,-2.3242,-2.3242,-2.3123,-2.2766,-2.2647,-2.2513,-2.223,-2.223,-2.2215,-2.2171,-2.2156,-2.2156,-2.2156,-2.2334,-2.2438,-2.2438,-2.2746,-2.2849,-2.2833,-2.32,-2.3425,-2.334,-2.3198,-2.3247,-2.3661,-2.3772,-2.3772,-2.3756,-2.385,-2.3883,-2.3978,-2.4387,-2.4683,-2.481,-2.5173,-2.5519,-2.5375,-2.5537,-2.5463,-2.5463,-2.5643,-2.5697,-2.5604,-2.5604,-2.5763,-2.6122,-2.6134,-2.6459,-2.7027,-2.7625,-2.7893,-2.8155,-2.8682,-2.902,-2.9094,-2.9094,-2.8993,-2.8755,-2.8755,-2.8737,-2.8498,-2.8379,-2.8379,-2.8259,-2.8379,-2.8379,-2.8379,-2.8259,-2.8379,-2.8379,-2.8618,-2.8755,-2.8755,-2.8993,-2.9213,-2.2907,-2.2751,-2.2594,-2.2577,-2.2448,-2.2262,-2.209,-2.1933,-2.191,-2.1904,-2.1759,-2.1745,-2.173,-2.1759,-2.1891,-2.1964,-2.1964,-2.2111,-2.2271,-2.2418,-2.2432,-2.252,-2.2681,-2.2681,-2.2681,-2.2681,-2.2696,-2.2681,-2.2696,-2.2681,-2.2681,-2.2681,-2.2681,-2.2754,-2.2886,-2.3062,-2.3348,-2.3606,-2.3409,-2.3414,-2.3657,-2.3657,-2.3536,-2.317,-2.317,-2.2959,-2.2432,-2.2418,-2.2345,-2.2184,-2.2184,-2.2184,-2.2184,-2.2289,-2.2423,-2.2423,-2.2647,-2.2766,-2.2766,-2.3123,-2.3299,-2.3262,-2.334,-2.3478,-2.3709,-2.3569,-2.3472,-2.3697,-2.3697,-2.3697,-2.3921,-2.4128,-2.4351,-2.4351,-2.4573,-2.4684,-2.4684,-2.4701,-2.4684,-2.4718,-2.4872,-2.4991,-2.4991,-2.5162,-2.5332,-2.5554,-2.584,-2.6382,-2.6828,-2.7375,-2.7736,-2.789,-2.8253,-2.8361,-2.8498,-2.8498,-2.8379,-2.8277,-2.8277,-2.814,-2.802,-2.802,-2.802,-2.802,-2.802,-2.802,-2.802,-2.802,-2.802,-2.802,-2.814,-2.8277,-2.8277,-2.8397,-2.8618,-2.3028,-2.3,-2.2776,-2.2678,-2.2664,-2.2426,-2.2174,-2.1964,-2.2213,-2.2319,-2.2349,-2.2195,-2.2184,-2.2198,-2.2242,-2.2286,-2.2286,-2.2359,-2.252,-2.271,-2.274,-2.2901,-2.3193,-2.3223,-2.3252,-2.3325,-2.3325,-2.3325,-2.3325,-2.3325,-2.3325,-2.3325,-2.3325,-2.3325,-2.334,-2.3574,-2.3706,-2.3691,-2.371,-2.3798,-2.3973,-2.3973,-2.3818,-2.3494,-2.3479,-2.3237,-2.2754,-2.2725,-2.2623,-2.2418,-2.2389,-2.2389,-2.2389,-2.2389,-2.2389,-2.2389,-2.263,-2.2751,-2.2856,-2.3036,-2.3126,-2.323,-2.3407,-2.3495,-2.3448,-2.3231,-2.313,-2.3602,-2.3618,-2.3731,-2.3975,-2.4072,-2.4039,-2.4055,-2.4168,-2.4201,-2.4168,-2.4152,-2.4152,-2.4185,-2.4416,-2.4581,-2.4631,-2.4829,-2.4994,-2.5243,-2.5677,-2.6133,-2.6406,-2.6867,-2.7263,-2.7521,-2.7779,-2.802,-2.802,-2.802,-2.802,-2.79,-2.7882,-2.79,-2.7779,-2.7779,-2.7779,-2.7779,-2.7779,-2.7779,-2.7779,-2.7779,-2.7779,-2.7779,-2.7779,-2.79,-2.802,-2.8126,-2.8229,-2.3042,-2.3028,-2.3,-2.2986,-2.2972,-2.293,-2.2888,-2.2874,-2.2888,-2.2888,-2.2835,-2.2451,-2.2228,-2.2228,-2.2491,-2.2623,-2.2637,-2.2901,-2.3047,-2.3076,-2.3062,-2.3237,-2.353,-2.3545,-2.3706,-2.394,-2.3954,-2.394,-2.394,-2.3954,-2.3984,-2.3998,-2.3998,-2.3969,-2.3984,-2.4013,-2.4027,-2.4042,-2.4013,-2.3981,-2.3701,-2.3672,-2.3539,-2.312,-2.312,-2.3091,-2.3062,-2.3062,-2.3047,-2.3032,-2.3003,-2.3018,-2.3018,-2.3018,-2.3018,-2.3018,-2.3003,-2.3142,-2.3499,-2.326,-2.3217,-2.3535,-2.3306,-2.3169,-2.3169,-2.3078,-2.3371,-2.3842,-2.4077,-2.4013,-2.4077,-2.4279,-2.4347,-2.4331,-2.458,-2.4895,-2.4845,-2.4895,-2.4895,-2.4895,-2.4778,-2.4944,-2.4844,-2.491,-2.5058,-2.5353,-2.5753,-2.6089,-2.6211,-2.6261,-2.6311,-2.6554,-2.7159,-2.79,-2.79,-2.802,-2.7779,-2.7521,-2.7521,-2.7418,-2.7177,-2.7194,-2.7194,-2.7177,-2.7194,-2.7194,-2.7194,-2.7194,-2.7194,-2.7194,-2.7315,-2.7677,-2.7935,-2.82,-2.8306,-2.2903,-2.2889,-2.2712,-2.2535,-2.2386,-2.2372,-2.2372,-2.2372,-2.2635,-2.2766,-2.2724,-2.2624,-2.2665,-2.268,-2.2794,-2.2851,-2.2851,-2.2979,-2.3036,-2.3036,-2.3036,-2.3236,-2.3479,-2.3494,-2.3695,-2.4071,-2.4086,-2.4086,-2.4086,-2.4086,-2.4086,-2.4086,-2.4086,-2.4086,-2.4101,-2.4276,-2.4364,-2.4379,-2.4569,-2.4496,-2.4188,-2.3984,-2.3823,-2.3706,-2.3691,-2.3588,-2.3413,-2.3398,-2.331,-2.3135,-2.3106,-2.3106,-2.3106,-2.3106,-2.3106,-2.3106,-2.3106,-2.3106,-2.337,-2.3113,-2.3163,-2.3271,-2.3412,-2.3337,-2.3459,-2.3581,-2.3825,-2.4022,-2.3951,-2.3834,-2.407,-2.4172,-2.429,-2.4274,-2.4408,-2.4424,-2.4525,-2.4525,-2.4408,-2.4541,-2.4601,-2.473,-2.4762,-2.4907,-2.5206,-2.5489,-2.5774,-2.5839,-2.6083,-2.6067,-2.6067,-2.6189,-2.6554,-2.6796,-2.6918,-2.6935,-2.6796,-2.6675,-2.6675,-2.6554,-2.6587,-2.6449,-2.6571,-2.6587,-2.6621,-2.6621,-2.6449,-2.6449,-2.6571,-2.6621,-2.6823,-2.7064,-2.7424,-2.7594,-2.7594,-2.306,-2.2953,-2.2659,-2.2418,-2.2231,-2.2231,-2.2231,-2.2231,-2.2484,-2.2617,-2.2617,-2.2882,-2.3015,-2.2987,-2.298,-2.3028,-2.3028,-2.3028,-2.3028,-2.3028,-2.3028,-2.3201,-2.3534,-2.3548,-2.3737,-2.4072,-2.4101,-2.4086,-2.4086,-2.4086,-2.4086,-2.4086,-2.4086,-2.4072,-2.4247,-2.4465,-2.4567,-2.4715,-2.4949,-2.4949,-2.4701,-2.4466,-2.4262,-2.4101,-2.4086,-2.3969,-2.3735,-2.372,-2.3618,-2.3398,-2.3369,-2.3369,-2.3369,-2.3296,-2.3208,-2.312,-2.3106,-2.3106,-2.3106,-2.3106,-2.3106,-2.3106,-2.3355,-2.3479,-2.3479,-2.3728,-2.3867,-2.3931,-2.3794,-2.3774,-2.3982,-2.4102,-2.4102,-2.4102,-2.4102,-2.4102,-2.4237,-2.4221,-2.4356,-2.4372,-2.4715,-2.4722,-2.4754,-2.4928,-2.5194,-2.5456,-2.5472,-2.5488,-2.5717,-2.5839,-2.5839,-2.5839,-2.5905,-2.606,-2.61,-2.6189,-2.6067,-2.6067,-2.6189,-2.6239,-2.6182,-2.6215,-2.6331,-2.6637,-2.6397,-2.6397,-2.6637,-2.657,-2.6381,-2.643,-2.6595,-2.6843,-2.7151,-2.7206,-2.7305,-2.3567,-2.3273,-2.2979,-2.2846,-2.2832,-2.2819,-2.2819,-2.2832,-2.2969,-2.2956,-2.2956,-2.2969,-2.2956,-2.2929,-2.2993,-2.3056,-2.3056,-2.2939,-2.2953,-2.2953,-2.2939,-2.3196,-2.3462,-2.3476,-2.363,-2.4003,-2.4003,-2.4032,-2.406,-2.406,-2.406,-2.406,-2.406,-2.4196,-2.4467,-2.4495,-2.4766,-2.4946,-2.511,-2.5066,-2.5052,-2.5022,-2.473,-2.4232,-2.4101,-2.4115,-2.4057,-2.4057,-2.4042,-2.4027,-2.3998,-2.4013,-2.3998,-2.3735,-2.3442,-2.3193,-2.3135,-2.3135,-2.3149,-2.3149,-2.3135,-2.312,-2.312,-2.3106,-2.3106,-2.323,-2.3355,-2.3604,-2.3544,-2.3746,-2.3993,-2.4055,-2.4101,-2.4117,-2.4147,-2.4255,-2.4517,-2.4454,-2.4671,-2.4885,-2.4885,-2.4901,-2.5056,-2.5087,-2.498,-2.5103,-2.5103,-2.5135,-2.529,-2.5258,-2.5274,-2.537,-2.5514,-2.575,-2.606,-2.6126,-2.6076,-2.6109,-2.6101,-2.6248,-2.6447,-2.6628,-2.6684,-2.6816,-2.6799,-2.6849,-2.6947,-2.6964,-2.6914,-2.6914,-2.6804,-2.6968,-2.7035,-2.7407,-2.7506,-2.3714,-2.3607,-2.3487,-2.3447,-2.3447,-2.3447,-2.3434,-2.3434,-2.3447,-2.3447,-2.3447,-2.3434,-2.3434,-2.3434,-2.3498,-2.3324,-2.2971,-2.2943,-2.2943,-2.2943,-2.2943,-2.3133,-2.3364,-2.3378,-2.3679,-2.4218,-2.4246,-2.4344,-2.4526,-2.454,-2.454,-2.454,-2.454,-2.454,-2.4679,-2.4679,-2.4818,-2.4818,-2.4958,-2.4958,-2.4943,-2.4958,-2.4744,-2.4345,-2.4535,-2.4598,-2.4408,-2.4393,-2.4305,-2.4101,-2.4086,-2.4086,-2.4071,-2.3969,-2.3866,-2.3749,-2.3735,-2.3735,-2.3706,-2.353,-2.3427,-2.3398,-2.3223,-2.3135,-2.3106,-2.3106,-2.3106,-2.3245,-2.3245,-2.3355,-2.3479,-2.3867,-2.4115,-2.41,-2.4115,-2.41,-2.4224,-2.4239,-2.4363,-2.4487,-2.4487,-2.4487,-2.4502,-2.4487,-2.4487,-2.4487,-2.461,-2.4859,-2.514,-2.5187,-2.5375,-2.5723,-2.5866,-2.604,-2.6071,-2.6149,-2.6149,-2.6149,-2.6181,-2.6197,-2.631,-2.6469,-2.6455,-2.668,-2.6761,-2.6777,-2.6793,-2.6793,-2.6825,-2.6987,-2.6874,-2.7085,-2.7181,-2.7376,-2.7457,-2.3484,-2.3601,-2.3379,-2.334,-2.3483,-2.334,-2.3483,-2.3625,-2.3625,-2.3625,-2.3768,-2.3781,-2.3781,-2.3781,-2.3781,-2.3567,-2.318,-2.3153,-2.3153,-2.3153,-2.3153,-2.3292,-2.343,-2.3569,-2.3803,-2.4121,-2.4148,-2.4258,-2.4424,-2.4451,-2.4451,-2.4451,-2.4451,-2.4593,-2.4593,-2.4593,-2.472,-2.472,-2.4862,-2.4862,-2.4862,-2.4862,-2.4778,-2.4568,-2.4773,-2.4746,-2.4477,-2.4463,-2.4361,-2.4305,-2.4261,-2.4203,-2.4262,-2.4232,-2.4188,-2.4101,-2.4071,-2.4086,-2.4057,-2.3881,-2.3749,-2.3749,-2.3559,-2.3427,-2.3427,-2.3427,-2.3427,-2.3427,-2.3427,-2.3427,-2.3554,-2.3806,-2.3968,-2.3803,-2.3743,-2.3852,-2.3976,-2.3976,-2.3991,-2.4115,-2.4115,-2.4146,-2.4253,-2.4268,-2.4344,-2.4405,-2.4687,-2.481,-2.5107,-2.5296,-2.5485,-2.5848,-2.5845,-2.5908,-2.5939,-2.597,-2.6168,-2.6136,-2.6232,-2.6184,-2.6311,-2.6311,-2.6358,-2.6438,-2.647,-2.6485,-2.6485,-2.647,-2.6597,-2.6787,-2.6982,-2.703,-2.7174,-2.7137,-2.7137,-2.3031,-2.3006,-2.2739,-2.2675,-2.2844,-2.2844,-2.2937,-2.3262,-2.3249,-2.3432,-2.3745,-2.3821,-2.3731,-2.3821,-2.3731,-2.3794,-2.3638,-2.3625,-2.3728,-2.3688,-2.3701,-2.3701,-2.3829,-2.3816,-2.3843,-2.391,-2.3781,-2.3937,-2.3991,-2.4004,-2.3991,-2.395,-2.3991,-2.4161,-2.4378,-2.4419,-2.452,-2.4676,-2.4832,-2.479,-2.4734,-2.4804,-2.479,-2.4734,-2.4706,-2.4568,-2.4022,-2.413,-2.4252,-2.4481,-2.4481,-2.4487,-2.448,-2.4569,-2.4437,-2.4218,-2.413,-2.4115,-2.413,-2.4115,-2.4086,-2.4071,-2.4057,-2.3984,-2.3954,-2.3984,-2.3984,-2.3969,-2.3984,-2.4027,-2.3998,-2.4128,-2.3907,-2.3267,-2.3363,-2.3488,-2.3569,-2.3649,-2.3758,-2.4067,-2.4098,-2.4283,-2.4512,-2.4492,-2.4584,-2.4796,-2.4872,-2.5031,-2.5107,-2.5252,-2.5138,-2.5245,-2.5574,-2.589,-2.5881,-2.584,-2.6106,-2.6163,-2.6229,-2.6261,-2.6352,-2.643,-2.6493,-2.6572,-2.6471,-2.6619,-2.6471,-2.6487,-2.6666,-2.6823,-2.7004,-2.6988,-2.6902,-2.6934,-2.6934,-2.3311,-2.3311,-2.3222,-2.3184,-2.3184,-2.3184,-2.3184,-2.3331,-2.3331,-2.3331,-2.349,-2.3478,-2.3478,-2.3478,-2.3478,-2.3478,-2.3478,-2.3465,-2.3575,-2.3834,-2.3781,-2.3794,-2.3794,-2.3781,-2.3875,-2.4075,-2.4275,-2.4356,-2.4356,-2.4356,-2.4369,-2.4369,-2.4356,-2.4369,-2.4488,-2.4515,-2.4501,-2.4647,-2.4647,-2.4647,-2.4647,-2.4634,-2.4553,-2.4363,-2.4336,-2.4161,-2.3936,-2.4316,-2.4484,-2.4426,-2.4412,-2.4408,-2.4288,-2.4352,-2.4444,-2.4357,-2.4611,-2.4759,-2.4715,-2.454,-2.4423,-2.4379,-2.4218,-2.4101,-2.4086,-2.4101,-2.4115,-2.4101,-2.4086,-2.4086,-2.4086,-2.4086,-2.3998,-2.3808,-2.3779,-2.3749,-2.3848,-2.3878,-2.4035,-2.4035,-2.4163,-2.4223,-2.4282,-2.4327,-2.4372,-2.4491,-2.465,-2.4825,-2.502,-2.5212,-2.5596,-2.5794,-2.5932,-2.5798,-2.5844,-2.574,-2.5871,-2.5982,-2.6067,-2.6137,-2.6339,-2.6448,-2.6408,-2.647,-2.6517,-2.6532,-2.6532,-2.6548,-2.6548,-2.6532,-2.6517,-2.6383,-2.6398,-2.6532,-2.6666,-2.3005,-2.3005,-2.3005,-2.2992,-2.2992,-2.3005,-2.3141,-2.3141,-2.3154,-2.3302,-2.3438,-2.3438,-2.3438,-2.3438,-2.3438,-2.3438,-2.3438,-2.3438,-2.3555,-2.3694,-2.3655,-2.3655,-2.3944,-2.4088,-2.4168,-2.4356,-2.4543,-2.4636,-2.4636,-2.4636,-2.4636,-2.4623,-2.4636,-2.4623,-2.4636,-2.4636,-2.4636,-2.4636,-2.4623,-2.4636,-2.4636,-2.4636,-2.4543,-2.4396,-2.4356,-2.4262,-2.4102,-2.4507,-2.4589,-2.4399,-2.4442,-2.4428,-2.4162,-2.4394,-2.4351,-2.4388,-2.451,-2.4631,-2.4617,-2.4578,-2.4611,-2.4582,-2.4554,-2.4452,-2.4452,-2.4437,-2.4452,-2.4437,-2.4466,-2.4437,-2.4452,-2.4452,-2.4437,-2.4437,-2.4188,-2.4101,-2.4086,-2.4086,-2.4071,-2.4042,-2.4057,-2.413,-2.4232,-2.4262,-2.432,-2.4393,-2.4701,-2.4877,-2.51,-2.5293,-2.5576,-2.5667,-2.5547,-2.5547,-2.5712,-2.5727,-2.5727,-2.5816,-2.5905,-2.5993,-2.6172,-2.6188,-2.6234,-2.6234,-2.6264,-2.6264,-2.6264,-2.6264,-2.6264,-2.613,-2.5996,-2.613,-2.628,-2.6264,-2.6264,-2.2259,-2.2259,-2.2259,-2.2259,-2.2259,-2.2259,-2.2408,-2.2707,-2.2707,-2.2856,-2.3141,-2.3042,-2.3191,-2.3179,-2.3105,-2.3279,-2.3353,-2.3403,-2.3416,-2.3353,-2.334,-2.3625,-2.387,-2.4153,-2.4354,-2.4568,-2.4595,-2.4581,-2.4486,-2.4473,-2.4528,-2.4608,-2.4621,-2.4555,-2.4621,-2.4703,-2.4756,-2.477,-2.4743,-2.4743,-2.4743,-2.473,-2.4716,-2.4703,-2.4676,-2.4649,-2.4623,-2.4556,-2.4475,-2.4303,-2.4593,-2.4427,-2.4358,-2.4442,-2.4316,-2.412,-2.4036,-2.4172,-2.4158,-2.4417,-2.4495,-2.4452,-2.4694,-2.5052,-2.4815,-2.4785,-2.4785,-2.48,-2.4964,-2.4993,-2.4979,-2.4979,-2.4979,-2.4964,-2.4554,-2.4262,-2.4159,-2.4188,-2.4262,-2.4218,-2.4174,-2.4247,-2.4569,-2.4598,-2.4715,-2.4876,-2.4949,-2.5084,-2.5099,-2.5113,-2.5172,-2.5202,-2.5337,-2.5337,-2.5457,-2.5457,-2.5457,-2.5457,-2.5607,-2.5742,-2.5876,-2.5861,-2.5861,-2.5861,-2.5996,-2.5996,-2.5996,-2.5861,-2.5861,-2.5861,-2.5876,-2.6011,-2.6011,-2.5876,-2.5952,-2.1372,-2.1372,-2.1372,-2.1372,-2.1372,-2.1372,-2.1522,-2.1522,-2.1534,-2.1695,-2.1857,-2.186,-2.2082,-2.1954,-2.2424,-2.2673,-2.2802,-2.2955,-2.3145,-2.3145,-2.3145,-2.3466,-2.3782,-2.3907,-2.416,-2.4302,-2.4302,-2.4353,-2.4353,-2.4315,-2.4328,-2.4353,-2.4618,-2.4796,-2.4822,-2.5099,-2.5277,-2.5277,-2.5277,-2.5264,-2.5264,-2.5251,-2.5277,-2.5264,-2.5077,-2.497,-2.4943,-2.4743,-2.4489,-2.426,-2.4147,-2.4025,-2.4086,-2.4214,-2.43,-2.4203,-2.4456,-2.4512,-2.4344,-2.4426,-2.4327,-2.4116,-2.4295,-2.4238,-2.4238,-2.4238,-2.4374,-2.4645,-2.4645,-2.4795,-2.5066,-2.5081,-2.5081,-2.5037,-2.4905,-2.4774,-2.4759,-2.4803,-2.4803,-2.4803,-2.4774,-2.4818,-2.4862,-2.4905,-2.4935,-2.5022,-2.5081,-2.5096,-2.5125,-2.5169,-2.5213,-2.511,-2.5216,-2.5066,-2.5066,-2.5066,-2.5187,-2.5187,-2.5202,-2.5366,-2.5352,-2.5322,-2.5337,-2.5337,-2.5457,-2.5592,-2.5457,-2.5322,-2.5322,-2.5472,-2.5472,-2.5472,-2.5472,-2.5352,-2.5529,-2.0664,-2.0754,-2.0754,-2.0821,-2.091,-2.1063,-2.1063,-2.1063,-2.1368,-2.138,-2.1402,-2.1517,-2.1585,-2.1608,-2.2032,-2.2102,-2.2268,-2.2424,-2.2567,-2.2567,-2.2555,-2.2935,-2.3591,-2.3884,-2.4112,-2.424,-2.4124,-2.4252,-2.4252,-2.4265,-2.4265,-2.4252,-2.4431,-2.4585,-2.4559,-2.4739,-2.4892,-2.4879,-2.4892,-2.4892,-2.4892,-2.4892,-2.4879,-2.4866,-2.4875,-2.4644,-2.4605,-2.437,-2.4232,-2.4276,-2.4222,-2.4088,-2.3968,-2.4098,-2.4188,-2.4079,-2.4323,-2.4227,-2.4245,-2.4203,-2.4261,-2.4261,-2.4205,-2.4344,-2.4358,-2.4344,-2.4482,-2.4634,-2.462,-2.4758,-2.4896,-2.5034,-2.5034,-2.5201,-2.5172,-2.5208,-2.511,-2.5037,-2.5052,-2.5066,-2.5066,-2.5066,-2.5066,-2.5066,-2.5066,-2.5096,-2.5213,-2.5242,-2.5286,-2.5344,-2.5418,-2.5374,-2.5388,-2.5447,-2.5476,-2.5476,-2.5447,-2.5403,-2.5359,-2.533,-2.5198,-2.5154,-2.5096,-2.5231,-2.5081,-2.5066,-2.5066,-2.5066,-2.5202,-2.5187,-2.5066,-2.514,-2.5198,-2.5257,-2.5418,-1.9885,-2.0077,-2.0077,-2.0195,-2.0366,-2.07,-2.0812,-2.1001,-2.1135,-2.129,-2.1301,-2.1502,-2.1369,-2.1525,-2.1458,-2.1749,-2.1749,-2.1962,-2.1928,-2.2096,-2.2096,-2.2553,-2.3332,-2.3569,-2.3748,-2.381,-2.4058,-2.394,-2.399,-2.3953,-2.407,-2.4133,-2.4275,-2.4238,-2.4301,-2.4418,-2.4367,-2.443,-2.4611,-2.4623,-2.4623,-2.4623,-2.4623,-2.4611,-2.4521,-2.4431,-2.4201,-2.4023,-2.4096,-2.4595,-2.4528,-2.4169,-2.413,-2.4103,-2.4142,-2.3968,-2.3941,-2.4058,-2.3964,-2.4235,-2.4195,-2.4268,-2.4396,-2.4734,-2.4524,-2.4496,-2.4482,-2.4623,-2.472,-2.4792,-2.4778,-2.482,-2.4933,-2.5185,-2.5242,-2.5279,-2.5193,-2.5154,-2.5154,-2.5154,-2.5169,-2.5169,-2.5154,-2.5154,-2.5183,-2.5418,-2.5491,-2.5549,-2.5608,-2.5681,-2.5769,-2.5827,-2.5871,-2.5944,-2.5944,-2.5944,-2.59,-2.5857,-2.5813,-2.5725,-2.5447,-2.5344,-2.5227,-2.5183,-2.5242,-2.5183,-2.5066,-2.5066,-2.5125,-2.5213,-2.5315,-2.5418,-2.5505,-2.5564,-2.5681,-1.9512,-1.9553,-1.9553,-1.9583,-1.9625,-1.9625,-1.9635,-1.9802,-1.9792,-1.998,-1.9991,-2.0116,-2.0189,-2.021,-2.0665,-2.1103,-2.1392,-2.1712,-2.2076,-2.2396,-2.2396,-2.2556,-2.2817,-2.2677,-2.2688,-2.2952,-2.3023,-2.3182,-2.3329,-2.3452,-2.3659,-2.3794,-2.4074,-2.4464,-2.4439,-2.4547,-2.4939,-2.4939,-2.4768,-2.4743,-2.473,-2.473,-2.473,-2.4718,-2.4541,-2.4326,-2.4303,-2.4214,-2.415,-2.4163,-2.3856,-2.3612,-2.3684,-2.3953,-2.4035,-2.397,-2.4249,-2.4329,-2.4168,-2.4102,-2.4152,-2.3991,-2.3991,-2.4052,-2.4052,-2.4079,-2.4208,-2.4337,-2.4465,-2.452,-2.4804,-2.4748,-2.4932,-2.4946,-2.4932,-2.5003,-2.4988,-2.5365,-2.56,-2.5769,-2.5769,-2.5798,-2.5783,-2.574,-2.5754,-2.5798,-2.5842,-2.59,-2.5959,-2.6032,-2.6135,-2.6237,-2.6222,-2.6252,-2.6252,-2.6266,-2.6266,-2.6266,-2.6237,-2.6193,-2.593,-2.5754,-2.571,-2.5579,-2.5447,-2.5359,-2.5286,-2.533,-2.5447,-2.552,-2.5593,-2.5725,-2.5842,-2.5886,-2.6003,-1.8097,-1.8191,-1.8191,-1.8248,-1.8493,-1.8824,-1.8984,-1.9144,-1.9464,-1.9624,-1.9644,-1.9755,-1.9785,-1.9796,-2.0231,-2.0444,-2.0617,-2.0941,-2.1103,-2.1254,-2.1254,-2.1416,-2.1416,-2.1329,-2.164,-2.2395,-2.2556,-2.2728,-2.2889,-2.2889,-2.3015,-2.3199,-2.3532,-2.3496,-2.3692,-2.3852,-2.3828,-2.3828,-2.3852,-2.3852,-2.3852,-2.3852,-2.3852,-2.384,-2.3695,-2.3538,-2.3442,-2.3285,-2.3249,-2.3128,-2.2838,-2.3002,-2.3505,-2.3779,-2.3877,-2.3761,-2.3883,-2.3992,-2.3849,-2.381,-2.3904,-2.3892,-2.3879,-2.4024,-2.4182,-2.4182,-2.4182,-2.4471,-2.4471,-2.4616,-2.4733,-2.4747,-2.4733,-2.5022,-2.5022,-2.5022,-2.5268,-2.5342,-2.544,-2.544,-2.5397,-2.5552,-2.5581,-2.5809,-2.5906,-2.5819,-2.6179,-2.6252,-2.6325,-2.6398,-2.653,-2.6588,-2.6544,-2.653,-2.6544,-2.6559,-2.6588,-2.6617,-2.6632,-2.6617,-2.6515,-2.6398,-2.631,-2.6047,-2.5754,-2.5725,-2.5681,-2.574,-2.5754,-2.5798,-2.5886,-2.6061,-2.6179,-2.6222,-2.6398,-1.6959,-1.7109,-1.7109,-1.7205,-1.751,-1.8174,-1.8482,-1.8654,-1.9316,-1.9258,-1.9632,-1.9642,-1.9277,-1.9469,-1.9622,-1.9632,-1.9967,-2.013,-2.0292,-2.0292,-2.0292,-2.0292,-2.0282,-2.0434,-2.0748,-2.2084,-2.2084,-2.2073,-2.2234,-2.2406,-2.2406,-2.2567,-2.2567,-2.2728,-2.2728,-2.2567,-2.2889,-2.2889,-2.2889,-2.2889,-2.2889,-2.2728,-2.2889,-2.2878,-2.2866,-2.2843,-2.2773,-2.2669,-2.2406,-2.2236,-2.2031,-2.2579,-2.3145,-2.3606,-2.3681,-2.3441,-2.3578,-2.3676,-2.3651,-2.3451,-2.3561,-2.3896,-2.387,-2.4018,-2.4301,-2.4261,-2.4248,-2.4275,-2.4409,-2.4409,-2.4475,-2.4556,-2.4716,-2.5038,-2.5065,-2.5226,-2.5423,-2.5166,-2.4985,-2.5072,-2.5313,-2.5484,-2.5584,-2.5613,-2.5797,-2.5896,-2.627,-2.643,-2.6503,-2.6561,-2.6648,-2.6692,-2.6619,-2.6749,-2.6749,-2.6735,-2.6793,-2.6663,-2.6881,-2.6736,-2.675,-2.6634,-2.643,-2.6296,-2.6076,-2.6047,-2.6018,-2.6032,-2.6047,-2.6076,-2.6222,-2.6427,-2.653,-2.6574,-2.672,-1.7284,-1.7311,-1.7311,-1.7337,-1.7363,-1.7527,-1.7691,-1.7691,-1.7846,-1.7846,-1.7855,-1.7855,-1.801,-1.801,-1.8174,-1.8654,-1.9316,-1.9479,-1.9805,-1.9805,-1.9805,-1.9805,-1.9642,-1.9642,-2.013,-2.0292,-2.0455,-2.0617,-2.1103,-2.1265,-2.1599,-2.2073,-2.2234,-2.2406,-2.2406,-2.2567,-2.2406,-2.2245,-2.2245,-2.2406,-2.2406,-2.2406,-2.2406,-2.2406,-2.2245,-2.2406,-2.2406,-2.2533,-2.2499,-2.2499,-2.2453,-2.2452,-2.2537,-2.2793,-2.3113,-2.3438,-2.3429,-2.348,-2.3468,-2.3441,-2.3476,-2.3438,-2.3476,-2.3464,-2.3612,-2.3587,-2.3735,-2.3735,-2.3896,-2.4031,-2.4193,-2.4341,-2.4488,-2.4636,-2.4636,-2.4636,-2.4757,-2.4796,-2.482,-2.5216,-2.5416,-2.5562,-2.5492,-2.5594,-2.5725,-2.584,-2.5954,-2.6054,-2.6097,-2.6285,-2.6474,-2.6648,-2.6808,-2.6794,-2.6954,-2.6925,-2.6779,-2.6765,-2.6648,-2.6502,-2.6517,-2.6517,-2.6358,-2.6243,-2.6098,-2.6183,-2.6183,-2.6197,-2.6226,-2.6127,-2.6459,-2.6808,-2.6648,-2.6475,-2.6677,-1.6706,-1.6706,-1.6706,-1.6706,-1.6706,-1.6862,-1.7026,-1.7035,-1.7363,-1.7363,-1.7363,-1.7363,-1.7363,-1.7527,-1.7527,-1.801,-1.8337,-1.85,-1.8664,-1.8664,-1.8664,-1.8664,-1.8683,-1.8673,-1.8664,-1.8664,-1.8664,-1.9326,-2.0292,-2.0455,-2.0779,-2.0941,-2.1103,-2.1265,-2.1265,-2.1103,-2.1276,-2.1276,-2.1276,-2.1276,-2.1276,-2.1276,-2.1265,-2.1265,-2.1265,-2.1265,-2.1265,-2.1265,-2.1265,-2.1254,-2.1265,-2.1362,-2.1402,-2.1601,-2.2053,-2.2471,-2.2769,-2.285,-2.2838,-2.2705,-2.2681,-2.3101,-2.3141,-2.3217,-2.3467,-2.3553,-2.3328,-2.3451,-2.3451,-2.3735,-2.3735,-2.3909,-2.3896,-2.4031,-2.4058,-2.4071,-2.4206,-2.4354,-2.4663,-2.5119,-2.5051,-2.5171,-2.5451,-2.5451,-2.5639,-2.5653,-2.58,-2.58,-2.5653,-2.5946,-2.6093,-2.6239,-2.6385,-2.6399,-2.6546,-2.6546,-2.6546,-2.6546,-2.6546,-2.6385,-2.6239,-2.6093,-2.6064,-2.6068,-2.6113,-2.6013,-2.6085,-2.5968,-2.6142,-2.6142,-2.6242,-2.6314,-2.6357,-2.6385,-2.6399,-1.6048,-1.6048,-1.6048,-1.6048,-1.6048,-1.6369,-1.6534,-1.6698,-1.6871,-1.7035,-1.7035,-1.7035,-1.7035,-1.7199,-1.7199,-1.7363,-1.7363,-1.7554,-1.7598,-1.7616,-1.766,-1.766,-1.7486,-1.7478,-1.7678,-1.7879,-1.7861,-1.8247,-1.9316,-1.9642,-1.9805,-1.9967,-1.9967,-1.9998,-2.0201,-2.0395,-2.0038,-2.0089,-2.0099,-2.0089,-2.0048,-2.0038,-1.9998,-1.9967,-1.9967,-2.013,-2.0292,-2.0292,-2.0292,-2.013,-2.013,-2.0282,-2.0444,-2.0444,-2.075,-2.1401,-2.1603,-2.1726,-2.1859,-2.1935,-2.2175,-2.2627,-2.2508,-2.2894,-2.2998,-2.3039,-2.3054,-2.3154,-2.3329,-2.3367,-2.3392,-2.3479,-2.3642,-2.3655,-2.3655,-2.3629,-2.398,-2.4155,-2.4331,-2.4442,-2.4499,-2.4743,-2.5012,-2.5079,-2.5226,-2.5226,-2.5212,-2.5212,-2.5212,-2.5506,-2.5653,-2.58,-2.5946,-2.5946,-2.5946,-2.6093,-2.6093,-2.6093,-2.6093,-2.5946,-2.58,-2.5653,-2.5639,-2.5639,-2.5451,-2.5382,-2.5625,-2.58,-2.5876,-2.5994,-2.5772,-2.58,-2.5946,-2.6093,-2.6093,-1.6048,-1.6048,-1.6048,-1.6048,-1.6048,-1.6048,-1.6048,-1.6048,-1.6213,-1.6213,-1.6213,-1.6213,-1.6213,-1.6394,-1.6715,-1.7035,-1.726,-1.7373,-1.7443,-1.746,-1.7574,-1.7634,-1.7678,-1.7864,-1.7634,-1.7617,-1.7652,-1.7987,-1.8476,-1.873,-1.9029,-1.9365,-1.9568,-2.0069,-1.9931,-1.9765,-2.0372,-2.0503,-2.0366,-2.0276,-2.0136,-2.0106,-2.0005,-1.9895,-1.9825,-1.9835,-1.9672,-1.9662,-1.9805,-1.9805,-1.9967,-1.9967,-2.013,-2.013,-2.012,-2.0481,-2.0996,-2.1659,-2.1795,-2.1682,-2.1737,-2.1894,-2.1946,-2.1912,-2.2152,-2.2294,-2.2236,-2.202,-2.2603,-2.2862,-2.2992,-2.3666,-2.3997,-2.3807,-2.3591,-2.3769,-2.41,-2.3795,-2.396,-2.4302,-2.4402,-2.4494,-2.4674,-2.4716,-2.4636,-2.4784,-2.4784,-2.4824,-2.5026,-2.5242,-2.5552,-2.5593,-2.5755,-2.5755,-2.5769,-2.5728,-2.57,-2.5792,-2.5645,-2.5645,-2.5552,-2.5445,-2.5187,-2.5039,-2.5026,-2.5039,-2.5242,-2.5524,-2.5709,-2.5653,-2.5506,-2.5653,-2.58,-2.58,-2.5709,-1.5216,-1.5216,-1.5216,-1.5381,-1.5719,-1.5711,-1.5875,-1.6048,-1.6048,-1.6048,-1.6048,-1.6048,-1.6089,-1.617,-1.6352,-1.6585,-1.6843,-1.7095,-1.6961,-1.7138,-1.7231,-1.7273,-1.7078,-1.7086,-1.7086,-1.7281,-1.7247,-1.7188,-1.753,-1.8014,-1.8347,-1.8505,-1.8671,-1.8727,-1.9146,-1.8988,-1.9034,-1.8922,-1.91,-1.9063,-1.9006,-1.8978,-1.8941,-1.8838,-1.8725,-1.8678,-1.865,-1.8538,-1.8673,-1.8827,-1.8818,-1.899,-1.9153,-1.9326,-1.9316,-1.9632,-2.0038,-2.0471,-2.0772,-2.0836,-2.0931,-2.1206,-2.1298,-2.148,-2.1692,-2.1814,-2.1814,-2.1791,-2.2102,-2.228,-2.2292,-2.2567,-2.2722,-2.2889,-2.3116,-2.3402,-2.3556,-2.3495,-2.3599,-2.3945,-2.4124,-2.4112,-2.4137,-2.4263,-2.4363,-2.475,-2.4776,-2.4953,-2.5157,-2.5375,-2.5526,-2.565,-2.565,-2.565,-2.5526,-2.5526,-2.5513,-2.5486,-2.5486,-2.5486,-2.5486,-2.5308,-2.505,-2.4927,-2.4869,-2.5006,-2.5077,-2.5052,-2.5053,-2.5119,-2.5065,-2.5133,-2.5215,-2.531,-2.5256,-1.439,-1.439,-1.4548,-1.4878,-1.5216,-1.5216,-1.5381,-1.5719,-1.5601,-1.5782,-1.5798,-1.5838,-1.61,-1.6173,-1.6381,-1.6438,-1.656,-1.6625,-1.6641,-1.6657,-1.669,-1.673,-1.6927,-1.6738,-1.6738,-1.6706,-1.6935,-1.7074,-1.7237,-1.7545,-1.7861,-1.7943,-1.8042,-1.8113,-1.7996,-1.8184,-1.821,-1.8299,-1.8299,-1.8246,-1.8184,-1.8175,-1.797,-1.7899,-1.7803,-1.7715,-1.768,-1.7539,-1.7772,-1.7928,-1.8028,-1.8174,-1.8346,-1.8346,-1.851,-1.8664,-1.8799,-1.9124,-1.9612,-1.9907,-2.012,-2.0393,-2.0642,-2.0772,-2.1118,-2.1357,-2.1357,-2.1254,-2.1581,-2.1716,-2.1682,-2.1862,-2.2211,-2.238,-2.2211,-2.2478,-2.2768,-2.2804,-2.3008,-2.3224,-2.3406,-2.3658,-2.3729,-2.3872,-2.4108,-2.4598,-2.4739,-2.4918,-2.5072,-2.5251,-2.5185,-2.5119,-2.5106,-2.5093,-2.5119,-2.5159,-2.5198,-2.5251,-2.5251,-2.5212,-2.5146,-2.4967,-2.4749,-2.4827,-2.479,-2.4674,-2.467,-2.4599,-2.4552,-2.4657,-2.471,-2.4644,-2.4684,-2.4789,-2.4948,-1.3562,-1.3569,-1.439,-1.4728,-1.4728,-1.4721,-1.4721,-1.4939,-1.5059,-1.5112,-1.5134,-1.5593,-1.5825,-1.6042,-1.622,-1.6414,-1.6609,-1.6763,-1.6647,-1.6711,-1.6982,-1.7006,-1.7006,-1.6998,-1.7031,-1.7031,-1.6998,-1.7006,-1.7047,-1.7148,-1.7526,-1.7826,-1.7699,-1.7913,-1.7974,-1.7854,-1.8096,-1.8183,-1.8209,-1.8148,-1.8061,-1.8009,-1.7957,-1.7826,-1.7774,-1.7908,-1.7908,-1.7565,-1.7452,-1.7609,-1.7478,-1.7563,-1.7736,-1.77,-1.7864,-1.7855,-1.7855,-1.801,-1.8337,-1.9153,-1.9805,-1.9957,-2.0089,-2.02,-2.045,-2.019,-2.022,-2.032,-2.0911,-2.1125,-2.1479,-2.1856,-2.1905,-2.1871,-2.1667,-2.1997,-2.2157,-2.2362,-2.2579,-2.2648,-2.2773,-2.2987,-2.3123,-2.3234,-2.3769,-2.4271,-2.4687,-2.4856,-2.4636,-2.4791,-2.4572,-2.4508,-2.4495,-2.4483,-2.447,-2.4534,-2.4817,-2.5011,-2.4998,-2.4765,-2.4521,-2.4521,-2.4778,-2.4443,-2.4507,-2.4379,-2.4162,-2.3945,-2.3907,-2.4214,-2.4176,-2.4366,-2.4379,-2.4661,-2.4688,-1.3668,-1.3675,-1.4006,-1.4287,-1.4528,-1.4528,-1.4594,-1.5026,-1.5093,-1.5116,-1.5131,-1.5361,-1.5444,-1.5683,-1.5714,-1.594,-1.6033,-1.6094,-1.63,-1.649,-1.6545,-1.6753,-1.6936,-1.7112,-1.7104,-1.7112,-1.7112,-1.7112,-1.7096,-1.7112,-1.7238,-1.7281,-1.7387,-1.7454,-1.7513,-1.7505,-1.7563,-1.7597,-1.7639,-1.758,-1.7563,-1.7521,-1.7496,-1.7438,-1.7287,-1.727,-1.7237,-1.7078,-1.7171,-1.7263,-1.7302,-1.7233,-1.7347,-1.7442,-1.7399,-1.7381,-1.7381,-1.7372,-1.7682,-1.8337,-1.899,-1.9479,-1.9642,-1.9642,-1.9805,-1.9967,-1.9967,-2.012,-2.0292,-2.0465,-2.0607,-2.0769,-2.0909,-2.0931,-2.1103,-2.1438,-2.1599,-2.1761,-2.1911,-2.205,-2.2384,-2.2671,-2.2671,-2.2854,-2.3229,-2.3915,-2.4352,-2.4617,-2.4409,-2.4384,-2.419,-2.4177,-2.4165,-2.4202,-2.4202,-2.4409,-2.4617,-2.4604,-2.4579,-2.4384,-2.4177,-2.4799,-2.4875,-2.4485,-2.412,-2.3793,-2.3636,-2.3368,-2.3442,-2.3716,-2.4083,-2.4316,-2.4392,-2.4364,-2.4359,-1.3838,-1.3838,-1.3838,-1.3954,-1.4196,-1.4189,-1.4422,-1.47,-1.475,-1.498,-1.5017,-1.5024,-1.5241,-1.5329,-1.5533,-1.557,-1.566,-1.569,-1.5873,-1.6049,-1.6217,-1.6409,-1.6585,-1.6585,-1.6585,-1.6761,-1.6928,-1.6928,-1.6761,-1.6936,-1.7088,-1.7088,-1.7112,-1.7096,-1.7096,-1.7112,-1.7112,-1.7112,-1.7112,-1.7112,-1.7104,-1.7104,-1.7104,-1.708,-1.6974,-1.6933,-1.6885,-1.6935,-1.6845,-1.6941,-1.7011,-1.7078,-1.7178,-1.7276,-1.7182,-1.7138,-1.7113,-1.7095,-1.7217,-1.7691,-1.801,-1.85,-1.8664,-1.899,-1.9316,-1.9479,-1.9316,-1.9479,-1.9642,-1.9805,-1.9795,-2.013,-2.0292,-2.0455,-2.0455,-2.0617,-2.0779,-2.0941,-2.1265,-2.1427,-2.1588,-2.1588,-2.175,-2.175,-2.2522,-2.3093,-2.3389,-2.3695,-2.3695,-2.3695,-2.3879,-2.3879,-2.3891,-2.4087,-2.4308,-2.4062,-2.3671,-2.3683,-2.3683,-2.3891,-2.3915,-2.4492,-2.4332,-2.3731,-2.3413,-2.3348,-2.3164,-2.291,-2.3246,-2.3551,-2.3671,-2.3683,-2.3611,-2.3575,-2.3623,-1.3851,-1.3838,-1.3851,-1.3851,-1.3851,-1.3838,-1.3851,-1.4077,-1.4187,-1.4311,-1.4407,-1.4773,-1.4949,-1.5147,-1.5308,-1.5506,-1.5513,-1.5528,-1.5704,-1.5704,-1.5704,-1.5704,-1.5881,-1.5881,-1.6057,-1.5881,-1.6256,-1.6448,-1.6432,-1.684,-1.7001,-1.7001,-1.7033,-1.7161,-1.712,-1.7112,-1.7112,-1.7112,-1.7112,-1.7112,-1.7112,-1.7112,-1.7112,-1.7104,-1.708,-1.7055,-1.7015,-1.6925,-1.6852,-1.6984,-1.6845,-1.6754,-1.673,-1.6697,-1.6598,-1.6484,-1.6467,-1.656,-1.674,-1.7217,-1.7563,-1.77,-1.7846,-1.801,-1.801,-1.8174,-1.8337,-1.8673,-1.899,-1.9153,-1.9479,-1.9642,-1.9642,-1.9805,-1.9805,-1.9805,-1.9967,-2.013,-2.0455,-2.0779,-2.0455,-2.013,-2.0455,-2.0779,-2.1599,-2.2223,-2.2556,-2.2728,-2.2889,-2.305,-2.3371,-2.3371,-2.3371,-2.3371,-2.3371,-2.305,-2.2866,-2.2728,-2.2889,-2.3211,-2.3199,-2.3371,-2.3211,-2.2728,-2.2728,-2.2728,-2.2728,-2.2556,-2.2739,-2.2646,-2.2898,-2.2933,-2.2843,-2.2854,-2.3003,-1.415,-1.4143,-1.4143,-1.4143,-1.4129,-1.4034,-1.4048,-1.4143,-1.4204,-1.4251,-1.4292,-1.4469,-1.4469,-1.4646,-1.4646,-1.4829,-1.4829,-1.4829,-1.4829,-1.5175,-1.5183,-1.5528,-1.5536,-1.5558,-1.5727,-1.5742,-1.5964,-1.6046,-1.6054,-1.6472,-1.6549,-1.6564,-1.686,-1.6967,-1.7001,-1.7112,-1.7112,-1.7112,-1.7112,-1.7112,-1.7112,-1.712,-1.712,-1.712,-1.7112,-1.7112,-1.7112,-1.7023,-1.7006,-1.6982,-1.6836,-1.6763,-1.6738,-1.6698,-1.6568,-1.6495,-1.6487,-1.647,-1.6574,-1.6894,-1.711,-1.7156,-1.7381,-1.7381,-1.7519,-1.7691,-1.7691,-1.7855,-1.801,-1.8337,-1.85,-1.85,-1.8664,-1.9,-1.9163,-1.9326,-1.9489,-1.9479,-1.9805,-2.013,-1.9967,-1.9967,-2.013,-2.013,-2.0779,-2.1265,-2.1588,-2.2245,-2.2406,-2.2567,-2.2889,-2.2889,-2.2889,-2.2728,-2.2567,-2.2234,-2.2073,-2.2234,-2.2406,-2.2728,-2.2728,-2.2245,-2.2406,-2.2245,-2.2245,-2.2084,-2.1922,-2.1761,-2.1761,-2.175,-2.1922,-2.2234,-2.2395,-2.2545,-2.2717,-1.4299,-1.4299,-1.4299,-1.4299,-1.4285,-1.419,-1.4217,-1.4292,-1.4299,-1.4299,-1.4299,-1.4299,-1.4299,-1.4299,-1.4299,-1.4299,-1.4299,-1.4299,-1.4299,-1.4829,-1.4886,-1.4907,-1.5098,-1.5305,-1.5198,-1.537,-1.5607,-1.568,-1.568,-1.5956,-1.6167,-1.634,-1.6378,-1.661,-1.6829,-1.6967,-1.7323,-1.7331,-1.7339,-1.7291,-1.725,-1.721,-1.7177,-1.7136,-1.7112,-1.7112,-1.7112,-1.7112,-1.7112,-1.7071,-1.7015,-1.6933,-1.6893,-1.6844,-1.673,-1.6698,-1.6609,-1.6592,-1.656,-1.6552,-1.6759,-1.6968,-1.7016,-1.7095,-1.7217,-1.7191,-1.7363,-1.7363,-1.7381,-1.7536,-1.77,-1.7855,-1.7864,-1.8365,-1.8346,-1.851,-1.8664,-1.8827,-1.899,-1.9316,-1.9479,-1.9479,-1.9642,-1.9642,-1.9967,-2.0455,-2.0779,-2.1265,-2.1761,-2.1922,-2.1922,-2.1911,-2.175,-2.1588,-2.1427,-2.1427,-2.1427,-2.1588,-2.175,-2.1911,-2.1588,-2.1265,-2.1588,-2.1761,-2.1427,-2.1103,-2.1103,-2.1103,-2.0941,-2.0941,-2.1103,-2.1588,-2.2084,-2.2084,-2.2073,-1.4299,-1.4299,-1.4299,-1.4299,-1.4299,-1.4285,-1.4292,-1.4299,-1.4299,-1.4299,-1.4299,-1.4299,-1.4299,-1.4299,-1.4299,-1.4312,-1.4326,-1.4326,-1.4353,-1.438,-1.4654,-1.4682,-1.4737,-1.4812,-1.4819,-1.4881,-1.5104,-1.5483,-1.5483,-1.5737,-1.5913,-1.6066,-1.611,-1.6249,-1.6583,-1.6931,-1.7262,-1.7206,-1.7166,-1.7119,-1.7234,-1.721,-1.7153,-1.7258,-1.7193,-1.7169,-1.7153,-1.7128,-1.712,-1.7104,-1.7096,-1.7096,-1.7096,-1.7104,-1.6998,-1.6868,-1.6706,-1.6674,-1.6665,-1.6682,-1.6625,-1.6705,-1.6598,-1.6593,-1.6659,-1.6816,-1.7007,-1.7164,-1.7173,-1.7278,-1.7399,-1.7399,-1.7399,-1.7545,-1.7527,-1.7691,-1.801,-1.8174,-1.8337,-1.85,-1.8673,-1.8673,-1.8673,-1.8837,-1.9192,-1.9316,-1.9805,-1.9967,-2.0455,-2.0617,-2.0617,-2.0617,-2.0455,-2.0292,-2.0292,-2.0627,-2.0617,-2.0941,-2.0617,-2.0617,-2.0282,-2.0292,-2.0617,-2.0779,-2.0292,-2.013,-2.0455,-2.0455,-2.0292,-2.0292,-2.0627,-2.0779,-2.1265,-2.1265,-2.1265,-1.4299,-1.4299,-1.4299,-1.4299,-1.4299,-1.4299,-1.4299,-1.4299,-1.4299,-1.4299,-1.4299,-1.4299,-1.4299,-1.4299,-1.4299,-1.4367,-1.4414,-1.4468,-1.4536,-1.459,-1.4638,-1.4665,-1.4699,-1.4733,-1.4746,-1.4787,-1.5025,-1.5094,-1.5114,-1.5348,-1.5589,-1.5431,-1.5753,-1.5953,-1.6146,-1.6532,-1.6574,-1.6644,-1.6788,-1.6915,-1.7057,-1.7033,-1.715,-1.7274,-1.7161,-1.7137,-1.7291,-1.7177,-1.7145,-1.712,-1.7112,-1.7112,-1.7112,-1.7112,-1.7063,-1.7047,-1.6982,-1.6966,-1.6958,-1.695,-1.6893,-1.6795,-1.6714,-1.6609,-1.6656,-1.6742,-1.6734,-1.686,-1.7011,-1.6977,-1.7093,-1.7067,-1.7199,-1.7156,-1.7304,-1.7469,-1.7625,-1.7625,-1.779,-1.7964,-1.8128,-1.8128,-1.8119,-1.8256,-1.8613,-1.8538,-1.8683,-1.9038,-1.9336,-1.9509,-1.9805,-1.9805,-1.9815,-1.9652,-1.9825,-2.015,-2.014,-2.013,-1.9855,-1.9895,-2.0048,-2.0048,-1.9988,-2.0008,-1.9925,-1.9885,-2.013,-1.9998,-1.9781,-1.9998,-2.015,-2.0303,-2.0292,-2.0475,-2.0627,-1.4299,-1.4299,-1.4299,-1.4299,-1.4299,-1.4299,-1.4299,-1.4299,-1.4299,-1.4299,-1.4299,-1.4299,-1.4299,-1.4312,-1.4367,-1.4434,-1.4502,-1.4577,-1.4645,-1.4699,-1.4808,-1.4828,-1.4835,-1.4882,-1.493,-1.4957,-1.4991,-1.5052,-1.5072,-1.5113,-1.5174,-1.5348,-1.5556,-1.5556,-1.573,-1.5889,-1.6011,-1.6095,-1.6206,-1.6529,-1.6682,-1.6651,-1.6811,-1.6923,-1.6986,-1.6963,-1.7111,-1.6952,-1.7057,-1.7193,-1.7177,-1.7112,-1.7112,-1.7112,-1.7112,-1.7096,-1.7088,-1.708,-1.7071,-1.7088,-1.7039,-1.699,-1.695,-1.6893,-1.6763,-1.682,-1.6754,-1.6697,-1.6713,-1.6705,-1.6808,-1.6919,-1.7019,-1.7118,-1.711,-1.7101,-1.7268,-1.7268,-1.7434,-1.7609,-1.7618,-1.7627,-1.7776,-1.7906,-1.7924,-1.8135,-1.8153,-1.8329,-1.8725,-1.8932,-1.9202,-1.9326,-1.9336,-1.9346,-1.9538,-1.9781,-1.9667,-1.9726,-1.9649,-1.9659,-1.9736,-1.9746,-1.962,-1.962,-1.962,-1.9746,-1.9716,-1.9755,-1.9639,-1.9716,-1.9851,-1.9755,-1.9871,-2.0058,-2.0038,-1.4299,-1.4299,-1.4299,-1.4299,-1.4299,-1.4299,-1.4299,-1.4299,-1.4299,-1.4299,-1.4299,-1.4299,-1.4312,-1.436,-1.4434,-1.4529,-1.4624,-1.4719,-1.4787,-1.478,-1.493,-1.4984,-1.5025,-1.5099,-1.5086,-1.5147,-1.5167,-1.514,-1.5167,-1.5181,-1.5181,-1.5181,-1.5181,-1.5368,-1.5368,-1.5368,-1.5521,-1.5494,-1.5839,-1.6376,-1.6302,-1.6258,-1.6206,-1.6278,-1.6408,-1.6393,-1.6718,-1.6806,-1.686,-1.6983,-1.7105,-1.7025,-1.7161,-1.7112,-1.7112,-1.7112,-1.7112,-1.7112,-1.7112,-1.7112,-1.7112,-1.7096,-1.7104,-1.7063,-1.6942,-1.6844,-1.6771,-1.6747,-1.6763,-1.6706,-1.6812,-1.6771,-1.6891,-1.6817,-1.6775,-1.6935,-1.6935,-1.7104,-1.7104,-1.7272,-1.7281,-1.7281,-1.7457,-1.7423,-1.7574,-1.7855,-1.7873,-1.8033,-1.8139,-1.8459,-1.856,-1.8806,-1.8843,-1.9065,-1.9113,-1.9189,-1.9256,-1.9332,-1.9399,-1.938,-1.9452,-1.9342,-1.9278,-1.937,-1.9452,-1.9361,-1.937,-1.9351,-1.949,-1.95,-1.95,-1.9409,-1.9481,-1.9785,-1.9726,-1.4299,-1.4299,-1.4299,-1.4299,-1.4299,-1.4299,-1.4299,-1.4299,-1.4299,-1.4299,-1.4299,-1.4312,-1.436,-1.4448,-1.4516,-1.4631,-1.4828,-1.4875,-1.4977,-1.5018,-1.5106,-1.5099,-1.512,-1.5153,-1.5181,-1.5181,-1.5181,-1.5181,-1.5181,-1.5181,-1.5181,-1.5181,-1.5181,-1.5181,-1.5181,-1.5181,-1.5181,-1.5181,-1.5549,-1.5917,-1.6061,-1.6061,-1.6032,-1.6331,-1.6472,-1.639,-1.6514,-1.6416,-1.634,-1.6476,-1.6829,-1.7103,-1.7339,-1.7193,-1.712,-1.7112,-1.7128,-1.7128,-1.7112,-1.7112,-1.7112,-1.7112,-1.7112,-1.7112,-1.7071,-1.7015,-1.6974,-1.6966,-1.6942,-1.6868,-1.682,-1.6787,-1.6755,-1.6674,-1.6609,-1.6779,-1.6779,-1.6779,-1.6941,-1.6941,-1.6941,-1.712,-1.7128,-1.7111,-1.7256,-1.7587,-1.7756,-1.7926,-1.7961,-1.8042,-1.8051,-1.8166,-1.8466,-1.867,-1.8698,-1.8894,-1.8959,-1.9156,-1.9194,-1.9175,-1.9325,-1.9212,-1.9098,-1.9166,-1.9278,-1.9203,-1.9231,-1.9306,-1.9297,-1.9203,-1.9222,-1.9269,-1.9231,-1.9577,-1.9529,-1.4122,-1.4299,-1.4299,-1.4299,-1.4299,-1.4299,-1.4299,-1.4299,-1.4299,-1.4333,-1.4387,-1.4401,-1.4441,-1.4563,-1.4645,-1.4767,-1.4977,-1.5038,-1.5086,-1.5153,-1.5181,-1.5174,-1.5181,-1.5181,-1.5181,-1.5181,-1.5181,-1.5181,-1.5181,-1.5181,-1.5181,-1.5181,-1.5181,-1.5181,-1.5181,-1.5181,-1.5181,-1.5181,-1.5181,-1.5368,-1.5563,-1.5751,-1.5744,-1.5889,-1.6047,-1.5989,-1.6124,-1.6029,-1.6147,-1.6081,-1.6408,-1.6703,-1.6963,-1.7071,-1.7145,-1.7266,-1.7234,-1.7193,-1.7153,-1.7136,-1.7136,-1.7145,-1.712,-1.712,-1.7112,-1.7055,-1.7055,-1.7047,-1.7047,-1.699,-1.6982,-1.6958,-1.695,-1.6901,-1.6885,-1.6877,-1.6877,-1.705,-1.705,-1.705,-1.705,-1.705,-1.7058,-1.7058,-1.7206,-1.7206,-1.751,-1.7484,-1.7648,-1.7605,-1.7622,-1.7614,-1.8066,-1.839,-1.839,-1.8596,-1.8641,-1.8821,-1.9002,-1.8894,-1.8931,-1.8913,-1.8894,-1.9029,-1.902,-1.8913,-1.8904,-1.9002,-1.9038,-1.8795,-1.8949,-1.9266,-1.921,-1.9353,-1.9344,-1.3768,-1.4122,-1.4122,-1.4122,-1.4299,-1.4122,-1.4299,-1.4306,-1.4326,-1.4394,-1.4509,-1.4557,-1.4563,-1.4672,-1.4821,-1.493,-1.5025,-1.5106,-1.5167,-1.5181,-1.5181,-1.5181,-1.5181,-1.5181,-1.5181,-1.5181,-1.5181,-1.5181,-1.5181,-1.5181,-1.5181,-1.5181,-1.5181,-1.5181,-1.5181,-1.5181,-1.5181,-1.5181,-1.5181,-1.5181,-1.5181,-1.5181,-1.5368,-1.5181,-1.5181,-1.5368,-1.5695,-1.5825,-1.5924,-1.6044,-1.6155,-1.6453,-1.6575,-1.6703,-1.6806,-1.6915,-1.7055,-1.6991,-1.7097,-1.7073,-1.7057,-1.7201,-1.7161,-1.7145,-1.7153,-1.7136,-1.7136,-1.7128,-1.7128,-1.7112,-1.7104,-1.7096,-1.7088,-1.7088,-1.708,-1.708,-1.708,-1.708,-1.708,-1.7088,-1.708,-1.708,-1.7088,-1.7096,-1.7104,-1.7112,-1.7112,-1.7112,-1.708,-1.7339,-1.7297,-1.7438,-1.756,-1.7897,-1.8078,-1.826,-1.8459,-1.8503,-1.8703,-1.8627,-1.8497,-1.8583,-1.873,-1.861,-1.8627,-1.8583,-1.8601,-1.8739,-1.8627,-1.8462,-1.8775,-1.8885,-1.9077,-1.9059,-1.9479,-1.3053,-1.323,-1.323,-1.3413,-1.3768,-1.3768,-1.3945,-1.4319,-1.4421,-1.4489,-1.457,-1.478,-1.4882,-1.4882,-1.4923,-1.5011,-1.5113,-1.5174,-1.5174,-1.5181,-1.5181,-1.5181,-1.5181,-1.5181,-1.5181,-1.5181,-1.5181,-1.5181,-1.5181,-1.5181,-1.5181,-1.5181,-1.5181,-1.5181,-1.5181,-1.5181,-1.5181,-1.5181,-1.5181,-1.5181,-1.5181,-1.5181,-1.5181,-1.5181,-1.5181,-1.5181,-1.5355,-1.5341,-1.5327,-1.5466,-1.5746,-1.6051,-1.6368,-1.6491,-1.6408,-1.6545,-1.6687,-1.6649,-1.6767,-1.6744,-1.6908,-1.7274,-1.7234,-1.7153,-1.7121,-1.7041,-1.7033,-1.7009,-1.7169,-1.7145,-1.7128,-1.7112,-1.7104,-1.7104,-1.7104,-1.7104,-1.7104,-1.7104,-1.7104,-1.7104,-1.7104,-1.7096,-1.7104,-1.7104,-1.7104,-1.7112,-1.7112,-1.7112,-1.7112,-1.7112,-1.7112,-1.7238,-1.7355,-1.7572,-1.7763,-1.807,-1.8261,-1.8313,-1.8339,-1.8164,-1.8164,-1.8514,-1.8514,-1.8164,-1.8339,-1.8479,-1.8339,-1.8164,-1.8331,-1.8322,-1.8506,-1.8663,-1.8689,-1.8864,-1.9039]}]]